Weather Data 2026-05-06
| Time | Wind Dr | Wind Spd mph |
Wind Gust mph |
Hum In % |
Humid % |
TempI F |
Temp F |
Raw Bar in |
Tot Rain in |
UV | Solar W/sqm |
DailyRain in |
HourRain in |
24HrRain in |
RainRate in |
|---|---|---|---|---|---|---|---|---|---|---|---|---|---|---|---|
| 05/06/26 12:01:19 AM | 34 | 0.0 | 0.0 | 48 | 74 | 65.6 | 52.7 | 30.079 | 7.26 | 0.0 | 0 | 0.00 | 0.00 | 0.00 | 0.00 |
| 05/06/26 12:02:28 AM | 38 | 0.0 | 0.0 | 48 | 75 | 65.6 | 52.7 | 30.081 | 7.26 | 0.0 | 0 | 0.00 | 0.00 | 0.00 | 0.00 |
| 05/06/26 12:03:20 AM | 32 | 0.0 | 0.0 | 48 | 75 | 65.6 | 52.7 | 30.079 | 7.26 | 0.0 | 0 | 0.00 | 0.00 | 0.00 | 0.00 |
| 05/06/26 12:04:30 AM | 34 | 0.0 | 0.0 | 48 | 75 | 65.6 | 52.7 | 30.081 | 7.26 | 0.0 | 0 | 0.00 | 0.00 | 0.00 | 0.00 |
| 05/06/26 12:05:22 AM | 39 | 0.0 | 0.0 | 48 | 75 | 65.6 | 52.7 | 30.078 | 7.26 | 0.0 | 0 | 0.00 | 0.00 | 0.00 | 0.00 |
| 05/06/26 12:06:32 AM | 36 | 0.0 | 0.0 | 48 | 75 | 65.6 | 52.7 | 30.079 | 7.26 | 0.0 | 0 | 0.00 | 0.00 | 0.00 | 0.00 |
| 05/06/26 12:07:26 AM | 35 | 0.0 | 0.0 | 48 | 75 | 65.6 | 52.7 | 30.081 | 7.26 | 0.0 | 0 | 0.00 | 0.00 | 0.00 | 0.00 |
| 05/06/26 12:08:18 AM | 38 | 0.0 | 0.0 | 48 | 75 | 65.7 | 52.7 | 30.081 | 7.26 | 0.0 | 0 | 0.00 | 0.00 | 0.00 | 0.00 |
| 05/06/26 12:09:19 AM | 38 | 0.0 | 0.0 | 48 | 75 | 65.6 | 52.7 | 30.083 | 7.26 | 0.0 | 0 | 0.00 | 0.00 | 0.00 | 0.00 |
| 05/06/26 12:10:29 AM | 38 | 0.0 | 1.0 | 48 | 75 | 65.6 | 52.7 | 30.083 | 7.26 | 0.0 | 0 | 0.00 | 0.00 | 0.00 | 0.00 |
| 05/06/26 12:11:21 AM | 31 | 0.0 | 1.0 | 48 | 75 | 65.6 | 52.7 | 30.084 | 7.26 | 0.0 | 0 | 0.00 | 0.00 | 0.00 | 0.00 |
| 05/06/26 12:12:36 AM | 38 | 0.0 | 1.0 | 48 | 75 | 65.7 | 52.6 | 30.085 | 7.26 | 0.0 | 0 | 0.00 | 0.00 | 0.00 | 0.00 |
| 05/06/26 12:13:31 AM | 38 | 0.0 | 1.0 | 48 | 75 | 65.7 | 52.6 | 30.085 | 7.26 | 0.0 | 0 | 0.00 | 0.00 | 0.00 | 0.00 |
| 05/06/26 12:14:23 AM | 32 | 0.0 | 1.0 | 48 | 75 | 65.6 | 52.6 | 30.085 | 7.26 | 0.0 | 0 | 0.00 | 0.00 | 0.00 | 0.00 |
| 05/06/26 12:15:30 AM | 32 | 0.0 | 1.0 | 48 | 75 | 65.6 | 52.6 | 30.082 | 7.26 | 0.0 | 0 | 0.00 | 0.00 | 0.00 | 0.00 |
| 05/06/26 12:16:21 AM | 38 | 0.0 | 1.0 | 48 | 75 | 65.6 | 52.6 | 30.085 | 7.26 | 0.0 | 0 | 0.00 | 0.00 | 0.00 | 0.00 |
| 05/06/26 12:17:34 AM | 35 | 1.0 | 1.0 | 48 | 75 | 65.7 | 52.6 | 30.083 | 7.26 | 0.0 | 0 | 0.00 | 0.00 | 0.00 | 0.00 |
| 05/06/26 12:18:26 AM | 38 | 0.0 | 1.0 | 48 | 75 | 65.7 | 52.6 | 30.082 | 7.26 | 0.0 | 0 | 0.00 | 0.00 | 0.00 | 0.00 |
| 05/06/26 12:19:18 AM | 38 | 0.0 | 1.0 | 48 | 75 | 65.6 | 52.5 | 30.083 | 7.26 | 0.0 | 0 | 0.00 | 0.00 | 0.00 | 0.00 |
| 05/06/26 12:20:31 AM | 38 | 0.0 | 1.0 | 48 | 75 | 65.7 | 52.6 | 30.080 | 7.26 | 0.0 | 0 | 0.00 | 0.00 | 0.00 | 0.00 |
| 05/06/26 12:21:16 AM | 38 | 0.0 | 1.0 | 48 | 75 | 65.7 | 52.6 | 30.080 | 7.26 | 0.0 | 0 | 0.00 | 0.00 | 0.00 | 0.00 |
| 05/06/26 12:22:29 AM | 38 | 0.0 | 1.0 | 48 | 75 | 65.7 | 52.5 | 30.082 | 7.26 | 0.0 | 0 | 0.00 | 0.00 | 0.00 | 0.00 |
| 05/06/26 12:23:21 AM | 32 | 0.0 | 1.0 | 48 | 75 | 65.7 | 52.5 | 30.082 | 7.26 | 0.0 | 0 | 0.00 | 0.00 | 0.00 | 0.00 |
| 05/06/26 12:24:37 AM | 35 | 0.0 | 1.0 | 48 | 75 | 65.7 | 52.5 | 30.081 | 7.26 | 0.0 | 0 | 0.00 | 0.00 | 0.00 | 0.00 |
| 05/06/26 12:25:29 AM | 36 | 0.0 | 1.0 | 48 | 75 | 65.7 | 52.5 | 30.082 | 7.26 | 0.0 | 0 | 0.00 | 0.00 | 0.00 | 0.00 |
| 05/06/26 12:26:35 AM | 36 | 0.0 | 1.0 | 48 | 75 | 65.7 | 52.4 | 30.082 | 7.26 | 0.0 | 0 | 0.00 | 0.00 | 0.00 | 0.00 |
| 05/06/26 12:27:27 AM | 32 | 0.0 | 1.0 | 48 | 75 | 65.7 | 52.4 | 30.081 | 7.26 | 0.0 | 0 | 0.00 | 0.00 | 0.00 | 0.00 |
| 05/06/26 12:28:19 AM | 38 | 0.0 | 1.0 | 48 | 75 | 65.7 | 52.4 | 30.082 | 7.26 | 0.0 | 0 | 0.00 | 0.00 | 0.00 | 0.00 |
| 05/06/26 12:29:32 AM | 35 | 0.0 | 1.0 | 48 | 75 | 65.7 | 52.4 | 30.080 | 7.26 | 0.0 | 0 | 0.00 | 0.00 | 0.00 | 0.00 |
| 05/06/26 12:30:23 AM | 38 | 0.0 | 1.0 | 48 | 75 | 65.7 | 52.4 | 30.081 | 7.26 | 0.0 | 0 | 0.00 | 0.00 | 0.00 | 0.00 |
| 05/06/26 12:31:30 AM | 39 | 0.0 | 1.0 | 48 | 75 | 65.7 | 52.3 | 30.081 | 7.26 | 0.0 | 0 | 0.00 | 0.00 | 0.00 | 0.00 |
| 05/06/26 12:32:22 AM | 38 | 0.0 | 1.0 | 48 | 76 | 65.7 | 52.3 | 30.080 | 7.26 | 0.0 | 0 | 0.00 | 0.00 | 0.00 | 0.00 |
| 05/06/26 12:33:35 AM | 38 | 0.0 | 1.0 | 48 | 76 | 65.7 | 52.3 | 30.080 | 7.26 | 0.0 | 0 | 0.00 | 0.00 | 0.00 | 0.00 |
| 05/06/26 12:34:27 AM | 38 | 0.0 | 1.0 | 48 | 76 | 65.7 | 52.3 | 30.080 | 7.26 | 0.0 | 0 | 0.00 | 0.00 | 0.00 | 0.00 |
| 05/06/26 12:35:18 AM | 32 | 0.0 | 1.0 | 48 | 76 | 65.7 | 52.2 | 30.081 | 7.26 | 0.0 | 0 | 0.00 | 0.00 | 0.00 | 0.00 |
| 05/06/26 12:36:31 AM | 36 | 0.0 | 1.0 | 48 | 76 | 65.7 | 52.2 | 30.081 | 7.26 | 0.0 | 0 | 0.00 | 0.00 | 0.00 | 0.00 |
| 05/06/26 12:37:17 AM | 30 | 0.0 | 1.0 | 48 | 76 | 65.7 | 52.2 | 30.081 | 7.26 | 0.0 | 0 | 0.00 | 0.00 | 0.00 | 0.00 |
| 05/06/26 12:38:30 AM | 35 | 0.0 | 1.0 | 48 | 76 | 65.7 | 52.1 | 30.080 | 7.26 | 0.0 | 0 | 0.00 | 0.00 | 0.00 | 0.00 |
| 05/06/26 12:39:22 AM | 38 | 0.0 | 1.0 | 48 | 76 | 65.7 | 52.1 | 30.082 | 7.26 | 0.0 | 0 | 0.00 | 0.00 | 0.00 | 0.00 |
| 05/06/26 12:40:35 AM | 38 | 0.0 | 1.0 | 48 | 76 | 65.7 | 52.1 | 30.079 | 7.26 | 0.0 | 0 | 0.00 | 0.00 | 0.00 | 0.00 |
| 05/06/26 12:41:26 AM | 39 | 0.0 | 1.0 | 48 | 76 | 65.7 | 52.1 | 30.078 | 7.26 | 0.0 | 0 | 0.00 | 0.00 | 0.00 | 0.00 |
| 05/06/26 12:42:33 AM | 38 | 0.0 | 1.0 | 48 | 76 | 65.7 | 52.0 | 30.079 | 7.26 | 0.0 | 0 | 0.00 | 0.00 | 0.00 | 0.00 |
| 05/06/26 12:43:25 AM | 35 | 0.0 | 1.0 | 48 | 76 | 65.7 | 52.0 | 30.078 | 7.26 | 0.0 | 0 | 0.00 | 0.00 | 0.00 | 0.00 |
| 05/06/26 12:44:17 AM | 35 | 0.0 | 1.0 | 48 | 76 | 65.7 | 52.0 | 30.078 | 7.26 | 0.0 | 0 | 0.00 | 0.00 | 0.00 | 0.00 |
| 05/06/26 12:45:30 AM | 38 | 0.0 | 1.0 | 48 | 76 | 65.7 | 52.0 | 30.077 | 7.26 | 0.0 | 0 | 0.00 | 0.00 | 0.00 | 0.00 |
| 05/06/26 12:46:21 AM | 38 | 0.0 | 1.0 | 48 | 76 | 65.7 | 51.9 | 30.078 | 7.26 | 0.0 | 0 | 0.00 | 0.00 | 0.00 | 0.00 |
| 05/06/26 12:47:31 AM | 34 | 0.0 | 1.0 | 48 | 76 | 65.7 | 51.9 | 30.080 | 7.26 | 0.0 | 0 | 0.00 | 0.00 | 0.00 | 0.00 |
| 05/06/26 12:48:23 AM | 38 | 0.0 | 1.0 | 48 | 76 | 65.7 | 51.9 | 30.079 | 7.26 | 0.0 | 0 | 0.00 | 0.00 | 0.00 | 0.00 |
| 05/06/26 12:49:32 AM | 36 | 0.0 | 1.0 | 48 | 76 | 65.7 | 51.9 | 30.078 | 7.26 | 0.0 | 0 | 0.00 | 0.00 | 0.00 | 0.00 |
| 05/06/26 12:50:27 AM | 30 | 0.0 | 1.0 | 48 | 76 | 65.7 | 51.9 | 30.079 | 7.26 | 0.0 | 0 | 0.00 | 0.00 | 0.00 | 0.00 |
| 05/06/26 12:51:19 AM | 37 | 0.0 | 1.0 | 48 | 76 | 65.8 | 51.8 | 30.079 | 7.26 | 0.0 | 0 | 0.00 | 0.00 | 0.00 | 0.00 |
| 05/06/26 12:52:32 AM | 37 | 0.0 | 1.0 | 48 | 76 | 65.7 | 51.8 | 30.079 | 7.26 | 0.0 | 0 | 0.00 | 0.00 | 0.00 | 0.00 |
| 05/06/26 12:53:18 AM | 34 | 0.0 | 1.0 | 48 | 76 | 65.7 | 51.8 | 30.076 | 7.26 | 0.0 | 0 | 0.00 | 0.00 | 0.00 | 0.00 |
| 05/06/26 12:54:30 AM | 36 | 0.0 | 1.0 | 48 | 76 | 65.7 | 51.8 | 30.078 | 7.26 | 0.0 | 0 | 0.00 | 0.00 | 0.00 | 0.00 |
| 05/06/26 12:55:22 AM | 35 | 0.0 | 1.0 | 48 | 76 | 65.8 | 51.8 | 30.079 | 7.26 | 0.0 | 0 | 0.00 | 0.00 | 0.00 | 0.00 |
| 05/06/26 12:56:35 AM | 36 | 0.0 | 1.0 | 48 | 77 | 65.7 | 51.8 | 30.078 | 7.26 | 0.0 | 0 | 0.00 | 0.00 | 0.00 | 0.00 |
| 05/06/26 12:57:27 AM | 38 | 0.0 | 1.0 | 48 | 77 | 65.8 | 51.8 | 30.076 | 7.26 | 0.0 | 0 | 0.00 | 0.00 | 0.00 | 0.00 |
| 05/06/26 12:58:37 AM | 38 | 0.0 | 1.0 | 48 | 77 | 65.8 | 51.8 | 30.076 | 7.26 | 0.0 | 0 | 0.00 | 0.00 | 0.00 | 0.00 |
| 05/06/26 12:59:25 AM | 34 | 0.0 | 1.0 | 48 | 77 | 65.8 | 51.8 | 30.076 | 7.26 | 0.0 | 0 | 0.00 | 0.00 | 0.00 | 0.00 |
| 05/06/26 1:00:20 AM | 35 | 0.0 | 1.0 | 48 | 77 | 65.8 | 51.8 | 30.075 | 7.26 | 0.0 | 0 | 0.00 | 0.00 | 0.00 | 0.00 |
| 05/06/26 1:01:30 AM | 35 | 0.0 | 1.0 | 48 | 77 | 65.8 | 51.7 | 30.076 | 7.26 | 0.0 | 0 | 0.00 | 0.00 | 0.00 | 0.00 |
| 05/06/26 1:02:22 AM | 36 | 0.0 | 1.0 | 48 | 77 | 65.8 | 51.8 | 30.076 | 7.26 | 0.0 | 0 | 0.00 | 0.00 | 0.00 | 0.00 |
| 05/06/26 1:03:28 AM | 38 | 0.0 | 1.0 | 48 | 77 | 65.8 | 51.8 | 30.076 | 7.26 | 0.0 | 0 | 0.00 | 0.00 | 0.00 | 0.00 |
| 05/06/26 1:04:20 AM | 37 | 0.0 | 1.0 | 48 | 77 | 65.8 | 51.8 | 30.075 | 7.26 | 0.0 | 0 | 0.00 | 0.00 | 0.00 | 0.00 |
| 05/06/26 1:05:33 AM | 38 | 0.0 | 1.0 | 48 | 77 | 65.8 | 51.8 | 30.075 | 7.26 | 0.0 | 0 | 0.00 | 0.00 | 0.00 | 0.00 |
| 05/06/26 1:06:22 AM | 32 | 0.0 | 1.0 | 48 | 77 | 65.8 | 51.7 | 30.076 | 7.26 | 0.0 | 0 | 0.00 | 0.00 | 0.00 | 0.00 |
| 05/06/26 1:07:35 AM | 36 | 0.0 | 1.0 | 48 | 77 | 65.8 | 51.7 | 30.076 | 7.26 | 0.0 | 0 | 0.00 | 0.00 | 0.00 | 0.00 |
| 05/06/26 1:08:27 AM | 38 | 0.0 | 1.0 | 48 | 78 | 65.8 | 51.7 | 30.076 | 7.26 | 0.0 | 0 | 0.00 | 0.00 | 0.00 | 0.00 |
| 05/06/26 1:09:15 AM | 37 | 0.0 | 1.0 | 48 | 78 | 65.8 | 51.7 | 30.077 | 7.26 | 0.0 | 0 | 0.00 | 0.00 | 0.00 | 0.00 |
| 05/06/26 1:10:28 AM | 37 | 0.0 | 1.0 | 48 | 78 | 65.8 | 51.7 | 30.077 | 7.26 | 0.0 | 0 | 0.00 | 0.00 | 0.00 | 0.00 |
| 05/06/26 1:11:20 AM | 38 | 0.0 | 1.0 | 48 | 78 | 65.8 | 51.7 | 30.080 | 7.26 | 0.0 | 0 | 0.00 | 0.00 | 0.00 | 0.00 |
| 05/06/26 1:12:33 AM | 34 | 0.0 | 1.0 | 48 | 78 | 65.8 | 51.7 | 30.078 | 7.26 | 0.0 | 0 | 0.00 | 0.00 | 0.00 | 0.00 |
| 05/06/26 1:13:25 AM | 38 | 0.0 | 1.0 | 48 | 78 | 65.8 | 51.8 | 30.080 | 7.26 | 0.0 | 0 | 0.00 | 0.00 | 0.00 | 0.00 |
| 05/06/26 1:14:34 AM | 36 | 0.0 | 1.0 | 48 | 78 | 65.8 | 51.8 | 30.076 | 7.26 | 0.0 | 0 | 0.00 | 0.00 | 0.00 | 0.00 |
| 05/06/26 1:15:26 AM | 34 | 0.0 | 1.0 | 48 | 78 | 65.8 | 51.8 | 30.079 | 7.26 | 0.0 | 0 | 0.00 | 0.00 | 0.00 | 0.00 |
| 05/06/26 1:16:18 AM | 38 | 0.0 | 1.0 | 48 | 78 | 65.8 | 51.8 | 30.075 | 7.26 | 0.0 | 0 | 0.00 | 0.00 | 0.00 | 0.00 |
| 05/06/26 1:17:28 AM | 38 | 0.0 | 1.0 | 48 | 78 | 65.8 | 51.8 | 30.077 | 7.26 | 0.0 | 0 | 0.00 | 0.00 | 0.00 | 0.00 |
| 05/06/26 1:18:19 AM | 32 | 0.0 | 1.0 | 48 | 78 | 65.8 | 51.8 | 30.077 | 7.26 | 0.0 | 0 | 0.00 | 0.00 | 0.00 | 0.00 |
| 05/06/26 1:19:29 AM | 38 | 0.0 | 1.0 | 48 | 78 | 65.9 | 51.8 | 30.072 | 7.26 | 0.0 | 0 | 0.00 | 0.00 | 0.00 | 0.00 |
| 05/06/26 1:20:21 AM | 36 | 0.0 | 1.0 | 48 | 78 | 65.8 | 51.8 | 30.072 | 7.26 | 0.0 | 0 | 0.00 | 0.00 | 0.00 | 0.00 |
| 05/06/26 1:21:34 AM | 30 | 0.0 | 1.0 | 48 | 78 | 65.8 | 51.8 | 30.073 | 7.26 | 0.0 | 0 | 0.00 | 0.00 | 0.00 | 0.00 |
| 05/06/26 1:22:23 AM | 37 | 0.0 | 1.0 | 48 | 78 | 65.8 | 51.8 | 30.075 | 7.26 | 0.0 | 0 | 0.00 | 0.00 | 0.00 | 0.00 |
| 05/06/26 1:23:35 AM | 34 | 0.0 | 1.0 | 48 | 78 | 65.9 | 51.8 | 30.076 | 7.26 | 0.0 | 0 | 0.00 | 0.00 | 0.00 | 0.00 |
| 05/06/26 1:24:27 AM | 38 | 0.0 | 1.0 | 48 | 78 | 65.9 | 51.8 | 30.073 | 7.26 | 0.0 | 0 | 0.00 | 0.00 | 0.00 | 0.00 |
| 05/06/26 1:25:34 AM | 38 | 0.0 | 1.0 | 48 | 78 | 65.9 | 51.8 | 30.072 | 7.26 | 0.0 | 0 | 0.00 | 0.00 | 0.00 | 0.00 |
| 05/06/26 1:26:26 AM | 34 | 0.0 | 1.0 | 48 | 78 | 65.9 | 51.8 | 30.072 | 7.26 | 0.0 | 0 | 0.00 | 0.00 | 0.00 | 0.00 |
| 05/06/26 1:27:20 AM | 38 | 0.0 | 1.0 | 48 | 78 | 65.9 | 51.8 | 30.075 | 7.26 | 0.0 | 0 | 0.00 | 0.00 | 0.00 | 0.00 |
| 05/06/26 1:28:30 AM | 32 | 0.0 | 1.0 | 48 | 78 | 65.9 | 51.7 | 30.073 | 7.26 | 0.0 | 0 | 0.00 | 0.00 | 0.00 | 0.00 |
| 05/06/26 1:29:22 AM | 37 | 0.0 | 1.0 | 48 | 78 | 65.8 | 51.7 | 30.073 | 7.26 | 0.0 | 0 | 0.00 | 0.00 | 0.00 | 0.00 |
| 05/06/26 1:30:32 AM | 38 | 0.0 | 1.0 | 48 | 78 | 65.9 | 51.7 | 30.072 | 7.26 | 0.0 | 0 | 0.00 | 0.00 | 0.00 | 0.00 |
| 05/06/26 1:31:24 AM | 34 | 0.0 | 1.0 | 48 | 78 | 65.9 | 51.7 | 30.073 | 7.26 | 0.0 | 0 | 0.00 | 0.00 | 0.00 | 0.00 |
| 05/06/26 1:32:34 AM | 36 | 0.0 | 1.0 | 48 | 78 | 65.9 | 51.7 | 30.075 | 7.26 | 0.0 | 0 | 0.00 | 0.00 | 0.00 | 0.00 |
| 05/06/26 1:33:25 AM | 36 | 0.0 | 1.0 | 48 | 79 | 65.9 | 51.7 | 30.072 | 7.26 | 0.0 | 0 | 0.00 | 0.00 | 0.00 | 0.00 |
| 05/06/26 1:34:17 AM | 37 | 0.0 | 1.0 | 48 | 79 | 65.9 | 51.7 | 30.072 | 7.26 | 0.0 | 0 | 0.00 | 0.00 | 0.00 | 0.00 |
| 05/06/26 1:35:27 AM | 38 | 0.0 | 1.0 | 48 | 79 | 65.9 | 51.7 | 30.072 | 7.26 | 0.0 | 0 | 0.00 | 0.00 | 0.00 | 0.00 |
| 05/06/26 1:36:19 AM | 35 | 0.0 | 1.0 | 48 | 79 | 65.8 | 51.8 | 30.072 | 7.26 | 0.0 | 0 | 0.00 | 0.00 | 0.00 | 0.00 |
| 05/06/26 1:37:32 AM | 38 | 0.0 | 1.0 | 48 | 79 | 65.9 | 51.8 | 30.075 | 7.26 | 0.0 | 0 | 0.00 | 0.00 | 0.00 | 0.00 |
| 05/06/26 1:38:23 AM | 34 | 0.0 | 1.0 | 48 | 79 | 65.9 | 51.8 | 30.073 | 7.26 | 0.0 | 0 | 0.00 | 0.00 | 0.00 | 0.00 |
| 05/06/26 1:39:36 AM | 36 | 0.0 | 1.0 | 48 | 79 | 65.9 | 51.8 | 30.071 | 7.26 | 0.0 | 0 | 0.00 | 0.00 | 0.00 | 0.00 |
| 05/06/26 1:40:28 AM | 32 | 0.0 | 1.0 | 48 | 79 | 65.9 | 51.8 | 30.071 | 7.26 | 0.0 | 0 | 0.00 | 0.00 | 0.00 | 0.00 |
| 05/06/26 1:41:35 AM | 37 | 0.0 | 1.0 | 48 | 79 | 65.9 | 51.8 | 30.071 | 7.26 | 0.0 | 0 | 0.00 | 0.00 | 0.00 | 0.00 |
| 05/06/26 1:42:27 AM | 38 | 0.0 | 1.0 | 48 | 79 | 65.9 | 51.8 | 30.070 | 7.26 | 0.0 | 0 | 0.00 | 0.00 | 0.00 | 0.00 |
| 05/06/26 1:43:18 AM | 38 | 0.0 | 1.0 | 48 | 79 | 65.8 | 51.8 | 30.069 | 7.26 | 0.0 | 0 | 0.00 | 0.00 | 0.00 | 0.00 |
| 05/06/26 1:44:28 AM | 38 | 0.0 | 1.0 | 48 | 79 | 65.9 | 51.8 | 30.071 | 7.26 | 0.0 | 0 | 0.00 | 0.00 | 0.00 | 0.00 |
| 05/06/26 1:45:23 AM | 38 | 0.0 | 1.0 | 48 | 79 | 65.9 | 51.8 | 30.073 | 7.26 | 0.0 | 0 | 0.00 | 0.00 | 0.00 | 0.00 |
| 05/06/26 1:46:30 AM | 38 | 0.0 | 1.0 | 48 | 79 | 65.9 | 51.8 | 30.069 | 7.26 | 0.0 | 0 | 0.00 | 0.00 | 0.00 | 0.00 |
| 05/06/26 1:47:22 AM | 37 | 0.0 | 1.0 | 48 | 79 | 65.9 | 51.8 | 30.071 | 7.26 | 0.0 | 0 | 0.00 | 0.00 | 0.00 | 0.00 |
| 05/06/26 1:48:31 AM | 38 | 0.0 | 1.0 | 48 | 79 | 65.9 | 51.7 | 30.074 | 7.26 | 0.0 | 0 | 0.00 | 0.00 | 0.00 | 0.00 |
| 05/06/26 1:49:26 AM | 32 | 0.0 | 1.0 | 48 | 79 | 65.9 | 51.7 | 30.071 | 7.26 | 0.0 | 0 | 0.00 | 0.00 | 0.00 | 0.00 |
| 05/06/26 1:50:15 AM | 36 | 0.0 | 1.0 | 48 | 79 | 65.9 | 51.8 | 30.081 | 7.26 | 0.0 | 0 | 0.00 | 0.00 | 0.00 | 0.00 |
| 05/06/26 1:51:25 AM | 37 | 0.0 | 1.0 | 48 | 79 | 65.9 | 51.7 | 30.071 | 7.26 | 0.0 | 0 | 0.00 | 0.00 | 0.00 | 0.00 |
| 05/06/26 1:52:17 AM | 37 | 0.0 | 1.0 | 48 | 79 | 65.9 | 51.7 | 30.069 | 7.26 | 0.0 | 0 | 0.00 | 0.00 | 0.00 | 0.00 |
| 05/06/26 1:53:29 AM | 36 | 0.0 | 1.0 | 48 | 79 | 65.9 | 51.7 | 30.071 | 7.26 | 0.0 | 0 | 0.00 | 0.00 | 0.00 | 0.00 |
| 05/06/26 1:54:18 AM | 34 | 0.0 | 1.0 | 48 | 79 | 65.9 | 51.7 | 30.069 | 7.26 | 0.0 | 0 | 0.00 | 0.00 | 0.00 | 0.00 |
| 05/06/26 1:55:31 AM | 38 | 0.0 | 1.0 | 48 | 79 | 65.9 | 51.7 | 30.069 | 7.26 | 0.0 | 0 | 0.00 | 0.00 | 0.00 | 0.00 |
| 05/06/26 1:56:23 AM | 36 | 0.0 | 1.0 | 48 | 79 | 65.9 | 51.7 | 30.070 | 7.26 | 0.0 | 0 | 0.00 | 0.00 | 0.00 | 0.00 |
| 05/06/26 1:57:33 AM | 34 | 0.0 | 1.0 | 48 | 78 | 65.9 | 51.7 | 30.068 | 7.26 | 0.0 | 0 | 0.00 | 0.00 | 0.00 | 0.00 |
| 05/06/26 1:58:21 AM | 34 | 0.0 | 1.0 | 48 | 78 | 65.9 | 51.7 | 30.066 | 7.26 | 0.0 | 0 | 0.00 | 0.00 | 0.00 | 0.00 |
| 05/06/26 1:59:34 AM | 32 | 0.0 | 1.0 | 48 | 78 | 65.8 | 51.7 | 30.068 | 7.26 | 0.0 | 0 | 0.00 | 0.00 | 0.00 | 0.00 |
| 05/06/26 2:00:50 AM | 36 | 0.0 | 1.0 | 48 | 78 | 65.9 | 51.6 | 30.065 | 7.26 | 0.0 | 0 | 0.00 | 0.00 | 0.00 | 0.00 |
| 05/06/26 2:01:21 AM | 34 | 0.0 | 1.0 | 48 | 78 | 65.9 | 51.6 | 30.065 | 7.26 | 0.0 | 0 | 0.00 | 0.00 | 0.00 | 0.00 |
| 05/06/26 2:02:28 AM | 35 | 0.0 | 1.0 | 48 | 78 | 65.8 | 51.6 | 30.065 | 7.26 | 0.0 | 0 | 0.00 | 0.00 | 0.00 | 0.00 |
| 05/06/26 2:03:19 AM | 30 | 0.0 | 1.0 | 48 | 78 | 65.9 | 51.6 | 30.065 | 7.26 | 0.0 | 0 | 0.00 | 0.00 | 0.00 | 0.00 |
| 05/06/26 2:04:32 AM | 30 | 0.0 | 1.0 | 48 | 78 | 65.9 | 51.5 | 30.066 | 7.26 | 0.0 | 0 | 0.00 | 0.00 | 0.00 | 0.00 |
| 05/06/26 2:05:27 AM | 37 | 0.0 | 1.0 | 48 | 78 | 65.9 | 51.5 | 30.066 | 7.26 | 0.0 | 0 | 0.00 | 0.00 | 0.00 | 0.00 |
| 05/06/26 2:06:19 AM | 38 | 0.0 | 1.0 | 48 | 78 | 65.9 | 51.5 | 30.065 | 7.26 | 0.0 | 0 | 0.00 | 0.00 | 0.00 | 0.00 |
| 05/06/26 2:07:29 AM | 38 | 0.0 | 1.0 | 48 | 78 | 65.9 | 51.5 | 30.066 | 7.26 | 0.0 | 0 | 0.00 | 0.00 | 0.00 | 0.00 |
| 05/06/26 2:08:21 AM | 35 | 0.0 | 1.0 | 48 | 78 | 65.9 | 51.5 | 30.068 | 7.26 | 0.0 | 0 | 0.00 | 0.00 | 0.00 | 0.00 |
| 05/06/26 2:09:21 AM | 35 | 0.0 | 1.0 | 48 | 78 | 65.9 | 51.5 | 30.069 | 7.26 | 0.0 | 0 | 0.00 | 0.00 | 0.00 | 0.00 |
| 05/06/26 2:10:34 AM | 30 | 0.0 | 1.0 | 48 | 79 | 65.9 | 51.4 | 30.069 | 7.26 | 0.0 | 0 | 0.00 | 0.00 | 0.00 | 0.00 |
| 05/06/26 2:11:26 AM | 36 | 0.0 | 1.0 | 48 | 79 | 65.9 | 51.4 | 30.066 | 7.26 | 0.0 | 0 | 0.00 | 0.00 | 0.00 | 0.00 |
| 05/06/26 2:12:18 AM | 34 | 0.0 | 1.0 | 48 | 79 | 65.9 | 51.4 | 30.069 | 7.26 | 0.0 | 0 | 0.00 | 0.00 | 0.00 | 0.00 |
| 05/06/26 2:13:28 AM | 34 | 0.0 | 1.0 | 48 | 79 | 65.9 | 51.4 | 30.065 | 7.26 | 0.0 | 0 | 0.00 | 0.00 | 0.00 | 0.00 |
| 05/06/26 2:14:20 AM | 36 | 0.0 | 1.0 | 48 | 79 | 65.9 | 51.3 | 30.067 | 7.26 | 0.0 | 0 | 0.00 | 0.00 | 0.00 | 0.00 |
| 05/06/26 2:15:32 AM | 38 | 0.0 | 1.0 | 48 | 79 | 65.9 | 51.3 | 30.065 | 7.26 | 0.0 | 0 | 0.00 | 0.00 | 0.00 | 0.00 |
| 05/06/26 2:16:24 AM | 37 | 0.0 | 1.0 | 48 | 79 | 65.9 | 51.3 | 30.065 | 7.26 | 0.0 | 0 | 0.00 | 0.00 | 0.00 | 0.00 |
| 05/06/26 2:17:16 AM | 38 | 0.0 | 1.0 | 48 | 79 | 65.9 | 51.2 | 30.066 | 7.26 | 0.0 | 0 | 0.00 | 0.00 | 0.00 | 0.00 |
| 05/06/26 2:18:29 AM | 37 | 0.0 | 1.0 | 48 | 79 | 65.9 | 51.2 | 30.066 | 7.26 | 0.0 | 0 | 0.00 | 0.00 | 0.00 | 0.00 |
| 05/06/26 2:19:18 AM | 35 | 0.0 | 1.0 | 48 | 78 | 65.9 | 51.2 | 30.067 | 7.26 | 0.0 | 0 | 0.00 | 0.00 | 0.00 | 0.00 |
| 05/06/26 2:20:30 AM | 32 | 0.0 | 1.0 | 48 | 78 | 65.9 | 51.2 | 30.067 | 7.26 | 0.0 | 0 | 0.00 | 0.00 | 0.00 | 0.00 |
| 05/06/26 2:21:22 AM | 36 | 0.0 | 1.0 | 48 | 79 | 65.9 | 51.1 | 30.067 | 7.26 | 0.0 | 0 | 0.00 | 0.00 | 0.00 | 0.00 |
| 05/06/26 2:22:35 AM | 36 | 0.0 | 1.0 | 48 | 79 | 65.9 | 51.1 | 30.066 | 7.26 | 0.0 | 0 | 0.00 | 0.00 | 0.00 | 0.00 |
| 05/06/26 2:23:24 AM | 37 | 0.0 | 1.0 | 48 | 78 | 65.9 | 51.0 | 30.067 | 7.26 | 0.0 | 0 | 0.00 | 0.00 | 0.00 | 0.00 |
| 05/06/26 2:24:34 AM | 37 | 0.0 | 1.0 | 48 | 78 | 65.9 | 51.0 | 30.069 | 7.26 | 0.0 | 0 | 0.00 | 0.00 | 0.00 | 0.00 |
| 05/06/26 2:25:26 AM | 38 | 0.0 | 1.0 | 48 | 78 | 65.9 | 50.9 | 30.066 | 7.26 | 0.0 | 0 | 0.00 | 0.00 | 0.00 | 0.00 |
| 05/06/26 2:26:17 AM | 38 | 0.0 | 1.0 | 48 | 78 | 65.9 | 50.9 | 30.065 | 7.26 | 0.0 | 0 | 0.00 | 0.00 | 0.00 | 0.00 |
| 05/06/26 2:27:30 AM | 38 | 0.0 | 1.0 | 48 | 79 | 65.9 | 50.9 | 30.068 | 7.26 | 0.0 | 0 | 0.00 | 0.00 | 0.00 | 0.00 |
| 05/06/26 2:28:19 AM | 38 | 0.0 | 1.0 | 48 | 79 | 65.9 | 50.9 | 30.068 | 7.26 | 0.0 | 0 | 0.00 | 0.00 | 0.00 | 0.00 |
| 05/06/26 2:29:29 AM | 34 | 0.0 | 1.0 | 48 | 79 | 65.9 | 50.8 | 30.066 | 7.26 | 0.0 | 0 | 0.00 | 0.00 | 0.00 | 0.00 |
| 05/06/26 2:30:21 AM | 35 | 0.0 | 1.0 | 48 | 79 | 65.9 | 50.8 | 30.065 | 7.26 | 0.0 | 0 | 0.00 | 0.00 | 0.00 | 0.00 |
| 05/06/26 2:31:34 AM | 38 | 0.0 | 1.0 | 48 | 79 | 65.9 | 50.7 | 30.066 | 7.26 | 0.0 | 0 | 0.00 | 0.00 | 0.00 | 0.00 |
| 05/06/26 2:32:25 AM | 32 | 0.0 | 1.0 | 48 | 79 | 65.9 | 50.7 | 30.070 | 7.26 | 0.0 | 0 | 0.00 | 0.00 | 0.00 | 0.00 |
| 05/06/26 2:33:17 AM | 35 | 0.0 | 1.0 | 48 | 79 | 65.9 | 50.7 | 30.068 | 7.26 | 0.0 | 0 | 0.00 | 0.00 | 0.00 | 0.00 |
| 05/06/26 2:34:27 AM | 30 | 0.0 | 1.0 | 48 | 79 | 65.9 | 50.6 | 30.069 | 7.26 | 0.0 | 0 | 0.00 | 0.00 | 0.00 | 0.00 |
| 05/06/26 2:35:37 AM | 29 | 0.0 | 1.0 | 48 | 79 | 65.8 | 50.6 | 30.068 | 7.26 | 0.0 | 0 | 0.00 | 0.00 | 0.00 | 0.00 |
| 05/06/26 2:36:25 AM | 38 | 0.0 | 1.0 | 48 | 79 | 65.9 | 50.6 | 30.068 | 7.26 | 0.0 | 0 | 0.00 | 0.00 | 0.00 | 0.00 |
| 05/06/26 2:37:17 AM | 36 | 0.0 | 1.0 | 48 | 79 | 65.9 | 50.5 | 30.067 | 7.26 | 0.0 | 0 | 0.00 | 0.00 | 0.00 | 0.00 |
| 05/06/26 2:38:30 AM | 34 | 0.0 | 1.0 | 48 | 79 | 65.8 | 50.5 | 30.070 | 7.26 | 0.0 | 0 | 0.00 | 0.00 | 0.00 | 0.00 |
| 05/06/26 2:39:22 AM | 37 | 0.0 | 1.0 | 48 | 79 | 65.9 | 50.5 | 30.067 | 7.26 | 0.0 | 0 | 0.00 | 0.00 | 0.00 | 0.00 |
| 05/06/26 2:40:29 AM | 36 | 0.0 | 1.0 | 48 | 79 | 65.8 | 50.4 | 30.067 | 7.26 | 0.0 | 0 | 0.00 | 0.00 | 0.00 | 0.00 |
| 05/06/26 2:41:24 AM | 38 | 0.0 | 1.0 | 48 | 79 | 65.8 | 50.4 | 30.069 | 7.26 | 0.0 | 0 | 0.00 | 0.00 | 0.00 | 0.00 |
| 05/06/26 2:42:36 AM | 32 | 0.0 | 1.0 | 48 | 79 | 65.9 | 50.3 | 30.065 | 7.26 | 0.0 | 0 | 0.00 | 0.00 | 0.00 | 0.00 |
| 05/06/26 2:43:28 AM | 37 | 0.0 | 1.0 | 48 | 79 | 65.8 | 50.3 | 30.069 | 7.26 | 0.0 | 0 | 0.00 | 0.00 | 0.00 | 0.00 |
| 05/06/26 2:44:20 AM | 36 | 0.0 | 1.0 | 48 | 79 | 65.8 | 50.3 | 30.068 | 7.26 | 0.0 | 0 | 0.00 | 0.00 | 0.00 | 0.00 |
| 05/06/26 2:45:27 AM | 38 | 0.0 | 1.0 | 48 | 79 | 65.8 | 50.2 | 30.068 | 7.26 | 0.0 | 0 | 0.00 | 0.00 | 0.00 | 0.00 |
| 05/06/26 2:46:19 AM | 36 | 0.0 | 1.0 | 48 | 79 | 65.8 | 50.2 | 30.067 | 7.26 | 0.0 | 0 | 0.00 | 0.00 | 0.00 | 0.00 |
| 05/06/26 2:47:29 AM | 38 | 0.0 | 1.0 | 48 | 79 | 65.8 | 50.1 | 30.067 | 7.26 | 0.0 | 0 | 0.00 | 0.00 | 0.00 | 0.00 |
| 05/06/26 2:48:20 AM | 38 | 0.0 | 1.0 | 48 | 79 | 65.8 | 50.1 | 30.067 | 7.26 | 0.0 | 0 | 0.00 | 0.00 | 0.00 | 0.00 |
| 05/06/26 2:49:30 AM | 34 | 0.0 | 1.0 | 48 | 79 | 65.7 | 50.1 | 30.067 | 7.26 | 0.0 | 0 | 0.00 | 0.00 | 0.00 | 0.00 |
| 05/06/26 2:50:25 AM | 34 | 0.0 | 1.0 | 48 | 79 | 65.8 | 50.0 | 30.066 | 7.26 | 0.0 | 0 | 0.00 | 0.00 | 0.00 | 0.00 |
| 05/06/26 2:51:32 AM | 34 | 0.0 | 1.0 | 48 | 79 | 65.7 | 50.0 | 30.067 | 7.26 | 0.0 | 0 | 0.00 | 0.00 | 0.00 | 0.00 |
| 05/06/26 2:52:27 AM | 35 | 0.0 | 1.0 | 48 | 79 | 65.7 | 49.9 | 30.065 | 7.26 | 0.0 | 0 | 0.00 | 0.00 | 0.00 | 0.00 |
| 05/06/26 2:53:16 AM | 37 | 0.0 | 1.0 | 48 | 79 | 65.7 | 49.9 | 30.066 | 7.26 | 0.0 | 0 | 0.00 | 0.00 | 0.00 | 0.00 |
| 05/06/26 2:54:28 AM | 36 | 0.0 | 1.0 | 48 | 79 | 65.7 | 49.9 | 30.066 | 7.26 | 0.0 | 0 | 0.00 | 0.00 | 0.00 | 0.00 |
| 05/06/26 2:55:20 AM | 38 | 0.0 | 1.0 | 48 | 79 | 65.7 | 49.9 | 30.064 | 7.26 | 0.0 | 0 | 0.00 | 0.00 | 0.00 | 0.00 |
| 05/06/26 2:56:27 AM | 37 | 0.0 | 1.0 | 48 | 79 | 65.7 | 49.8 | 30.066 | 7.26 | 0.0 | 0 | 0.00 | 0.00 | 0.00 | 0.00 |
| 05/06/26 2:57:19 AM | 36 | 0.0 | 1.0 | 48 | 79 | 65.7 | 49.8 | 30.066 | 7.26 | 0.0 | 0 | 0.00 | 0.00 | 0.00 | 0.00 |
| 05/06/26 2:58:32 AM | 35 | 0.0 | 1.0 | 48 | 79 | 65.7 | 49.8 | 30.065 | 7.26 | 0.0 | 0 | 0.00 | 0.00 | 0.00 | 0.00 |
| 05/06/26 2:59:24 AM | 38 | 0.0 | 1.0 | 48 | 79 | 65.7 | 49.7 | 30.066 | 7.26 | 0.0 | 0 | 0.00 | 0.00 | 0.00 | 0.00 |
| 05/06/26 3:00:37 AM | 38 | 0.0 | 1.0 | 48 | 79 | 65.7 | 49.7 | 30.065 | 7.26 | 0.0 | 0 | 0.00 | 0.00 | 0.00 | 0.00 |
| 05/06/26 3:01:25 AM | 35 | 0.0 | 1.0 | 48 | 79 | 65.7 | 49.6 | 30.066 | 7.26 | 0.0 | 0 | 0.00 | 0.00 | 0.00 | 0.00 |
| 05/06/26 3:02:35 AM | 36 | 0.0 | 1.0 | 48 | 79 | 65.7 | 49.6 | 30.066 | 7.26 | 0.0 | 0 | 0.00 | 0.00 | 0.00 | 0.00 |
| 05/06/26 3:03:27 AM | 31 | 0.0 | 1.0 | 48 | 79 | 65.7 | 49.6 | 30.063 | 7.26 | 0.0 | 0 | 0.00 | 0.00 | 0.00 | 0.00 |
| 05/06/26 3:04:19 AM | 30 | 0.0 | 1.0 | 48 | 79 | 65.7 | 49.5 | 30.064 | 7.26 | 0.0 | 0 | 0.00 | 0.00 | 0.00 | 0.00 |
| 05/06/26 3:05:32 AM | 28 | 0.0 | 1.0 | 48 | 79 | 65.7 | 49.5 | 30.063 | 7.26 | 0.0 | 0 | 0.00 | 0.00 | 0.00 | 0.00 |
| 05/06/26 3:06:24 AM | 34 | 0.0 | 1.0 | 48 | 79 | 65.7 | 49.5 | 30.063 | 7.26 | 0.0 | 0 | 0.00 | 0.00 | 0.00 | 0.00 |
| 05/06/26 3:07:30 AM | 37 | 0.0 | 1.0 | 48 | 79 | 65.7 | 49.4 | 30.063 | 7.26 | 0.0 | 0 | 0.00 | 0.00 | 0.00 | 0.00 |
| 05/06/26 3:08:22 AM | 37 | 0.0 | 1.0 | 48 | 79 | 65.7 | 49.4 | 30.064 | 7.26 | 0.0 | 0 | 0.00 | 0.00 | 0.00 | 0.00 |
| 05/06/26 3:09:35 AM | 37 | 0.0 | 1.0 | 48 | 79 | 65.8 | 49.4 | 30.065 | 7.26 | 0.0 | 0 | 0.00 | 0.00 | 0.00 | 0.00 |
| 05/06/26 3:10:27 AM | 36 | 0.0 | 1.0 | 48 | 79 | 65.7 | 49.4 | 30.064 | 7.26 | 0.0 | 0 | 0.00 | 0.00 | 0.00 | 0.00 |
| 05/06/26 3:11:19 AM | 38 | 0.0 | 1.0 | 48 | 79 | 65.7 | 49.4 | 30.065 | 7.26 | 0.0 | 0 | 0.00 | 0.00 | 0.00 | 0.00 |
| 05/06/26 3:12:29 AM | 38 | 0.0 | 1.0 | 48 | 79 | 65.8 | 49.3 | 30.067 | 7.26 | 0.0 | 0 | 0.00 | 0.00 | 0.00 | 0.00 |
| 05/06/26 3:13:21 AM | 34 | 0.0 | 1.0 | 48 | 79 | 65.7 | 49.3 | 30.066 | 7.26 | 0.0 | 0 | 0.00 | 0.00 | 0.00 | 0.00 |
| 05/06/26 3:14:30 AM | 37 | 0.0 | 1.0 | 48 | 79 | 65.8 | 49.3 | 30.065 | 7.26 | 0.0 | 0 | 0.00 | 0.00 | 0.00 | 0.00 |
| 05/06/26 3:15:25 AM | 38 | 0.0 | 1.0 | 48 | 79 | 65.7 | 49.2 | 30.065 | 7.26 | 0.0 | 0 | 0.00 | 0.00 | 0.00 | 0.00 |
| 05/06/26 3:16:35 AM | 38 | 0.0 | 1.0 | 48 | 79 | 65.7 | 49.2 | 30.063 | 7.26 | 0.0 | 0 | 0.00 | 0.00 | 0.00 | 0.00 |
| 05/06/26 3:17:24 AM | 37 | 0.0 | 1.0 | 48 | 79 | 65.7 | 49.2 | 30.065 | 7.26 | 0.0 | 0 | 0.00 | 0.00 | 0.00 | 0.00 |
| 05/06/26 3:18:37 AM | 37 | 0.0 | 1.0 | 48 | 79 | 65.7 | 49.1 | 30.064 | 7.26 | 0.0 | 0 | 0.00 | 0.00 | 0.00 | 0.00 |
| 05/06/26 3:19:29 AM | 37 | 0.0 | 1.0 | 48 | 79 | 65.7 | 49.1 | 30.065 | 7.26 | 0.0 | 0 | 0.00 | 0.00 | 0.00 | 0.00 |
| 05/06/26 3:20:20 AM | 37 | 0.0 | 1.0 | 48 | 79 | 65.7 | 49.1 | 30.067 | 7.26 | 0.0 | 0 | 0.00 | 0.00 | 0.00 | 0.00 |
| 05/06/26 3:21:30 AM | 34 | 0.0 | 1.0 | 48 | 79 | 65.7 | 49.0 | 30.066 | 7.26 | 0.0 | 0 | 0.00 | 0.00 | 0.00 | 0.00 |
| 05/06/26 3:22:22 AM | 36 | 0.0 | 1.0 | 48 | 79 | 65.7 | 49.0 | 30.064 | 7.26 | 0.0 | 0 | 0.00 | 0.00 | 0.00 | 0.00 |
| 05/06/26 3:23:29 AM | 35 | 0.0 | 1.0 | 48 | 79 | 65.7 | 49.0 | 30.064 | 7.26 | 0.0 | 0 | 0.00 | 0.00 | 0.00 | 0.00 |
| 05/06/26 3:24:24 AM | 32 | 0.0 | 1.0 | 48 | 79 | 65.7 | 49.0 | 30.063 | 7.26 | 0.0 | 0 | 0.00 | 0.00 | 0.00 | 0.00 |
| 05/06/26 3:25:34 AM | 37 | 0.0 | 1.0 | 48 | 79 | 65.7 | 49.0 | 30.063 | 7.26 | 0.0 | 0 | 0.00 | 0.00 | 0.00 | 0.00 |
| 05/06/26 3:26:26 AM | 34 | 0.0 | 1.0 | 48 | 79 | 65.7 | 48.9 | 30.066 | 7.26 | 0.0 | 0 | 0.00 | 0.00 | 0.00 | 0.00 |
| 05/06/26 3:27:17 AM | 38 | 0.0 | 1.0 | 48 | 79 | 65.7 | 48.9 | 30.065 | 7.26 | 0.0 | 0 | 0.00 | 0.00 | 0.00 | 0.00 |
| 05/06/26 3:28:27 AM | 36 | 0.0 | 1.0 | 48 | 79 | 65.7 | 48.8 | 30.065 | 7.26 | 0.0 | 0 | 0.00 | 0.00 | 0.00 | 0.00 |
| 05/06/26 3:29:19 AM | 38 | 0.0 | 1.0 | 48 | 79 | 65.7 | 48.8 | 30.066 | 7.26 | 0.0 | 0 | 0.00 | 0.00 | 0.00 | 0.00 |
| 05/06/26 3:30:32 AM | 38 | 0.0 | 1.0 | 48 | 79 | 65.7 | 48.8 | 30.066 | 7.26 | 0.0 | 0 | 0.00 | 0.00 | 0.00 | 0.00 |
| 05/06/26 3:31:21 AM | 38 | 0.0 | 1.0 | 48 | 79 | 65.7 | 48.8 | 30.067 | 7.26 | 0.0 | 0 | 0.00 | 0.00 | 0.00 | 0.00 |
| 05/06/26 3:32:31 AM | 37 | 0.0 | 1.0 | 48 | 79 | 65.7 | 48.7 | 30.064 | 7.26 | 0.0 | 0 | 0.00 | 0.00 | 0.00 | 0.00 |
| 05/06/26 3:33:20 AM | 38 | 0.0 | 1.0 | 48 | 79 | 65.7 | 48.7 | 30.064 | 7.26 | 0.0 | 0 | 0.00 | 0.00 | 0.00 | 0.00 |
| 05/06/26 3:34:33 AM | 36 | 0.0 | 1.0 | 48 | 79 | 65.7 | 48.7 | 30.066 | 7.26 | 0.0 | 0 | 0.00 | 0.00 | 0.00 | 0.00 |
| 05/06/26 3:35:24 AM | 30 | 0.0 | 1.0 | 48 | 79 | 65.7 | 48.7 | 30.065 | 7.26 | 0.0 | 0 | 0.00 | 0.00 | 0.00 | 0.00 |
| 05/06/26 3:36:34 AM | 37 | 0.0 | 1.0 | 48 | 79 | 65.7 | 48.6 | 30.065 | 7.26 | 0.0 | 0 | 0.00 | 0.00 | 0.00 | 0.00 |
| 05/06/26 3:37:26 AM | 34 | 0.0 | 1.0 | 48 | 80 | 65.6 | 48.6 | 30.065 | 7.26 | 0.0 | 0 | 0.00 | 0.00 | 0.00 | 0.00 |
| 05/06/26 3:38:18 AM | 37 | 0.0 | 1.0 | 48 | 80 | 65.6 | 48.6 | 30.063 | 7.26 | 0.0 | 0 | 0.00 | 0.00 | 0.00 | 0.00 |
| 05/06/26 3:39:25 AM | 34 | 0.0 | 1.0 | 48 | 80 | 65.6 | 48.5 | 30.067 | 7.26 | 0.0 | 0 | 0.00 | 0.00 | 0.00 | 0.00 |
| 05/06/26 3:40:17 AM | 37 | 0.0 | 1.0 | 48 | 80 | 65.6 | 48.5 | 30.065 | 7.26 | 0.0 | 0 | 0.00 | 0.00 | 0.00 | 0.00 |
| 05/06/26 3:41:27 AM | 38 | 0.0 | 1.0 | 48 | 80 | 65.6 | 48.5 | 30.066 | 7.26 | 0.0 | 0 | 0.00 | 0.00 | 0.00 | 0.00 |
| 05/06/26 3:42:22 AM | 36 | 0.0 | 1.0 | 48 | 80 | 65.6 | 48.5 | 30.064 | 7.26 | 0.0 | 0 | 0.00 | 0.00 | 0.00 | 0.00 |
| 05/06/26 3:43:31 AM | 32 | 0.0 | 1.0 | 48 | 80 | 65.6 | 48.4 | 30.065 | 7.26 | 0.0 | 0 | 0.00 | 0.00 | 0.00 | 0.00 |
| 05/06/26 3:44:20 AM | 34 | 0.0 | 1.0 | 48 | 80 | 65.6 | 48.4 | 30.068 | 7.26 | 0.0 | 0 | 0.00 | 0.00 | 0.00 | 0.00 |
| 05/06/26 3:45:54 AM | 38 | 0.0 | 1.0 | 48 | 80 | 65.6 | 48.4 | 30.064 | 7.26 | 0.0 | 0 | 0.00 | 0.00 | 0.00 | 0.00 |
| 05/06/26 3:46:28 AM | 38 | 0.0 | 1.0 | 48 | 80 | 65.6 | 48.3 | 30.064 | 7.26 | 0.0 | 0 | 0.00 | 0.00 | 0.00 | 0.00 |
| 05/06/26 3:47:20 AM | 37 | 0.0 | 1.0 | 48 | 80 | 65.6 | 48.3 | 30.068 | 7.26 | 0.0 | 0 | 0.00 | 0.00 | 0.00 | 0.00 |
| 05/06/26 3:48:30 AM | 36 | 0.0 | 1.0 | 48 | 79 | 65.6 | 48.3 | 30.068 | 7.26 | 0.0 | 0 | 0.00 | 0.00 | 0.00 | 0.00 |
| 05/06/26 3:49:22 AM | 37 | 0.0 | 1.0 | 48 | 79 | 65.6 | 48.3 | 30.070 | 7.26 | 0.0 | 0 | 0.00 | 0.00 | 0.00 | 0.00 |
| 05/06/26 3:50:32 AM | 34 | 0.0 | 1.0 | 48 | 79 | 65.6 | 48.2 | 30.068 | 7.26 | 0.0 | 0 | 0.00 | 0.00 | 0.00 | 0.00 |
| 05/06/26 3:51:23 AM | 32 | 0.0 | 1.0 | 48 | 79 | 65.6 | 48.2 | 30.069 | 7.26 | 0.0 | 0 | 0.00 | 0.00 | 0.00 | 0.00 |
| 05/06/26 3:52:33 AM | 36 | 0.0 | 1.0 | 48 | 79 | 65.6 | 48.1 | 30.068 | 7.26 | 0.0 | 0 | 0.00 | 0.00 | 0.00 | 0.00 |
| 05/06/26 3:53:25 AM | 38 | 0.0 | 1.0 | 48 | 79 | 65.6 | 48.1 | 30.069 | 7.26 | 0.0 | 0 | 0.00 | 0.00 | 0.00 | 0.00 |
| 05/06/26 3:54:17 AM | 32 | 0.0 | 1.0 | 48 | 79 | 65.6 | 48.1 | 30.070 | 7.26 | 0.0 | 0 | 0.00 | 0.00 | 0.00 | 0.00 |
| 05/06/26 3:55:27 AM | 37 | 0.0 | 1.0 | 48 | 80 | 65.6 | 48.0 | 30.067 | 7.26 | 0.0 | 0 | 0.00 | 0.00 | 0.00 | 0.00 |
| 05/06/26 3:56:16 AM | 38 | 0.0 | 1.0 | 48 | 80 | 65.6 | 48.0 | 30.068 | 7.26 | 0.0 | 0 | 0.00 | 0.00 | 0.00 | 0.00 |
| 05/06/26 3:57:29 AM | 38 | 0.0 | 1.0 | 48 | 80 | 65.6 | 47.9 | 30.069 | 7.26 | 0.0 | 0 | 0.00 | 0.00 | 0.00 | 0.00 |
| 05/06/26 3:58:21 AM | 38 | 0.0 | 1.0 | 48 | 80 | 65.5 | 47.9 | 30.069 | 7.26 | 0.0 | 0 | 0.00 | 0.00 | 0.00 | 0.00 |
| 05/06/26 3:59:34 AM | 38 | 0.0 | 1.0 | 48 | 80 | 65.5 | 47.8 | 30.068 | 7.26 | 0.0 | 0 | 0.00 | 0.00 | 0.00 | 0.00 |
| 05/06/26 4:00:23 AM | 38 | 0.0 | 1.0 | 48 | 80 | 65.5 | 47.8 | 30.066 | 7.26 | 0.0 | 0 | 0.00 | 0.00 | 0.00 | 0.00 |
| 05/06/26 4:01:33 AM | 38 | 0.0 | 1.0 | 48 | 80 | 65.5 | 47.8 | 30.067 | 7.26 | 0.0 | 0 | 0.00 | 0.00 | 0.00 | 0.00 |
| 05/06/26 4:02:24 AM | 38 | 0.0 | 1.0 | 48 | 80 | 65.5 | 47.8 | 30.070 | 7.26 | 0.0 | 0 | 0.00 | 0.00 | 0.00 | 0.00 |
| 05/06/26 4:03:16 AM | 34 | 0.0 | 1.0 | 48 | 80 | 65.5 | 47.7 | 30.070 | 7.26 | 0.0 | 0 | 0.00 | 0.00 | 0.00 | 0.00 |
| 05/06/26 4:04:29 AM | 38 | 0.0 | 1.0 | 48 | 80 | 65.4 | 47.7 | 30.068 | 7.26 | 0.0 | 0 | 0.00 | 0.00 | 0.00 | 0.00 |
| 05/06/26 4:05:21 AM | 36 | 0.0 | 1.0 | 48 | 80 | 65.4 | 47.7 | 30.069 | 7.26 | 0.0 | 0 | 0.00 | 0.00 | 0.00 | 0.00 |
| 05/06/26 4:06:31 AM | 29 | 0.0 | 1.0 | 48 | 80 | 65.4 | 47.7 | 30.067 | 7.26 | 0.0 | 0 | 0.00 | 0.00 | 0.00 | 0.00 |
| 05/06/26 4:07:23 AM | 32 | 0.0 | 1.0 | 48 | 80 | 65.4 | 47.7 | 30.067 | 7.26 | 0.0 | 0 | 0.00 | 0.00 | 0.00 | 0.00 |
| 05/06/26 4:08:45 AM | 38 | 0.0 | 1.0 | 48 | 80 | 65.3 | 47.6 | 30.066 | 7.26 | 0.0 | 0 | 0.00 | 0.00 | 0.00 | 0.00 |
| 05/06/26 4:09:19 AM | 36 | 0.0 | 1.0 | 48 | 80 | 65.3 | 47.7 | 30.069 | 7.26 | 0.0 | 0 | 0.00 | 0.00 | 0.00 | 0.00 |
| 05/06/26 4:10:29 AM | 38 | 0.0 | 1.0 | 48 | 81 | 65.3 | 47.6 | 30.067 | 7.26 | 0.0 | 0 | 0.00 | 0.00 | 0.00 | 0.00 |
| 05/06/26 4:11:17 AM | 35 | 0.0 | 1.0 | 48 | 80 | 65.3 | 47.6 | 30.068 | 7.26 | 0.0 | 0 | 0.00 | 0.00 | 0.00 | 0.00 |
| 05/06/26 4:12:27 AM | 38 | 0.0 | 1.0 | 48 | 81 | 65.3 | 47.6 | 30.067 | 7.26 | 0.0 | 0 | 0.00 | 0.00 | 0.00 | 0.00 |
| 05/06/26 4:13:22 AM | 37 | 0.0 | 1.0 | 48 | 81 | 65.3 | 47.6 | 30.068 | 7.26 | 0.0 | 0 | 0.00 | 0.00 | 0.00 | 0.00 |
| 05/06/26 4:14:35 AM | 37 | 0.0 | 1.0 | 48 | 81 | 65.4 | 47.6 | 30.068 | 7.26 | 0.0 | 0 | 0.00 | 0.00 | 0.00 | 0.00 |
| 05/06/26 4:15:27 AM | 38 | 0.0 | 1.0 | 48 | 81 | 65.4 | 47.6 | 30.068 | 7.26 | 0.0 | 0 | 0.00 | 0.00 | 0.00 | 0.00 |
| 05/06/26 4:16:19 AM | 36 | 0.0 | 1.0 | 48 | 81 | 65.4 | 47.6 | 30.068 | 7.26 | 0.0 | 0 | 0.00 | 0.00 | 0.00 | 0.00 |
| 05/06/26 4:17:26 AM | 36 | 0.0 | 1.0 | 48 | 81 | 65.4 | 47.5 | 30.068 | 7.26 | 0.0 | 0 | 0.00 | 0.00 | 0.00 | 0.00 |
| 05/06/26 4:18:18 AM | 38 | 0.0 | 1.0 | 48 | 81 | 65.4 | 47.6 | 30.068 | 7.26 | 0.0 | 0 | 0.00 | 0.00 | 0.00 | 0.00 |
| 05/06/26 4:19:30 AM | 37 | 0.0 | 1.0 | 48 | 81 | 65.4 | 47.5 | 30.068 | 7.26 | 0.0 | 0 | 0.00 | 0.00 | 0.00 | 0.00 |
| 05/06/26 4:20:22 AM | 34 | 0.0 | 1.0 | 48 | 81 | 65.4 | 47.5 | 30.069 | 7.26 | 0.0 | 0 | 0.00 | 0.00 | 0.00 | 0.00 |
| 05/06/26 4:21:35 AM | 32 | 0.0 | 1.0 | 48 | 81 | 65.4 | 47.5 | 30.066 | 7.26 | 0.0 | 0 | 0.00 | 0.00 | 0.00 | 0.00 |
| 05/06/26 4:22:24 AM | 34 | 0.0 | 1.0 | 48 | 81 | 65.4 | 47.5 | 30.070 | 7.26 | 0.0 | 0 | 0.00 | 0.00 | 0.00 | 0.00 |
| 05/06/26 4:23:34 AM | 38 | 0.0 | 1.0 | 48 | 81 | 65.4 | 47.5 | 30.066 | 7.26 | 0.0 | 0 | 0.00 | 0.00 | 0.00 | 0.00 |
| 05/06/26 4:24:23 AM | 31 | 0.0 | 1.0 | 48 | 81 | 65.4 | 47.5 | 30.069 | 7.26 | 0.0 | 0 | 0.00 | 0.00 | 0.00 | 0.00 |
| 05/06/26 4:25:18 AM | 34 | 0.0 | 1.0 | 48 | 81 | 65.5 | 47.5 | 30.069 | 7.26 | 0.0 | 0 | 0.00 | 0.00 | 0.00 | 0.00 |
| 05/06/26 4:26:28 AM | 38 | 0.0 | 1.0 | 48 | 81 | 65.5 | 47.5 | 30.068 | 7.26 | 0.0 | 0 | 0.00 | 0.00 | 0.00 | 0.00 |
| 05/06/26 4:27:35 AM | 37 | 0.0 | 1.0 | 48 | 81 | 65.5 | 47.5 | 30.070 | 7.26 | 0.0 | 0 | 0.00 | 0.00 | 0.00 | 0.00 |
| 05/06/26 4:28:26 AM | 34 | 0.0 | 1.0 | 48 | 81 | 65.4 | 47.5 | 30.070 | 7.26 | 0.0 | 0 | 0.00 | 0.00 | 0.00 | 0.00 |
| 05/06/26 4:29:21 AM | 36 | 0.0 | 1.0 | 48 | 81 | 65.5 | 47.5 | 30.069 | 7.26 | 0.0 | 0 | 0.00 | 0.00 | 0.00 | 0.00 |
| 05/06/26 4:30:34 AM | 37 | 0.0 | 1.0 | 48 | 81 | 65.5 | 47.5 | 30.070 | 7.26 | 0.0 | 0 | 0.00 | 0.00 | 0.00 | 0.00 |
| 05/06/26 4:31:23 AM | 34 | 0.0 | 1.0 | 48 | 81 | 65.5 | 47.5 | 30.070 | 7.26 | 0.0 | 0 | 0.00 | 0.00 | 0.00 | 0.00 |
| 05/06/26 4:32:18 AM | 38 | 0.0 | 1.0 | 48 | 81 | 65.5 | 47.5 | 30.069 | 7.26 | 0.0 | 0 | 0.00 | 0.00 | 0.00 | 0.00 |
| 05/06/26 4:33:22 AM | 35 | 0.0 | 1.0 | 48 | 81 | 65.5 | 47.5 | 30.071 | 7.26 | 0.0 | 0 | 0.00 | 0.00 | 0.00 | 0.00 |
| 05/06/26 4:34:35 AM | 34 | 0.0 | 1.0 | 48 | 81 | 65.5 | 47.5 | 30.068 | 7.26 | 0.0 | 0 | 0.00 | 0.00 | 0.00 | 0.00 |
| 05/06/26 4:35:27 AM | 38 | 0.0 | 1.0 | 48 | 81 | 65.5 | 47.5 | 30.070 | 7.26 | 0.0 | 0 | 0.00 | 0.00 | 0.00 | 0.00 |
| 05/06/26 4:36:22 AM | 37 | 0.0 | 1.0 | 48 | 81 | 65.5 | 47.5 | 30.072 | 7.26 | 0.0 | 0 | 0.00 | 0.00 | 0.00 | 0.00 |
| 05/06/26 4:37:31 AM | 37 | 0.0 | 1.0 | 48 | 81 | 65.4 | 47.5 | 30.069 | 7.26 | 0.0 | 0 | 0.00 | 0.00 | 0.00 | 0.00 |
| 05/06/26 4:38:17 AM | 32 | 0.0 | 1.0 | 48 | 81 | 65.6 | 47.5 | 30.070 | 7.26 | 0.0 | 0 | 0.00 | 0.00 | 0.00 | 0.00 |
| 05/06/26 4:39:33 AM | 37 | 0.0 | 1.0 | 48 | 81 | 65.5 | 47.5 | 30.071 | 7.26 | 0.0 | 0 | 0.00 | 0.00 | 0.00 | 0.00 |
| 05/06/26 4:40:22 AM | 34 | 0.0 | 1.0 | 48 | 81 | 65.5 | 47.5 | 30.072 | 7.26 | 0.0 | 0 | 0.00 | 0.00 | 0.00 | 0.00 |
| 05/06/26 4:41:35 AM | 37 | 0.0 | 1.0 | 48 | 81 | 65.5 | 47.5 | 30.071 | 7.26 | 0.0 | 0 | 0.00 | 0.00 | 0.00 | 0.00 |
| 05/06/26 4:42:27 AM | 35 | 0.0 | 1.0 | 48 | 81 | 65.5 | 47.4 | 30.071 | 7.26 | 0.0 | 0 | 0.00 | 0.00 | 0.00 | 0.00 |
| 05/06/26 4:43:34 AM | 38 | 0.0 | 1.0 | 48 | 81 | 65.5 | 47.4 | 30.069 | 7.26 | 0.0 | 0 | 0.00 | 0.00 | 0.00 | 0.00 |
| 05/06/26 4:44:26 AM | 37 | 0.0 | 1.0 | 48 | 81 | 65.5 | 47.4 | 30.072 | 7.26 | 0.0 | 0 | 0.00 | 0.00 | 0.00 | 0.00 |
| 05/06/26 4:45:21 AM | 34 | 0.0 | 1.0 | 48 | 81 | 65.5 | 47.4 | 30.070 | 7.26 | 0.0 | 0 | 0.00 | 0.00 | 0.00 | 0.00 |
| 05/06/26 4:46:30 AM | 38 | 0.0 | 1.0 | 48 | 81 | 65.5 | 47.4 | 30.072 | 7.26 | 0.0 | 0 | 0.00 | 0.00 | 0.00 | 0.00 |
| 05/06/26 4:47:22 AM | 36 | 0.0 | 1.0 | 48 | 81 | 65.5 | 47.4 | 30.070 | 7.26 | 0.0 | 0 | 0.00 | 0.00 | 0.00 | 0.00 |
| 05/06/26 4:48:29 AM | 36 | 0.0 | 1.0 | 48 | 81 | 65.5 | 47.4 | 30.072 | 7.26 | 0.0 | 0 | 0.00 | 0.00 | 0.00 | 0.00 |
| 05/06/26 4:49:21 AM | 38 | 0.0 | 1.0 | 48 | 81 | 65.5 | 47.4 | 30.071 | 7.26 | 0.0 | 0 | 0.00 | 0.00 | 0.00 | 0.00 |
| 05/06/26 4:50:34 AM | 38 | 0.0 | 1.0 | 48 | 81 | 65.5 | 47.4 | 30.070 | 7.26 | 0.0 | 0 | 0.00 | 0.00 | 0.00 | 0.00 |
| 05/06/26 4:51:26 AM | 37 | 0.0 | 1.0 | 48 | 81 | 65.5 | 47.3 | 30.069 | 7.26 | 0.0 | 0 | 0.00 | 0.00 | 0.00 | 0.00 |
| 05/06/26 4:52:18 AM | 40 | 0.0 | 1.0 | 48 | 81 | 65.5 | 47.3 | 30.071 | 7.26 | 0.0 | 0 | 0.00 | 0.00 | 0.00 | 0.00 |
| 05/06/26 4:53:31 AM | 32 | 0.0 | 1.0 | 48 | 81 | 65.5 | 47.3 | 30.070 | 7.26 | 0.0 | 0 | 0.00 | 0.00 | 0.00 | 0.00 |
| 05/06/26 4:54:17 AM | 29 | 0.0 | 1.0 | 48 | 81 | 65.4 | 47.3 | 30.072 | 7.26 | 0.0 | 0 | 0.00 | 0.00 | 0.00 | 0.00 |
| 05/06/26 4:55:27 AM | 36 | 0.0 | 1.0 | 48 | 81 | 65.5 | 47.3 | 30.072 | 7.26 | 0.0 | 0 | 0.00 | 0.00 | 0.00 | 0.00 |
| 05/06/26 4:56:21 AM | 34 | 0.0 | 1.0 | 48 | 81 | 65.5 | 47.2 | 30.071 | 7.26 | 0.0 | 0 | 0.00 | 0.00 | 0.00 | 0.00 |
| 05/06/26 4:57:32 AM | 37 | 0.0 | 1.0 | 48 | 82 | 65.5 | 47.2 | 30.070 | 7.26 | 0.0 | 0 | 0.00 | 0.00 | 0.00 | 0.00 |
| 05/06/26 4:58:23 AM | 34 | 0.0 | 1.0 | 48 | 82 | 65.5 | 47.2 | 30.070 | 7.26 | 0.0 | 0 | 0.00 | 0.00 | 0.00 | 0.00 |
| 05/06/26 4:59:30 AM | 34 | 0.0 | 1.0 | 48 | 82 | 65.5 | 47.2 | 30.071 | 7.26 | 0.0 | 0 | 0.00 | 0.00 | 0.00 | 0.00 |
| 05/06/26 5:00:25 AM | 36 | 0.0 | 1.0 | 48 | 82 | 65.5 | 47.2 | 30.070 | 7.26 | 0.0 | 0 | 0.00 | 0.00 | 0.00 | 0.00 |
| 05/06/26 5:01:35 AM | 35 | 0.0 | 1.0 | 48 | 82 | 65.6 | 47.1 | 30.068 | 7.26 | 0.0 | 0 | 0.00 | 0.00 | 0.00 | 0.00 |
| 05/06/26 5:02:27 AM | 38 | 0.0 | 1.0 | 48 | 82 | 65.6 | 47.1 | 30.069 | 7.26 | 0.0 | 0 | 0.00 | 0.00 | 0.00 | 0.00 |
| 05/06/26 5:03:19 AM | 34 | 0.0 | 1.0 | 48 | 82 | 65.5 | 47.1 | 30.069 | 7.26 | 0.0 | 0 | 0.00 | 0.00 | 0.00 | 0.00 |
| 05/06/26 5:04:26 AM | 35 | 0.0 | 1.0 | 48 | 82 | 65.4 | 47.1 | 30.071 | 7.26 | 0.0 | 0 | 0.00 | 0.00 | 0.00 | 0.00 |
| 05/06/26 5:05:17 AM | 37 | 0.0 | 1.0 | 48 | 82 | 65.4 | 47.0 | 30.069 | 7.26 | 0.0 | 0 | 0.00 | 0.00 | 0.00 | 0.00 |
| 05/06/26 5:06:30 AM | 36 | 0.0 | 1.0 | 48 | 82 | 65.3 | 47.0 | 30.070 | 7.26 | 0.0 | 0 | 0.00 | 0.00 | 0.00 | 0.00 |
| 05/06/26 5:07:22 AM | 37 | 0.0 | 1.0 | 48 | 82 | 65.2 | 47.0 | 30.073 | 7.26 | 0.0 | 0 | 0.00 | 0.00 | 0.00 | 0.00 |
| 05/06/26 5:08:35 AM | 37 | 0.0 | 1.0 | 48 | 82 | 65.2 | 47.0 | 30.071 | 7.26 | 0.0 | 0 | 0.00 | 0.00 | 0.00 | 0.00 |
| 05/06/26 5:09:27 AM | 37 | 0.0 | 1.0 | 48 | 82 | 65.1 | 46.9 | 30.069 | 7.26 | 0.0 | 0 | 0.00 | 0.00 | 0.00 | 0.00 |
| 05/06/26 5:10:34 AM | 34 | 0.0 | 1.0 | 48 | 82 | 65.0 | 46.9 | 30.070 | 7.26 | 0.0 | 0 | 0.00 | 0.00 | 0.00 | 0.00 |
| 05/06/26 5:11:26 AM | 35 | 0.0 | 1.0 | 48 | 82 | 64.9 | 46.9 | 30.073 | 7.26 | 0.0 | 0 | 0.00 | 0.00 | 0.00 | 0.00 |
| 05/06/26 5:12:18 AM | 38 | 0.0 | 1.0 | 48 | 82 | 64.7 | 46.8 | 30.077 | 7.26 | 0.0 | 0 | 0.00 | 0.00 | 0.00 | 0.00 |
| 05/06/26 5:13:31 AM | 36 | 0.0 | 1.0 | 48 | 82 | 64.6 | 46.9 | 30.077 | 7.26 | 0.0 | 0 | 0.00 | 0.00 | 0.00 | 0.00 |
| 05/06/26 5:14:23 AM | 32 | 0.0 | 1.0 | 48 | 82 | 64.5 | 46.8 | 30.077 | 7.26 | 0.0 | 0 | 0.00 | 0.00 | 0.00 | 0.00 |
| 05/06/26 5:15:32 AM | 38 | 0.0 | 1.0 | 48 | 82 | 64.4 | 46.8 | 30.077 | 7.26 | 0.0 | 0 | 0.00 | 0.00 | 0.00 | 0.00 |
| 05/06/26 5:16:21 AM | 38 | 0.0 | 1.0 | 48 | 82 | 64.2 | 46.8 | 30.077 | 7.26 | 0.0 | 0 | 0.00 | 0.00 | 0.00 | 0.00 |
| 05/06/26 5:17:34 AM | 34 | 0.0 | 1.0 | 48 | 82 | 64.1 | 46.8 | 30.078 | 7.26 | 0.0 | 0 | 0.00 | 0.00 | 0.00 | 0.00 |
| 05/06/26 5:18:26 AM | 38 | 0.0 | 1.0 | 48 | 82 | 64.0 | 46.8 | 30.079 | 7.26 | 0.0 | 0 | 0.00 | 0.00 | 0.00 | 0.00 |
| 05/06/26 5:19:18 AM | 38 | 0.0 | 1.0 | 48 | 82 | 63.9 | 46.8 | 30.078 | 7.26 | 0.0 | 0 | 0.00 | 0.00 | 0.00 | 0.00 |
| 05/06/26 5:20:28 AM | 38 | 0.0 | 1.0 | 48 | 83 | 63.7 | 46.8 | 30.076 | 7.26 | 0.0 | 0 | 0.00 | 0.00 | 0.00 | 0.00 |
| 05/06/26 5:21:20 AM | 38 | 0.0 | 1.0 | 48 | 83 | 63.6 | 46.8 | 30.077 | 7.26 | 0.0 | 0 | 0.00 | 0.00 | 0.00 | 0.00 |
| 05/06/26 5:22:33 AM | 38 | 0.0 | 1.0 | 48 | 83 | 63.5 | 46.8 | 30.076 | 7.26 | 0.0 | 0 | 0.00 | 0.00 | 0.00 | 0.00 |
| 05/06/26 5:23:25 AM | 36 | 2.0 | 3.0 | 48 | 83 | 63.4 | 46.8 | 30.077 | 7.26 | 0.0 | 0 | 0.00 | 0.00 | 0.00 | 0.00 |
| 05/06/26 5:24:35 AM | 38 | 3.0 | 3.0 | 48 | 83 | 63.3 | 46.8 | 30.078 | 7.26 | 0.0 | 0 | 0.00 | 0.00 | 0.00 | 0.00 |
| 05/06/26 5:25:29 AM | 36 | 2.0 | 3.0 | 48 | 83 | 63.2 | 46.8 | 30.076 | 7.26 | 0.0 | 0 | 0.00 | 0.00 | 0.00 | 0.00 |
| 05/06/26 5:26:15 AM | 38 | 2.0 | 3.0 | 48 | 83 | 63.1 | 46.8 | 30.078 | 7.26 | 0.0 | 0 | 0.00 | 0.00 | 0.00 | 0.00 |
| 05/06/26 5:27:31 AM | 38 | 2.0 | 3.0 | 48 | 83 | 63.0 | 46.8 | 30.077 | 7.26 | 0.0 | 0 | 0.00 | 0.00 | 0.00 | 0.00 |
| 05/06/26 5:28:23 AM | 35 | 2.0 | 3.0 | 48 | 83 | 63.0 | 46.8 | 30.076 | 7.26 | 0.0 | 0 | 0.00 | 0.00 | 0.00 | 0.00 |
| 05/06/26 5:29:33 AM | 38 | 2.0 | 3.0 | 48 | 83 | 62.9 | 46.7 | 30.077 | 7.26 | 0.0 | 0 | 0.00 | 0.00 | 0.00 | 0.00 |
| 05/06/26 5:30:28 AM | 35 | 1.0 | 3.0 | 48 | 83 | 62.8 | 46.7 | 30.077 | 7.26 | 0.0 | 0 | 0.00 | 0.00 | 0.00 | 0.00 |
| 05/06/26 5:31:35 AM | 36 | 1.0 | 3.0 | 48 | 83 | 62.8 | 46.7 | 30.077 | 7.26 | 0.0 | 0 | 0.00 | 0.00 | 0.00 | 0.00 |
| 05/06/26 5:32:27 AM | 38 | 1.0 | 3.0 | 49 | 83 | 62.7 | 46.7 | 30.077 | 7.26 | 0.0 | 0 | 0.00 | 0.00 | 0.00 | 0.00 |
| 05/06/26 5:33:19 AM | 32 | 0.0 | 3.0 | 49 | 83 | 62.6 | 46.7 | 30.075 | 7.26 | 0.0 | 0 | 0.00 | 0.00 | 0.00 | 0.00 |
| 05/06/26 5:34:32 AM | 35 | 0.0 | 3.0 | 49 | 83 | 62.6 | 46.7 | 30.079 | 7.26 | 0.0 | 0 | 0.00 | 0.00 | 0.00 | 0.00 |
| 05/06/26 5:35:21 AM | 35 | 0.0 | 3.0 | 49 | 83 | 62.5 | 46.7 | 30.079 | 7.26 | 0.0 | 0 | 0.00 | 0.00 | 0.00 | 0.00 |
| 05/06/26 5:36:31 AM | 31 | 0.0 | 3.0 | 49 | 83 | 62.4 | 46.7 | 30.080 | 7.26 | 0.0 | 0 | 0.00 | 0.00 | 0.00 | 0.00 |
| 05/06/26 5:37:22 AM | 35 | 0.0 | 3.0 | 49 | 83 | 62.3 | 46.7 | 30.079 | 7.26 | 0.0 | 0 | 0.00 | 0.00 | 0.00 | 0.00 |
| 05/06/26 5:38:36 AM | 38 | 0.0 | 3.0 | 49 | 83 | 62.3 | 46.7 | 30.078 | 7.26 | 0.0 | 0 | 0.00 | 0.00 | 0.00 | 0.00 |
| 05/06/26 5:39:27 AM | 38 | 0.0 | 3.0 | 49 | 83 | 62.2 | 46.8 | 30.081 | 7.26 | 0.0 | 0 | 0.00 | 0.00 | 0.00 | 0.00 |
| 05/06/26 5:40:19 AM | 35 | 0.0 | 3.0 | 49 | 83 | 62.2 | 46.8 | 30.081 | 7.26 | 0.0 | 0 | 0.00 | 0.00 | 0.00 | 0.00 |
| 05/06/26 5:41:32 AM | 34 | 0.0 | 3.0 | 49 | 83 | 62.1 | 46.8 | 30.077 | 7.26 | 0.0 | 0 | 0.00 | 0.00 | 0.00 | 0.00 |
| 05/06/26 5:42:21 AM | 39 | 0.0 | 3.0 | 49 | 83 | 62.0 | 46.8 | 30.077 | 7.26 | 0.0 | 0 | 0.00 | 0.00 | 0.00 | 0.00 |
| 05/06/26 5:43:31 AM | 36 | 0.0 | 3.0 | 50 | 83 | 61.9 | 46.8 | 30.079 | 7.26 | 0.0 | 0 | 0.00 | 0.00 | 0.00 | 0.00 |
| 05/06/26 5:44:23 AM | 39 | 0.0 | 3.0 | 50 | 83 | 61.9 | 46.8 | 30.078 | 7.26 | 0.0 | 0 | 0.00 | 0.00 | 0.00 | 0.00 |
| 05/06/26 5:45:36 AM | 38 | 0.0 | 3.0 | 50 | 83 | 61.8 | 46.8 | 30.078 | 7.26 | 0.0 | 0 | 0.00 | 0.00 | 0.00 | 0.00 |
| 05/06/26 5:46:28 AM | 35 | 0.0 | 3.0 | 50 | 83 | 61.8 | 46.7 | 30.078 | 7.26 | 0.0 | 0 | 0.00 | 0.00 | 0.00 | 0.00 |
| 05/06/26 5:47:35 AM | 38 | 0.0 | 3.0 | 50 | 83 | 61.8 | 46.7 | 30.078 | 7.26 | 0.0 | 0 | 0.00 | 0.00 | 0.00 | 0.00 |
| 05/06/26 5:48:27 AM | 38 | 0.0 | 3.0 | 50 | 83 | 61.7 | 46.7 | 30.078 | 7.26 | 0.0 | 0 | 0.00 | 0.00 | 0.00 | 0.00 |
| 05/06/26 5:49:19 AM | 35 | 0.0 | 3.0 | 50 | 83 | 61.6 | 46.7 | 30.079 | 7.26 | 0.0 | 0 | 0.00 | 0.00 | 0.00 | 0.00 |
| 05/06/26 5:50:32 AM | 30 | 0.0 | 3.0 | 50 | 83 | 61.6 | 46.7 | 30.079 | 7.26 | 0.0 | 0 | 0.00 | 0.00 | 0.00 | 0.00 |
| 05/06/26 5:51:24 AM | 34 | 0.0 | 3.0 | 51 | 83 | 61.5 | 46.7 | 30.078 | 7.26 | 0.0 | 0 | 0.00 | 0.00 | 0.00 | 0.00 |
| 05/06/26 5:52:15 AM | 37 | 0.0 | 3.0 | 51 | 84 | 61.5 | 46.7 | 30.077 | 7.26 | 0.0 | 0 | 0.00 | 0.00 | 0.00 | 0.00 |
| 05/06/26 5:53:25 AM | 34 | 0.0 | 3.0 | 51 | 84 | 61.5 | 46.6 | 30.079 | 7.26 | 0.0 | 0 | 0.00 | 0.00 | 0.00 | 0.00 |
| 05/06/26 5:54:17 AM | 38 | 0.0 | 3.0 | 51 | 84 | 61.4 | 46.6 | 30.080 | 7.26 | 0.0 | 0 | 0.00 | 0.00 | 0.00 | 0.00 |
| 05/06/26 5:55:30 AM | 36 | 0.0 | 3.0 | 51 | 84 | 61.4 | 46.7 | 30.080 | 7.26 | 0.0 | 0 | 0.00 | 0.00 | 0.00 | 0.00 |
| 05/06/26 5:56:22 AM | 37 | 0.0 | 3.0 | 51 | 84 | 61.4 | 46.7 | 30.081 | 7.26 | 0.0 | 0 | 0.00 | 0.00 | 0.00 | 0.00 |
| 05/06/26 5:57:32 AM | 37 | 0.0 | 3.0 | 51 | 84 | 61.3 | 46.6 | 30.079 | 7.26 | 0.0 | 5 | 0.00 | 0.00 | 0.00 | 0.00 |
| 05/06/26 5:58:21 AM | 37 | 0.0 | 3.0 | 51 | 84 | 61.3 | 46.6 | 30.080 | 7.26 | 0.0 | 5 | 0.00 | 0.00 | 0.00 | 0.00 |
| 05/06/26 5:59:31 AM | 38 | 0.0 | 3.0 | 51 | 84 | 61.3 | 46.6 | 30.081 | 7.26 | 0.0 | 5 | 0.00 | 0.00 | 0.00 | 0.00 |
| 05/06/26 6:00:26 AM | 32 | 0.0 | 3.0 | 51 | 84 | 61.3 | 46.6 | 30.082 | 7.26 | 0.0 | 5 | 0.00 | 0.00 | 0.00 | 0.00 |
| 05/06/26 6:01:18 AM | 35 | 0.0 | 3.0 | 51 | 84 | 61.3 | 46.6 | 30.082 | 7.26 | 0.0 | 7 | 0.00 | 0.00 | 0.00 | 0.00 |
| 05/06/26 6:02:28 AM | 29 | 0.0 | 3.0 | 51 | 84 | 61.2 | 46.6 | 30.085 | 7.26 | 0.0 | 7 | 0.00 | 0.00 | 0.00 | 0.00 |
| 05/06/26 6:03:38 AM | 30 | 0.0 | 3.0 | 51 | 84 | 61.2 | 46.6 | 30.083 | 7.26 | 0.0 | 7 | 0.00 | 0.00 | 0.00 | 0.00 |
| 05/06/26 6:04:27 AM | 38 | 0.0 | 3.0 | 51 | 84 | 61.2 | 46.6 | 30.085 | 7.26 | 0.0 | 7 | 0.00 | 0.00 | 0.00 | 0.00 |
| 05/06/26 6:05:18 AM | 34 | 0.0 | 3.0 | 51 | 84 | 61.2 | 46.6 | 30.085 | 7.26 | 0.0 | 9 | 0.00 | 0.00 | 0.00 | 0.00 |
| 05/06/26 6:06:31 AM | 37 | 0.0 | 3.0 | 51 | 84 | 61.1 | 46.7 | 30.082 | 7.26 | 0.0 | 9 | 0.00 | 0.00 | 0.00 | 0.00 |
| 05/06/26 6:07:23 AM | 35 | 0.0 | 3.0 | 51 | 84 | 61.1 | 46.7 | 30.086 | 7.26 | 0.0 | 9 | 0.00 | 0.00 | 0.00 | 0.00 |
| 05/06/26 6:08:18 AM | 38 | 0.0 | 3.0 | 52 | 84 | 61.1 | 46.7 | 30.085 | 7.26 | 0.0 | 9 | 0.00 | 0.00 | 0.00 | 0.00 |
| 05/06/26 6:09:16 AM | 37 | 0.0 | 3.0 | 52 | 84 | 61.1 | 46.7 | 30.085 | 7.26 | 0.0 | 11 | 0.00 | 0.00 | 0.00 | 0.00 |
| 05/06/26 6:10:29 AM | 37 | 0.0 | 3.0 | 52 | 84 | 61.1 | 46.7 | 30.086 | 7.26 | 0.0 | 11 | 0.00 | 0.00 | 0.00 | 0.00 |
| 05/06/26 6:11:21 AM | 38 | 0.0 | 3.0 | 52 | 84 | 61.0 | 46.7 | 30.085 | 7.26 | 0.0 | 11 | 0.00 | 0.00 | 0.00 | 0.00 |
| 05/06/26 6:12:31 AM | 34 | 0.0 | 3.0 | 52 | 84 | 61.0 | 46.7 | 30.085 | 7.26 | 0.0 | 11 | 0.00 | 0.00 | 0.00 | 0.00 |
| 05/06/26 6:13:26 AM | 38 | 0.0 | 3.0 | 52 | 84 | 61.0 | 46.7 | 30.085 | 7.26 | 0.0 | 12 | 0.00 | 0.00 | 0.00 | 0.00 |
| 05/06/26 6:14:33 AM | 36 | 0.0 | 3.0 | 52 | 84 | 60.9 | 46.8 | 30.086 | 7.26 | 0.0 | 12 | 0.00 | 0.00 | 0.00 | 0.00 |
| 05/06/26 6:15:46 AM | 37 | 0.0 | 3.0 | 52 | 84 | 60.9 | 46.8 | 30.084 | 7.26 | 0.0 | 12 | 0.00 | 0.00 | 0.00 | 0.00 |
| 05/06/26 6:16:20 AM | 38 | 0.0 | 3.0 | 52 | 84 | 60.9 | 46.8 | 30.084 | 7.26 | 0.0 | 14 | 0.00 | 0.00 | 0.00 | 0.00 |
| 05/06/26 6:17:30 AM | 37 | 0.0 | 3.0 | 52 | 84 | 60.9 | 46.8 | 30.086 | 7.26 | 0.0 | 14 | 0.00 | 0.00 | 0.00 | 0.00 |
| 05/06/26 6:18:21 AM | 35 | 0.0 | 3.0 | 52 | 84 | 60.8 | 46.9 | 30.089 | 7.26 | 0.0 | 14 | 0.00 | 0.00 | 0.00 | 0.00 |
| 05/06/26 6:19:34 AM | 32 | 0.0 | 3.0 | 52 | 85 | 60.8 | 46.9 | 30.089 | 7.26 | 0.0 | 16 | 0.00 | 0.00 | 0.00 | 0.00 |
| 05/06/26 6:20:23 AM | 35 | 0.0 | 3.0 | 52 | 85 | 60.8 | 46.9 | 30.090 | 7.26 | 0.0 | 16 | 0.00 | 0.00 | 0.00 | 0.00 |
| 05/06/26 6:21:36 AM | 30 | 0.0 | 3.0 | 52 | 85 | 60.8 | 47.0 | 30.091 | 7.26 | 0.0 | 16 | 0.00 | 0.00 | 0.00 | 0.00 |
| 05/06/26 6:22:28 AM | 37 | 0.0 | 3.0 | 52 | 85 | 60.7 | 47.0 | 30.090 | 7.26 | 0.0 | 18 | 0.00 | 0.00 | 0.00 | 0.00 |
| 05/06/26 6:23:20 AM | 34 | 0.0 | 3.0 | 52 | 85 | 60.7 | 47.0 | 30.092 | 7.26 | 0.0 | 18 | 0.00 | 0.00 | 0.00 | 0.00 |
| 05/06/26 6:24:33 AM | 34 | 0.0 | 3.0 | 52 | 85 | 60.7 | 47.1 | 30.091 | 7.26 | 0.0 | 19 | 0.00 | 0.00 | 0.00 | 0.00 |
| 05/06/26 6:25:22 AM | 35 | 0.0 | 3.0 | 52 | 85 | 60.7 | 47.1 | 30.094 | 7.26 | 0.0 | 19 | 0.00 | 0.00 | 0.00 | 0.00 |
| 05/06/26 6:26:35 AM | 37 | 0.0 | 3.0 | 52 | 85 | 60.6 | 47.2 | 30.094 | 7.26 | 0.0 | 26 | 0.00 | 0.00 | 0.00 | 0.00 |
| 05/06/26 6:27:27 AM | 36 | 0.0 | 3.0 | 52 | 85 | 60.6 | 47.2 | 30.093 | 7.26 | 0.0 | 28 | 0.00 | 0.00 | 0.00 | 0.00 |
| 05/06/26 6:28:19 AM | 37 | 0.0 | 3.0 | 52 | 85 | 60.5 | 47.2 | 30.093 | 7.26 | 0.0 | 30 | 0.00 | 0.00 | 0.00 | 0.00 |
| 05/06/26 6:29:32 AM | 38 | 0.0 | 3.0 | 52 | 85 | 60.5 | 47.2 | 30.094 | 7.26 | 0.0 | 32 | 0.00 | 0.00 | 0.00 | 0.00 |
| 05/06/26 6:30:24 AM | 35 | 0.0 | 3.0 | 52 | 85 | 60.6 | 47.3 | 30.093 | 7.26 | 0.0 | 33 | 0.00 | 0.00 | 0.00 | 0.00 |
| 05/06/26 6:31:31 AM | 38 | 0.0 | 3.0 | 52 | 85 | 60.5 | 47.3 | 30.096 | 7.26 | 0.0 | 35 | 0.00 | 0.00 | 0.00 | 0.00 |
| 05/06/26 6:32:23 AM | 36 | 0.0 | 3.0 | 52 | 85 | 60.5 | 47.3 | 30.096 | 7.26 | 0.0 | 35 | 0.00 | 0.00 | 0.00 | 0.00 |
| 05/06/26 6:33:18 AM | 39 | 0.0 | 3.0 | 53 | 84 | 60.5 | 47.3 | 30.096 | 7.26 | 0.0 | 37 | 0.00 | 0.00 | 0.00 | 0.00 |
| 05/06/26 6:34:28 AM | 36 | 0.0 | 3.0 | 53 | 84 | 60.5 | 47.4 | 30.097 | 7.26 | 0.0 | 39 | 0.00 | 0.00 | 0.00 | 0.00 |
| 05/06/26 6:35:19 AM | 35 | 0.0 | 3.0 | 53 | 84 | 60.4 | 47.4 | 30.096 | 7.26 | 0.0 | 40 | 0.00 | 0.00 | 0.00 | 0.00 |
| 05/06/26 6:36:26 AM | 38 | 0.0 | 3.0 | 53 | 85 | 60.5 | 47.4 | 30.097 | 7.26 | 0.0 | 42 | 0.00 | 0.00 | 0.00 | 0.00 |
| 05/06/26 6:37:18 AM | 38 | 0.0 | 3.0 | 53 | 85 | 60.4 | 47.4 | 30.099 | 7.26 | 0.0 | 44 | 0.00 | 0.00 | 0.00 | 0.00 |
| 05/06/26 6:38:31 AM | 38 | 0.0 | 3.0 | 53 | 85 | 60.4 | 47.5 | 30.098 | 7.26 | 0.0 | 47 | 0.00 | 0.00 | 0.00 | 0.00 |
| 05/06/26 6:39:23 AM | 38 | 0.0 | 3.0 | 53 | 85 | 60.4 | 47.5 | 30.098 | 7.26 | 0.0 | 49 | 0.00 | 0.00 | 0.00 | 0.00 |
| 05/06/26 6:40:36 AM | 38 | 0.0 | 3.0 | 53 | 85 | 60.4 | 47.6 | 30.099 | 7.26 | 0.0 | 54 | 0.00 | 0.00 | 0.00 | 0.00 |
| 05/06/26 6:41:25 AM | 38 | 0.0 | 3.0 | 53 | 85 | 60.4 | 47.6 | 30.100 | 7.26 | 0.0 | 54 | 0.00 | 0.00 | 0.00 | 0.00 |
| 05/06/26 6:42:17 AM | 36 | 0.0 | 3.0 | 53 | 85 | 60.3 | 47.6 | 30.100 | 7.26 | 0.0 | 58 | 0.00 | 0.00 | 0.00 | 0.00 |
| 05/06/26 6:43:27 AM | 31 | 0.0 | 3.0 | 53 | 85 | 60.4 | 47.7 | 30.101 | 7.26 | 0.0 | 62 | 0.00 | 0.00 | 0.00 | 0.00 |
| 05/06/26 6:44:19 AM | 35 | 0.0 | 3.0 | 53 | 85 | 60.4 | 47.7 | 30.101 | 7.26 | 0.0 | 62 | 0.00 | 0.00 | 0.00 | 0.00 |
| 05/06/26 6:45:32 AM | 38 | 0.0 | 3.0 | 53 | 85 | 60.3 | 47.7 | 30.101 | 7.26 | 0.0 | 67 | 0.00 | 0.00 | 0.00 | 0.00 |
| 05/06/26 6:46:24 AM | 36 | 0.0 | 3.0 | 53 | 85 | 60.3 | 47.8 | 30.102 | 7.26 | 0.0 | 70 | 0.00 | 0.00 | 0.00 | 0.00 |
| 05/06/26 6:47:31 AM | 36 | 0.0 | 3.0 | 53 | 85 | 60.3 | 47.8 | 30.101 | 7.26 | 0.0 | 72 | 0.00 | 0.00 | 0.00 | 0.00 |
| 05/06/26 6:48:23 AM | 35 | 0.0 | 3.0 | 53 | 85 | 60.3 | 47.8 | 30.101 | 7.26 | 0.0 | 76 | 0.00 | 0.00 | 0.00 | 0.00 |
| 05/06/26 6:49:36 AM | 39 | 0.0 | 3.0 | 53 | 85 | 60.2 | 47.9 | 30.102 | 7.26 | 0.0 | 77 | 0.00 | 0.00 | 0.00 | 0.00 |
| 05/06/26 6:50:28 AM | 38 | 0.0 | 3.0 | 53 | 85 | 60.2 | 47.9 | 30.101 | 7.26 | 0.0 | 81 | 0.00 | 0.00 | 0.00 | 0.00 |
| 05/06/26 6:51:20 AM | 38 | 0.0 | 3.0 | 54 | 85 | 60.2 | 47.9 | 30.101 | 7.26 | 0.0 | 84 | 0.00 | 0.00 | 0.00 | 0.00 |
| 05/06/26 6:52:30 AM | 34 | 0.0 | 3.0 | 54 | 85 | 60.2 | 47.9 | 30.100 | 7.26 | 0.0 | 86 | 0.00 | 0.00 | 0.00 | 0.00 |
| 05/06/26 6:53:21 AM | 38 | 0.0 | 3.0 | 54 | 85 | 60.2 | 48.1 | 30.100 | 7.26 | 0.0 | 90 | 0.00 | 0.00 | 0.00 | 0.00 |
| 05/06/26 6:54:31 AM | 38 | 0.0 | 3.0 | 54 | 85 | 60.2 | 48.2 | 30.102 | 7.26 | 0.0 | 91 | 0.00 | 0.00 | 0.00 | 0.00 |
| 05/06/26 6:55:23 AM | 31 | 0.0 | 3.0 | 54 | 85 | 60.2 | 48.3 | 30.101 | 7.26 | 0.0 | 95 | 0.00 | 0.00 | 0.00 | 0.00 |
| 05/06/26 6:56:36 AM | 35 | 0.0 | 3.0 | 54 | 85 | 60.2 | 48.4 | 30.100 | 7.26 | 0.0 | 100 | 0.00 | 0.00 | 0.00 | 0.00 |
| 05/06/26 6:57:25 AM | 36 | 0.0 | 3.0 | 54 | 85 | 60.2 | 48.5 | 30.101 | 7.26 | 0.0 | 100 | 0.00 | 0.00 | 0.00 | 0.00 |
| 05/06/26 6:58:35 AM | 30 | 0.0 | 3.0 | 54 | 85 | 60.1 | 48.6 | 30.103 | 7.26 | 0.0 | 107 | 0.00 | 0.00 | 0.00 | 0.00 |
| 05/06/26 6:59:24 AM | 37 | 0.0 | 3.0 | 54 | 85 | 60.1 | 48.7 | 30.103 | 7.26 | 0.0 | 111 | 0.00 | 0.00 | 0.00 | 0.00 |
| 05/06/26 7:00:19 AM | 37 | 0.0 | 3.0 | 54 | 85 | 60.1 | 48.8 | 30.102 | 7.26 | 0.0 | 114 | 0.00 | 0.00 | 0.00 | 0.00 |
| 05/06/26 7:01:29 AM | 37 | 0.0 | 3.0 | 54 | 85 | 60.1 | 48.9 | 30.103 | 7.26 | 0.0 | 118 | 0.00 | 0.00 | 0.00 | 0.00 |
| 05/06/26 7:02:21 AM | 36 | 0.0 | 3.0 | 54 | 85 | 60.1 | 49.0 | 30.107 | 7.26 | 0.0 | 121 | 0.00 | 0.00 | 0.00 | 0.00 |
| 05/06/26 7:03:28 AM | 36 | 0.0 | 3.0 | 54 | 85 | 60.1 | 49.1 | 30.108 | 7.26 | 0.0 | 123 | 0.00 | 0.00 | 0.00 | 0.00 |
| 05/06/26 7:04:23 AM | 39 | 0.0 | 3.0 | 54 | 85 | 60.1 | 49.2 | 30.106 | 7.26 | 0.0 | 127 | 0.00 | 0.00 | 0.00 | 0.00 |
| 05/06/26 7:05:33 AM | 32 | 0.0 | 3.0 | 54 | 85 | 60.1 | 49.3 | 30.105 | 7.26 | 0.0 | 130 | 0.00 | 0.00 | 0.00 | 0.00 |
| 05/06/26 7:06:28 AM | 36 | 0.0 | 3.0 | 55 | 85 | 60.1 | 49.4 | 30.108 | 7.26 | 0.0 | 134 | 0.00 | 0.00 | 0.00 | 0.00 |
| 05/06/26 7:07:17 AM | 31 | 0.0 | 3.0 | 55 | 85 | 60.1 | 49.5 | 30.107 | 7.26 | 0.0 | 137 | 0.00 | 0.00 | 0.00 | 0.00 |
| 05/06/26 7:08:27 AM | 35 | 0.0 | 3.0 | 55 | 85 | 60.1 | 49.6 | 30.107 | 7.26 | 0.0 | 141 | 0.00 | 0.00 | 0.00 | 0.00 |
| 05/06/26 7:09:16 AM | 38 | 0.0 | 3.0 | 55 | 85 | 60.0 | 49.7 | 30.104 | 7.26 | 0.0 | 144 | 0.00 | 0.00 | 0.00 | 0.00 |
| 05/06/26 7:10:32 AM | 36 | 0.0 | 3.0 | 55 | 85 | 60.1 | 49.9 | 30.105 | 7.26 | 0.0 | 151 | 0.00 | 0.00 | 0.00 | 0.00 |
| 05/06/26 7:11:21 AM | 36 | 0.0 | 3.0 | 55 | 85 | 60.1 | 50.0 | 30.110 | 7.26 | 0.0 | 151 | 0.00 | 0.00 | 0.00 | 0.00 |
| 05/06/26 7:12:31 AM | 35 | 0.0 | 3.0 | 55 | 85 | 60.0 | 50.1 | 30.108 | 7.26 | 0.0 | 156 | 0.00 | 0.00 | 0.00 | 0.00 |
| 05/06/26 7:13:20 AM | 39 | 0.0 | 3.0 | 55 | 85 | 60.1 | 50.2 | 30.108 | 7.26 | 0.0 | 160 | 0.00 | 0.00 | 0.00 | 0.00 |
| 05/06/26 7:14:33 AM | 32 | 0.0 | 3.0 | 55 | 85 | 60.1 | 50.3 | 30.108 | 7.26 | 0.0 | 163 | 0.00 | 0.00 | 0.00 | 0.00 |
| 05/06/26 7:15:28 AM | 35 | 0.0 | 3.0 | 55 | 85 | 60.0 | 50.4 | 30.109 | 7.26 | 0.0 | 167 | 0.00 | 0.00 | 0.00 | 0.00 |
| 05/06/26 7:16:17 AM | 36 | 0.0 | 3.0 | 55 | 85 | 60.1 | 50.5 | 30.109 | 7.26 | 0.0 | 171 | 0.00 | 0.00 | 0.00 | 0.00 |
| 05/06/26 7:17:30 AM | 35 | 0.0 | 3.0 | 55 | 85 | 60.0 | 50.7 | 30.111 | 7.26 | 0.0 | 174 | 0.00 | 0.00 | 0.00 | 0.00 |
| 05/06/26 7:18:22 AM | 35 | 0.0 | 3.0 | 55 | 85 | 60.1 | 50.8 | 30.111 | 7.26 | 0.0 | 176 | 0.00 | 0.00 | 0.00 | 0.00 |
| 05/06/26 7:19:32 AM | 38 | 0.0 | 3.0 | 55 | 85 | 60.1 | 51.0 | 30.111 | 7.26 | 0.0 | 176 | 0.00 | 0.00 | 0.00 | 0.00 |
| 05/06/26 7:20:23 AM | 35 | 0.0 | 3.0 | 55 | 85 | 60.0 | 51.2 | 30.110 | 7.26 | 0.0 | 183 | 0.00 | 0.00 | 0.00 | 0.00 |
| 05/06/26 7:21:36 AM | 35 | 0.0 | 3.0 | 55 | 85 | 60.0 | 51.3 | 30.110 | 7.26 | 0.0 | 186 | 0.00 | 0.00 | 0.00 | 0.00 |
| 05/06/26 7:22:28 AM | 36 | 0.0 | 3.0 | 55 | 84 | 60.0 | 51.5 | 30.108 | 7.26 | 0.0 | 190 | 0.00 | 0.00 | 0.00 | 0.00 |
| 05/06/26 7:23:17 AM | 36 | 0.0 | 3.0 | 55 | 84 | 60.0 | 51.5 | 30.107 | 7.26 | 0.0 | 193 | 0.00 | 0.00 | 0.00 | 0.00 |
| 05/06/26 7:24:27 AM | 35 | 0.0 | 3.0 | 56 | 84 | 60.0 | 51.7 | 30.111 | 7.26 | 0.0 | 195 | 0.00 | 0.00 | 0.00 | 0.00 |
| 05/06/26 7:25:19 AM | 35 | 0.0 | 3.0 | 56 | 84 | 60.0 | 51.8 | 30.106 | 7.26 | 0.0 | 199 | 0.00 | 0.00 | 0.00 | 0.00 |
| 05/06/26 7:26:29 AM | 32 | 0.0 | 3.0 | 56 | 84 | 60.0 | 52.0 | 30.109 | 7.26 | 0.0 | 206 | 0.00 | 0.00 | 0.00 | 0.00 |
| 05/06/26 7:27:21 AM | 35 | 0.0 | 3.0 | 56 | 83 | 60.0 | 52.1 | 30.106 | 7.26 | 0.0 | 209 | 0.00 | 0.00 | 0.00 | 0.00 |
| 05/06/26 7:28:34 AM | 38 | 0.0 | 3.0 | 56 | 83 | 60.0 | 52.2 | 30.107 | 7.26 | 0.0 | 213 | 0.00 | 0.00 | 0.00 | 0.00 |
| 05/06/26 7:29:23 AM | 35 | 0.0 | 3.0 | 56 | 83 | 60.0 | 52.3 | 30.107 | 7.26 | 0.0 | 214 | 0.00 | 0.00 | 0.00 | 0.00 |
| 05/06/26 7:30:36 AM | 38 | 0.0 | 3.0 | 56 | 83 | 60.0 | 52.4 | 30.107 | 7.26 | 0.0 | 218 | 0.00 | 0.00 | 0.00 | 0.00 |
| 05/06/26 7:31:28 AM | 35 | 0.0 | 3.0 | 56 | 82 | 60.0 | 52.5 | 30.108 | 7.26 | 0.0 | 221 | 0.00 | 0.00 | 0.00 | 0.00 |
| 05/06/26 7:32:20 AM | 38 | 0.0 | 3.0 | 56 | 82 | 60.0 | 52.6 | 30.106 | 7.26 | 0.0 | 225 | 0.00 | 0.00 | 0.00 | 0.00 |
| 05/06/26 7:33:30 AM | 38 | 0.0 | 3.0 | 56 | 82 | 60.0 | 52.7 | 30.108 | 7.26 | 0.0 | 229 | 0.00 | 0.00 | 0.00 | 0.00 |
| 05/06/26 7:34:25 AM | 36 | 0.0 | 3.0 | 56 | 82 | 60.0 | 52.8 | 30.108 | 7.26 | 0.0 | 230 | 0.00 | 0.00 | 0.00 | 0.00 |
| 05/06/26 7:35:32 AM | 38 | 0.0 | 3.0 | 56 | 82 | 60.0 | 53.0 | 30.109 | 7.26 | 0.0 | 234 | 0.00 | 0.00 | 0.00 | 0.00 |
| 05/06/26 7:36:24 AM | 35 | 0.0 | 3.0 | 56 | 82 | 60.0 | 53.1 | 30.107 | 7.26 | 0.0 | 239 | 0.00 | 0.00 | 0.00 | 0.00 |
| 05/06/26 7:37:16 AM | 39 | 0.0 | 3.0 | 56 | 82 | 60.0 | 53.2 | 30.110 | 7.26 | 0.0 | 241 | 0.00 | 0.00 | 0.00 | 0.00 |
| 05/06/26 7:38:29 AM | 32 | 0.0 | 3.0 | 56 | 81 | 60.0 | 53.4 | 30.109 | 7.26 | 0.0 | 244 | 0.00 | 0.00 | 0.00 | 0.00 |
| 05/06/26 7:39:21 AM | 35 | 0.0 | 3.0 | 56 | 81 | 60.0 | 53.5 | 30.111 | 7.26 | 0.0 | 248 | 0.00 | 0.00 | 0.00 | 0.00 |
| 05/06/26 7:40:28 AM | 31 | 0.0 | 3.0 | 56 | 80 | 60.1 | 53.6 | 30.108 | 7.26 | 0.5 | 251 | 0.00 | 0.00 | 0.00 | 0.00 |
| 05/06/26 7:41:20 AM | 35 | 0.0 | 3.0 | 56 | 80 | 60.0 | 53.7 | 30.110 | 7.26 | 0.5 | 255 | 0.00 | 0.00 | 0.00 | 0.00 |
| 05/06/26 7:42:33 AM | 36 | 0.0 | 3.0 | 56 | 80 | 60.0 | 53.8 | 30.109 | 7.26 | 0.5 | 260 | 0.00 | 0.00 | 0.00 | 0.00 |
| 05/06/26 7:43:25 AM | 38 | 0.0 | 3.0 | 56 | 80 | 60.1 | 53.9 | 30.109 | 7.26 | 0.5 | 264 | 0.00 | 0.00 | 0.00 | 0.00 |
| 05/06/26 7:44:35 AM | 38 | 0.0 | 3.0 | 56 | 79 | 60.1 | 54.0 | 30.109 | 7.26 | 0.5 | 267 | 0.00 | 0.00 | 0.00 | 0.00 |
| 05/06/26 7:45:27 AM | 35 | 0.0 | 3.0 | 56 | 79 | 60.1 | 54.1 | 30.111 | 7.26 | 0.5 | 267 | 0.00 | 0.00 | 0.00 | 0.00 |
| 05/06/26 7:46:19 AM | 38 | 0.0 | 3.0 | 56 | 79 | 60.1 | 54.2 | 30.109 | 7.26 | 0.5 | 274 | 0.00 | 0.00 | 0.00 | 0.00 |
| 05/06/26 7:47:32 AM | 38 | 0.0 | 3.0 | 56 | 79 | 60.1 | 54.4 | 30.111 | 7.26 | 0.5 | 276 | 0.00 | 0.00 | 0.00 | 0.00 |
| 05/06/26 7:48:24 AM | 36 | 0.0 | 3.0 | 56 | 79 | 60.1 | 54.5 | 30.111 | 7.26 | 0.6 | 278 | 0.00 | 0.00 | 0.00 | 0.00 |
| 05/06/26 7:49:34 AM | 38 | 0.0 | 3.0 | 56 | 78 | 60.2 | 54.6 | 30.109 | 7.26 | 0.6 | 278 | 0.00 | 0.00 | 0.00 | 0.00 |
| 05/06/26 7:50:26 AM | 32 | 0.0 | 3.0 | 56 | 78 | 60.1 | 54.8 | 30.109 | 7.26 | 0.6 | 279 | 0.00 | 0.00 | 0.00 | 0.00 |
| 05/06/26 7:51:36 AM | 39 | 0.0 | 3.0 | 56 | 78 | 60.2 | 54.9 | 30.109 | 7.26 | 0.6 | 283 | 0.00 | 0.00 | 0.00 | 0.00 |
| 05/06/26 7:52:25 AM | 38 | 0.0 | 3.0 | 56 | 78 | 60.2 | 55.0 | 30.110 | 7.26 | 0.6 | 288 | 0.00 | 0.00 | 0.00 | 0.00 |
| 05/06/26 7:53:17 AM | 36 | 0.0 | 3.0 | 56 | 77 | 60.2 | 55.1 | 30.111 | 7.26 | 0.6 | 288 | 0.00 | 0.00 | 0.00 | 0.00 |
| 05/06/26 7:54:30 AM | 36 | 0.0 | 3.0 | 56 | 77 | 60.2 | 55.2 | 30.108 | 7.26 | 0.6 | 299 | 0.00 | 0.00 | 0.00 | 0.00 |
| 05/06/26 7:55:22 AM | 38 | 0.0 | 3.0 | 56 | 77 | 60.2 | 55.4 | 30.111 | 7.26 | 0.6 | 304 | 0.00 | 0.00 | 0.00 | 0.00 |
| 05/06/26 7:56:29 AM | 38 | 0.0 | 3.0 | 56 | 76 | 60.2 | 55.5 | 30.108 | 7.26 | 0.7 | 311 | 0.00 | 0.00 | 0.00 | 0.00 |
| 05/06/26 7:57:24 AM | 36 | 0.0 | 3.0 | 56 | 75 | 60.3 | 55.7 | 30.107 | 7.26 | 0.7 | 315 | 0.00 | 0.00 | 0.00 | 0.00 |
| 05/06/26 7:58:34 AM | 36 | 0.0 | 3.0 | 56 | 75 | 60.3 | 55.9 | 30.105 | 7.26 | 0.7 | 318 | 0.00 | 0.00 | 0.00 | 0.00 |
| 05/06/26 7:59:29 AM | 37 | 0.0 | 3.0 | 56 | 74 | 60.3 | 56.0 | 30.106 | 7.26 | 0.7 | 322 | 0.00 | 0.00 | 0.00 | 0.00 |
| 05/06/26 8:00:21 AM | 34 | 0.0 | 3.0 | 56 | 74 | 60.3 | 56.0 | 30.104 | 7.26 | 0.7 | 325 | 0.00 | 0.00 | 0.00 | 0.00 |
| 05/06/26 8:01:28 AM | 38 | 0.0 | 3.0 | 56 | 73 | 60.3 | 56.2 | 30.107 | 7.26 | 0.7 | 329 | 0.00 | 0.00 | 0.00 | 0.00 |
| 05/06/26 8:02:20 AM | 32 | 0.0 | 3.0 | 56 | 73 | 60.3 | 56.2 | 30.106 | 7.26 | 0.7 | 330 | 0.00 | 0.00 | 0.00 | 0.00 |
| 05/06/26 8:03:33 AM | 38 | 0.0 | 3.0 | 56 | 73 | 60.4 | 56.3 | 30.107 | 7.26 | 0.7 | 334 | 0.00 | 0.00 | 0.00 | 0.00 |
| 05/06/26 8:04:28 AM | 36 | 1.0 | 3.0 | 56 | 73 | 60.4 | 56.4 | 30.107 | 7.26 | 0.8 | 338 | 0.00 | 0.00 | 0.00 | 0.00 |
| 05/06/26 8:05:20 AM | 32 | 3.0 | 3.0 | 56 | 72 | 60.4 | 56.5 | 30.106 | 7.26 | 0.8 | 341 | 0.00 | 0.00 | 0.00 | 0.00 |
| 05/06/26 8:06:30 AM | 32 | 2.0 | 3.0 | 56 | 72 | 60.4 | 56.6 | 30.105 | 7.26 | 0.8 | 345 | 0.00 | 0.00 | 0.00 | 0.00 |
| 05/06/26 8:07:19 AM | 37 | 2.0 | 3.0 | 56 | 71 | 60.5 | 56.6 | 30.106 | 7.26 | 0.8 | 345 | 0.00 | 0.00 | 0.00 | 0.00 |
| 05/06/26 8:08:41 AM | 38 | 2.0 | 3.0 | 56 | 71 | 60.5 | 56.7 | 30.105 | 7.26 | 0.8 | 355 | 0.00 | 0.00 | 0.00 | 0.00 |
| 05/06/26 8:09:33 AM | 32 | 2.0 | 3.0 | 56 | 70 | 60.5 | 56.7 | 30.107 | 7.26 | 0.8 | 355 | 0.00 | 0.00 | 0.00 | 0.00 |
| 05/06/26 8:10:25 AM | 36 | 1.0 | 3.0 | 56 | 70 | 60.5 | 56.8 | 30.109 | 7.26 | 0.8 | 359 | 0.00 | 0.00 | 0.00 | 0.00 |
| 05/06/26 8:11:17 AM | 38 | 1.0 | 3.0 | 56 | 70 | 60.6 | 56.8 | 30.105 | 7.26 | 0.8 | 359 | 0.00 | 0.00 | 0.00 | 0.00 |
| 05/06/26 8:12:27 AM | 37 | 2.0 | 3.0 | 56 | 70 | 60.5 | 56.8 | 30.105 | 7.26 | 0.8 | 369 | 0.00 | 0.00 | 0.00 | 0.00 |
| 05/06/26 8:13:16 AM | 34 | 2.0 | 3.0 | 56 | 70 | 60.6 | 56.8 | 30.108 | 7.26 | 0.9 | 371 | 0.00 | 0.00 | 0.00 | 0.00 |
| 05/06/26 8:14:29 AM | 39 | 3.0 | 4.0 | 56 | 70 | 60.7 | 56.9 | 30.107 | 7.26 | 0.9 | 374 | 0.00 | 0.00 | 0.00 | 0.00 |
| 05/06/26 8:15:21 AM | 34 | 2.0 | 4.0 | 56 | 69 | 60.7 | 56.9 | 30.107 | 7.26 | 0.9 | 378 | 0.00 | 0.00 | 0.00 | 0.00 |
| 05/06/26 8:16:34 AM | 38 | 2.0 | 4.0 | 56 | 69 | 60.7 | 57.0 | 30.106 | 7.26 | 0.9 | 381 | 0.00 | 0.00 | 0.00 | 0.00 |
| 05/06/26 8:17:26 AM | 38 | 1.0 | 4.0 | 56 | 69 | 60.7 | 57.0 | 30.106 | 7.26 | 0.9 | 385 | 0.00 | 0.00 | 0.00 | 0.00 |
| 05/06/26 8:18:33 AM | 38 | 1.0 | 4.0 | 56 | 68 | 60.7 | 57.1 | 30.108 | 7.26 | 0.9 | 388 | 0.00 | 0.00 | 0.00 | 0.00 |
| 05/06/26 8:19:28 AM | 35 | 0.0 | 4.0 | 56 | 68 | 60.7 | 57.1 | 30.108 | 7.26 | 0.9 | 390 | 0.00 | 0.00 | 0.00 | 0.00 |
| 05/06/26 8:20:17 AM | 38 | 0.0 | 4.0 | 56 | 68 | 60.8 | 57.1 | 30.106 | 7.26 | 1.0 | 394 | 0.00 | 0.00 | 0.00 | 0.00 |
| 05/06/26 8:21:33 AM | 38 | 0.0 | 4.0 | 56 | 68 | 60.8 | 57.1 | 30.108 | 7.26 | 1.0 | 399 | 0.00 | 0.00 | 0.00 | 0.00 |
| 05/06/26 8:22:25 AM | 35 | 0.0 | 4.0 | 56 | 68 | 60.8 | 57.2 | 30.106 | 7.26 | 1.0 | 401 | 0.00 | 0.00 | 0.00 | 0.00 |
| 05/06/26 8:23:32 AM | 36 | 0.0 | 4.0 | 56 | 68 | 60.8 | 57.2 | 30.107 | 7.26 | 1.0 | 401 | 0.00 | 0.00 | 0.00 | 0.00 |
| 05/06/26 8:24:24 AM | 35 | 0.0 | 4.0 | 56 | 68 | 60.9 | 57.3 | 30.107 | 7.26 | 1.0 | 408 | 0.00 | 0.00 | 0.00 | 0.00 |
| 05/06/26 8:25:16 AM | 34 | 1.0 | 4.0 | 56 | 68 | 60.9 | 57.5 | 30.106 | 7.26 | 1.0 | 411 | 0.00 | 0.00 | 0.00 | 0.00 |
| 05/06/26 8:26:29 AM | 32 | 1.0 | 4.0 | 56 | 68 | 60.9 | 57.6 | 30.106 | 7.26 | 1.0 | 418 | 0.00 | 0.00 | 0.00 | 0.00 |
| 05/06/26 8:27:21 AM | 38 | 1.0 | 4.0 | 56 | 67 | 60.9 | 57.7 | 30.102 | 7.26 | 1.1 | 418 | 0.00 | 0.00 | 0.00 | 0.00 |
| 05/06/26 8:28:28 AM | 38 | 0.0 | 4.0 | 56 | 67 | 60.9 | 57.8 | 30.105 | 7.26 | 1.1 | 424 | 0.00 | 0.00 | 0.00 | 0.00 |
| 05/06/26 8:29:20 AM | 38 | 1.0 | 4.0 | 56 | 67 | 60.9 | 57.8 | 30.106 | 7.26 | 1.1 | 427 | 0.00 | 0.00 | 0.00 | 0.00 |
| 05/06/26 8:30:54 AM | 36 | 0.0 | 4.0 | 56 | 66 | 61.0 | 57.8 | 30.102 | 7.26 | 1.1 | 431 | 0.00 | 0.00 | 0.00 | 0.00 |
| 05/06/26 8:31:25 AM | 34 | 0.0 | 4.0 | 56 | 66 | 61.0 | 57.8 | 30.101 | 7.26 | 1.1 | 434 | 0.00 | 0.00 | 0.00 | 0.00 |
| 05/06/26 8:32:35 AM | 36 | 0.0 | 4.0 | 56 | 67 | 61.0 | 58.0 | 30.103 | 7.26 | 1.2 | 438 | 0.00 | 0.00 | 0.00 | 0.00 |
| 05/06/26 8:33:27 AM | 38 | 3.0 | 4.0 | 56 | 67 | 61.0 | 58.1 | 30.103 | 7.26 | 1.2 | 438 | 0.00 | 0.00 | 0.00 | 0.00 |
| 05/06/26 8:34:16 AM | 35 | 1.0 | 4.0 | 56 | 66 | 61.1 | 58.2 | 30.104 | 7.26 | 1.2 | 445 | 0.00 | 0.00 | 0.00 | 0.00 |
| 05/06/26 8:35:29 AM | 39 | 2.0 | 4.0 | 56 | 66 | 61.1 | 58.3 | 30.106 | 7.26 | 1.2 | 448 | 0.00 | 0.00 | 0.00 | 0.00 |
| 05/06/26 8:36:21 AM | 36 | 1.0 | 4.0 | 56 | 65 | 61.1 | 58.4 | 30.103 | 7.26 | 1.2 | 450 | 0.00 | 0.00 | 0.00 | 0.00 |
| 05/06/26 8:37:31 AM | 31 | 2.0 | 4.0 | 56 | 65 | 61.2 | 58.5 | 30.101 | 7.26 | 1.3 | 454 | 0.00 | 0.00 | 0.00 | 0.00 |
| 05/06/26 8:38:26 AM | 32 | 3.0 | 4.0 | 56 | 64 | 61.2 | 58.5 | 30.103 | 7.26 | 1.3 | 459 | 0.00 | 0.00 | 0.00 | 0.00 |
| 05/06/26 8:39:15 AM | 35 | 2.0 | 5.0 | 56 | 64 | 61.2 | 58.6 | 30.103 | 7.26 | 1.3 | 462 | 0.00 | 0.00 | 0.00 | 0.00 |
| 05/06/26 8:40:22 AM | 35 | 2.0 | 5.0 | 56 | 64 | 61.2 | 58.7 | 30.101 | 7.26 | 1.3 | 466 | 0.00 | 0.00 | 0.00 | 0.00 |
| 05/06/26 8:41:35 AM | 35 | 2.0 | 5.0 | 56 | 64 | 61.3 | 58.7 | 30.104 | 7.26 | 1.3 | 469 | 0.00 | 0.00 | 0.00 | 0.00 |
| 05/06/26 8:42:27 AM | 32 | 2.0 | 5.0 | 56 | 63 | 61.3 | 58.7 | 30.101 | 7.26 | 1.3 | 469 | 0.00 | 0.00 | 0.00 | 0.00 |
| 05/06/26 8:43:19 AM | 34 | 0.0 | 5.0 | 56 | 63 | 61.4 | 58.8 | 30.101 | 7.26 | 1.3 | 469 | 0.00 | 0.00 | 0.00 | 0.00 |
| 05/06/26 8:44:29 AM | 38 | 2.0 | 5.0 | 56 | 63 | 61.4 | 58.9 | 30.099 | 7.26 | 1.4 | 480 | 0.00 | 0.00 | 0.00 | 0.00 |
| 05/06/26 8:45:21 AM | 32 | 2.0 | 5.0 | 56 | 64 | 61.4 | 58.9 | 30.100 | 7.26 | 1.4 | 482 | 0.00 | 0.00 | 0.00 | 0.00 |
| 05/06/26 8:46:31 AM | 39 | 1.0 | 5.0 | 56 | 63 | 61.5 | 58.9 | 30.102 | 7.26 | 1.4 | 483 | 0.00 | 0.00 | 0.00 | 0.00 |
| 05/06/26 8:47:23 AM | 35 | 1.0 | 5.0 | 56 | 63 | 61.5 | 58.9 | 30.100 | 7.26 | 1.4 | 485 | 0.00 | 0.00 | 0.00 | 0.00 |
| 05/06/26 8:48:37 AM | 35 | 0.0 | 5.0 | 56 | 63 | 61.5 | 58.9 | 30.100 | 7.26 | 1.4 | 485 | 0.00 | 0.00 | 0.00 | 0.00 |
| 05/06/26 8:49:29 AM | 38 | 0.0 | 5.0 | 56 | 63 | 61.5 | 58.9 | 30.101 | 7.26 | 1.5 | 487 | 0.00 | 0.00 | 0.00 | 0.00 |
| 05/06/26 8:50:36 AM | 37 | 3.0 | 5.0 | 56 | 63 | 61.6 | 59.0 | 30.100 | 7.26 | 1.5 | 492 | 0.00 | 0.00 | 0.00 | 0.00 |
| 05/06/26 8:51:28 AM | 37 | 1.0 | 5.0 | 56 | 63 | 61.7 | 59.1 | 30.101 | 7.26 | 1.5 | 492 | 0.00 | 0.00 | 0.00 | 0.00 |
| 05/06/26 8:52:19 AM | 35 | 0.0 | 5.0 | 56 | 62 | 61.7 | 59.1 | 30.103 | 7.26 | 1.5 | 492 | 0.00 | 0.00 | 0.00 | 0.00 |
| 05/06/26 8:53:33 AM | 35 | 3.0 | 5.0 | 56 | 63 | 61.7 | 59.3 | 30.099 | 7.26 | 1.6 | 499 | 0.00 | 0.00 | 0.00 | 0.00 |
| 05/06/26 8:54:25 AM | 37 | 2.0 | 5.0 | 56 | 63 | 61.7 | 59.4 | 30.100 | 7.26 | 1.6 | 503 | 0.00 | 0.00 | 0.00 | 0.00 |
| 05/06/26 8:55:17 AM | 35 | 1.0 | 5.0 | 56 | 62 | 61.8 | 59.4 | 30.101 | 7.26 | 1.6 | 504 | 0.00 | 0.00 | 0.00 | 0.00 |
| 05/06/26 8:56:24 AM | 37 | 2.0 | 5.0 | 56 | 62 | 61.8 | 59.5 | 30.102 | 7.26 | 1.6 | 508 | 0.00 | 0.00 | 0.00 | 0.00 |
| 05/06/26 8:57:37 AM | 34 | 4.0 | 5.0 | 56 | 62 | 61.8 | 59.7 | 30.101 | 7.26 | 1.7 | 506 | 0.00 | 0.00 | 0.00 | 0.00 |
| 05/06/26 8:58:29 AM | 38 | 2.0 | 5.0 | 56 | 62 | 61.8 | 59.7 | 30.104 | 7.26 | 1.7 | 506 | 0.00 | 0.00 | 0.00 | 0.00 |
| 05/06/26 8:59:21 AM | 38 | 2.0 | 6.0 | 56 | 62 | 61.8 | 59.8 | 30.101 | 7.26 | 1.7 | 510 | 0.00 | 0.00 | 0.00 | 0.00 |
| 05/06/26 9:00:34 AM | 35 | 2.0 | 6.0 | 56 | 61 | 61.9 | 59.8 | 30.103 | 7.26 | 1.7 | 508 | 0.00 | 0.00 | 0.00 | 0.00 |
| 05/06/26 9:01:23 AM | 38 | 2.0 | 6.0 | 56 | 61 | 61.9 | 59.8 | 30.104 | 7.26 | 1.7 | 506 | 0.00 | 0.00 | 0.00 | 0.00 |
| 05/06/26 9:02:36 AM | 34 | 3.0 | 6.0 | 56 | 61 | 61.9 | 59.8 | 30.102 | 7.26 | 1.7 | 508 | 0.00 | 0.00 | 0.00 | 0.00 |
| 05/06/26 9:03:25 AM | 38 | 2.0 | 6.0 | 56 | 61 | 61.9 | 59.9 | 30.101 | 7.26 | 1.7 | 508 | 0.00 | 0.00 | 0.00 | 0.00 |
| 05/06/26 9:04:17 AM | 36 | 0.0 | 6.0 | 56 | 61 | 62.0 | 59.9 | 30.102 | 7.26 | 1.8 | 510 | 0.00 | 0.00 | 0.00 | 0.00 |
| 05/06/26 9:05:30 AM | 35 | 1.0 | 6.0 | 56 | 62 | 62.0 | 60.0 | 30.104 | 7.26 | 1.8 | 512 | 0.00 | 0.00 | 0.00 | 0.00 |
| 05/06/26 9:06:16 AM | 38 | 2.0 | 6.0 | 56 | 62 | 62.0 | 60.2 | 30.101 | 7.26 | 1.8 | 512 | 0.00 | 0.00 | 0.00 | 0.00 |
| 05/06/26 9:07:29 AM | 36 | 1.0 | 6.0 | 56 | 61 | 62.0 | 60.4 | 30.100 | 7.26 | 1.8 | 512 | 0.00 | 0.00 | 0.00 | 0.00 |
| 05/06/26 9:08:21 AM | 36 | 3.0 | 6.0 | 56 | 61 | 62.0 | 60.4 | 30.103 | 7.26 | 1.9 | 510 | 0.00 | 0.00 | 0.00 | 0.00 |
| 05/06/26 9:09:31 AM | 34 | 4.0 | 6.0 | 56 | 60 | 62.0 | 60.5 | 30.103 | 7.26 | 1.9 | 504 | 0.00 | 0.00 | 0.00 | 0.00 |
| 05/06/26 9:10:26 AM | 36 | 5.0 | 6.0 | 56 | 60 | 62.1 | 60.5 | 30.101 | 7.26 | 1.9 | 501 | 0.00 | 0.00 | 0.00 | 0.00 |
| 05/06/26 9:11:15 AM | 37 | 2.0 | 6.0 | 56 | 60 | 62.0 | 60.4 | 30.101 | 7.26 | 1.9 | 497 | 0.00 | 0.00 | 0.00 | 0.00 |
| 05/06/26 9:12:25 AM | 35 | 2.0 | 6.0 | 56 | 60 | 62.1 | 60.3 | 30.102 | 7.26 | 1.9 | 497 | 0.00 | 0.00 | 0.00 | 0.00 |
| 05/06/26 9:13:17 AM | 36 | 0.0 | 6.0 | 56 | 60 | 62.1 | 60.2 | 30.101 | 7.26 | 2.0 | 497 | 0.00 | 0.00 | 0.00 | 0.00 |
| 05/06/26 9:14:30 AM | 36 | 0.0 | 6.0 | 56 | 60 | 62.1 | 60.2 | 30.101 | 7.26 | 2.0 | 508 | 0.00 | 0.00 | 0.00 | 0.00 |
| 05/06/26 9:15:22 AM | 35 | 0.0 | 6.0 | 56 | 60 | 62.2 | 60.2 | 30.103 | 7.26 | 2.0 | 508 | 0.00 | 0.00 | 0.00 | 0.00 |
| 05/06/26 9:16:32 AM | 36 | 2.0 | 6.0 | 56 | 61 | 62.2 | 60.3 | 30.100 | 7.26 | 2.1 | 506 | 0.00 | 0.00 | 0.00 | 0.00 |
| 05/06/26 9:17:21 AM | 35 | 1.0 | 6.0 | 56 | 61 | 62.2 | 60.3 | 30.102 | 7.26 | 2.1 | 506 | 0.00 | 0.00 | 0.00 | 0.00 |
| 05/06/26 9:18:34 AM | 36 | 2.0 | 6.0 | 56 | 61 | 62.2 | 60.5 | 30.101 | 7.26 | 2.1 | 504 | 0.00 | 0.00 | 0.00 | 0.00 |
| 05/06/26 9:19:23 AM | 36 | 4.0 | 6.0 | 56 | 61 | 62.2 | 60.6 | 30.102 | 7.26 | 2.1 | 508 | 0.00 | 0.00 | 0.00 | 0.00 |
| 05/06/26 9:20:37 AM | 32 | 1.0 | 6.0 | 56 | 60 | 62.3 | 60.8 | 30.101 | 7.26 | 2.1 | 508 | 0.00 | 0.00 | 0.00 | 0.00 |
| 05/06/26 9:21:28 AM | 32 | 2.0 | 6.0 | 56 | 60 | 62.3 | 60.9 | 30.101 | 7.26 | 2.1 | 508 | 0.00 | 0.00 | 0.00 | 0.00 |
| 05/06/26 9:22:17 AM | 38 | 2.0 | 6.0 | 56 | 60 | 62.3 | 61.0 | 30.104 | 7.26 | 2.2 | 508 | 0.00 | 0.00 | 0.00 | 0.00 |
| 05/06/26 9:23:27 AM | 36 | 5.0 | 6.0 | 56 | 60 | 62.4 | 61.1 | 30.103 | 7.26 | 2.2 | 504 | 0.00 | 0.00 | 0.00 | 0.00 |
| 05/06/26 9:24:19 AM | 37 | 3.0 | 7.0 | 56 | 60 | 62.4 | 61.3 | 30.102 | 7.26 | 2.2 | 506 | 0.00 | 0.00 | 0.00 | 0.00 |
| 05/06/26 9:25:30 AM | 38 | 4.0 | 7.0 | 56 | 59 | 62.4 | 61.4 | 30.102 | 7.26 | 2.2 | 506 | 0.00 | 0.00 | 0.00 | 0.00 |
| 05/06/26 9:26:21 AM | 36 | 2.0 | 7.0 | 56 | 59 | 62.4 | 61.4 | 30.100 | 7.26 | 2.2 | 506 | 0.00 | 0.00 | 0.00 | 0.00 |
| 05/06/26 9:27:29 AM | 36 | 1.0 | 7.0 | 56 | 59 | 62.5 | 61.4 | 30.103 | 7.26 | 2.2 | 504 | 0.00 | 0.00 | 0.00 | 0.00 |
| 05/06/26 9:28:21 AM | 36 | 2.0 | 7.0 | 56 | 59 | 62.5 | 61.4 | 30.103 | 7.26 | 2.3 | 504 | 0.00 | 0.00 | 0.00 | 0.00 |
| 05/06/26 9:29:34 AM | 38 | 2.0 | 7.0 | 56 | 59 | 62.6 | 61.5 | 30.103 | 7.26 | 2.3 | 504 | 0.00 | 0.00 | 0.00 | 0.00 |
| 05/06/26 9:30:26 AM | 36 | 2.0 | 7.0 | 56 | 59 | 62.6 | 61.6 | 30.102 | 7.26 | 2.3 | 504 | 0.00 | 0.00 | 0.00 | 0.00 |
| 05/06/26 9:31:18 AM | 35 | 3.0 | 7.0 | 56 | 59 | 62.6 | 61.6 | 30.104 | 7.26 | 2.3 | 503 | 0.00 | 0.00 | 0.00 | 0.00 |
| 05/06/26 9:32:28 AM | 37 | 3.0 | 7.0 | 56 | 58 | 62.7 | 61.7 | 30.104 | 7.26 | 2.4 | 501 | 0.00 | 0.00 | 0.00 | 0.00 |
| 05/06/26 9:33:35 AM | 34 | 3.0 | 7.0 | 56 | 58 | 62.7 | 61.7 | 30.106 | 7.26 | 2.4 | 501 | 0.00 | 0.00 | 0.00 | 0.00 |
| 05/06/26 9:34:27 AM | 34 | 1.0 | 7.0 | 56 | 58 | 62.7 | 61.6 | 30.105 | 7.26 | 2.4 | 501 | 0.00 | 0.00 | 0.00 | 0.00 |
| 05/06/26 9:35:19 AM | 35 | 4.0 | 7.0 | 56 | 58 | 62.8 | 61.6 | 30.104 | 7.26 | 2.4 | 503 | 0.00 | 0.00 | 0.00 | 0.00 |
| 05/06/26 9:36:32 AM | 34 | 2.0 | 7.0 | 56 | 58 | 62.8 | 61.6 | 30.104 | 7.26 | 2.5 | 503 | 0.00 | 0.00 | 0.00 | 0.00 |
| 05/06/26 9:37:24 AM | 34 | 0.0 | 7.0 | 56 | 58 | 62.9 | 61.7 | 30.108 | 7.26 | 2.5 | 506 | 0.00 | 0.00 | 0.00 | 0.00 |
| 05/06/26 9:38:34 AM | 35 | 3.0 | 7.0 | 56 | 58 | 62.9 | 61.8 | 30.108 | 7.26 | 2.5 | 506 | 0.00 | 0.00 | 0.00 | 0.00 |
| 05/06/26 9:39:23 AM | 34 | 4.0 | 7.0 | 56 | 57 | 62.9 | 61.9 | 30.105 | 7.26 | 2.5 | 508 | 0.00 | 0.00 | 0.00 | 0.00 |
| 05/06/26 9:40:36 AM | 38 | 2.0 | 7.0 | 56 | 57 | 63.0 | 61.9 | 30.108 | 7.26 | 2.5 | 513 | 0.00 | 0.00 | 0.00 | 0.00 |
| 05/06/26 9:41:28 AM | 35 | 3.0 | 7.0 | 56 | 57 | 63.0 | 61.8 | 30.106 | 7.26 | 2.6 | 515 | 0.00 | 0.00 | 0.00 | 0.00 |
| 05/06/26 9:42:17 AM | 36 | 1.0 | 7.0 | 56 | 57 | 63.1 | 61.9 | 30.106 | 7.26 | 2.6 | 515 | 0.00 | 0.00 | 0.00 | 0.00 |
| 05/06/26 9:43:27 AM | 37 | 0.0 | 7.0 | 56 | 58 | 63.1 | 61.9 | 30.106 | 7.26 | 2.6 | 522 | 0.00 | 0.00 | 0.00 | 0.00 |
| 05/06/26 9:44:19 AM | 32 | 1.0 | 7.0 | 56 | 58 | 63.1 | 62.0 | 30.106 | 7.26 | 2.6 | 526 | 0.00 | 0.00 | 0.00 | 0.00 |
| 05/06/26 9:45:32 AM | 34 | 3.0 | 7.0 | 56 | 58 | 63.2 | 62.1 | 30.108 | 7.26 | 2.7 | 529 | 0.00 | 0.00 | 0.00 | 0.00 |
| 05/06/26 9:46:25 AM | 35 | 1.0 | 7.0 | 56 | 57 | 63.2 | 62.1 | 30.106 | 7.26 | 2.7 | 529 | 0.00 | 0.00 | 0.00 | 0.00 |
| 05/06/26 9:47:16 AM | 35 | 0.0 | 7.0 | 56 | 57 | 63.2 | 62.2 | 30.104 | 7.26 | 2.7 | 536 | 0.00 | 0.00 | 0.00 | 0.00 |
| 05/06/26 9:48:27 AM | 36 | 3.0 | 7.0 | 56 | 58 | 63.3 | 62.3 | 30.105 | 7.26 | 2.8 | 540 | 0.00 | 0.00 | 0.00 | 0.00 |
| 05/06/26 9:49:16 AM | 32 | 4.0 | 7.0 | 56 | 57 | 63.4 | 62.4 | 30.104 | 7.26 | 2.8 | 545 | 0.00 | 0.00 | 0.00 | 0.00 |
| 05/06/26 9:50:29 AM | 36 | 2.0 | 7.0 | 56 | 57 | 63.4 | 62.5 | 30.104 | 7.26 | 2.8 | 550 | 0.00 | 0.00 | 0.00 | 0.00 |
| 05/06/26 9:51:18 AM | 35 | 4.0 | 7.0 | 56 | 57 | 63.4 | 62.6 | 30.104 | 7.26 | 2.8 | 554 | 0.00 | 0.00 | 0.00 | 0.00 |
| 05/06/26 9:52:31 AM | 38 | 3.0 | 7.0 | 56 | 57 | 63.4 | 62.7 | 30.102 | 7.26 | 2.8 | 563 | 0.00 | 0.00 | 0.00 | 0.00 |
| 05/06/26 9:53:23 AM | 37 | 2.0 | 7.0 | 56 | 57 | 63.4 | 62.7 | 30.102 | 7.26 | 2.9 | 564 | 0.00 | 0.00 | 0.00 | 0.00 |
| 05/06/26 9:54:30 AM | 36 | 4.0 | 7.0 | 56 | 57 | 63.6 | 62.9 | 30.104 | 7.26 | 2.9 | 571 | 0.00 | 0.00 | 0.00 | 0.00 |
| 05/06/26 9:55:25 AM | 37 | 0.0 | 7.0 | 56 | 57 | 63.5 | 62.9 | 30.104 | 7.26 | 2.9 | 577 | 0.00 | 0.00 | 0.00 | 0.00 |
| 05/06/26 9:56:35 AM | 38 | 0.0 | 7.0 | 56 | 57 | 63.6 | 63.0 | 30.105 | 7.26 | 2.9 | 589 | 0.00 | 0.00 | 0.00 | 0.00 |
| 05/06/26 9:57:27 AM | 38 | 0.0 | 7.0 | 56 | 57 | 63.6 | 63.1 | 30.102 | 7.26 | 2.9 | 596 | 0.00 | 0.00 | 0.00 | 0.00 |
| 05/06/26 9:58:19 AM | 32 | 0.0 | 7.0 | 56 | 56 | 63.7 | 63.1 | 30.103 | 7.26 | 3.0 | 596 | 0.00 | 0.00 | 0.00 | 0.00 |
| 05/06/26 9:59:29 AM | 31 | 0.0 | 7.0 | 56 | 56 | 63.7 | 63.1 | 30.103 | 7.26 | 3.0 | 612 | 0.00 | 0.00 | 0.00 | 0.00 |
| 05/06/26 10:00:21 AM | 35 | 0.0 | 7.0 | 56 | 56 | 63.8 | 63.2 | 30.104 | 7.26 | 3.0 | 622 | 0.00 | 0.00 | 0.00 | 0.00 |
| 05/06/26 10:01:31 AM | 36 | 0.0 | 7.0 | 56 | 56 | 63.8 | 63.2 | 30.104 | 7.26 | 3.1 | 629 | 0.00 | 0.00 | 0.00 | 0.00 |
| 05/06/26 10:02:23 AM | 36 | 0.0 | 7.0 | 56 | 56 | 63.8 | 63.4 | 30.101 | 7.26 | 3.1 | 633 | 0.00 | 0.00 | 0.00 | 0.00 |
| 05/06/26 10:03:33 AM | 36 | 0.0 | 7.0 | 56 | 56 | 63.9 | 63.5 | 30.100 | 7.26 | 3.1 | 640 | 0.00 | 0.00 | 0.00 | 0.00 |
| 05/06/26 10:04:25 AM | 34 | 0.0 | 7.0 | 56 | 56 | 63.9 | 63.6 | 30.101 | 7.26 | 3.1 | 649 | 0.00 | 0.00 | 0.00 | 0.00 |
| 05/06/26 10:05:35 AM | 32 | 0.0 | 7.0 | 56 | 55 | 63.9 | 63.6 | 30.103 | 7.26 | 3.1 | 657 | 0.00 | 0.00 | 0.00 | 0.00 |
| 05/06/26 10:06:27 AM | 35 | 0.0 | 7.0 | 56 | 56 | 64.0 | 63.8 | 30.102 | 7.26 | 3.2 | 664 | 0.00 | 0.00 | 0.00 | 0.00 |
| 05/06/26 10:07:20 AM | 32 | 0.0 | 7.0 | 56 | 56 | 64.0 | 63.9 | 30.104 | 7.26 | 3.2 | 675 | 0.00 | 0.00 | 0.00 | 0.00 |
| 05/06/26 10:08:42 AM | 30 | 2.0 | 7.0 | 56 | 57 | 64.0 | 64.3 | 30.104 | 7.26 | 3.2 | 684 | 0.00 | 0.00 | 0.00 | 0.00 |
| 05/06/26 10:09:34 AM | 32 | 4.0 | 7.0 | 56 | 57 | 64.0 | 64.5 | 30.104 | 7.26 | 3.3 | 684 | 0.00 | 0.00 | 0.00 | 0.00 |
| 05/06/26 10:10:23 AM | 38 | 0.0 | 7.0 | 56 | 57 | 64.0 | 64.8 | 30.104 | 7.26 | 3.3 | 705 | 0.00 | 0.00 | 0.00 | 0.00 |
| 05/06/26 10:11:33 AM | 35 | 1.0 | 7.0 | 56 | 56 | 64.0 | 65.1 | 30.102 | 7.26 | 3.4 | 717 | 0.00 | 0.00 | 0.00 | 0.00 |
| 05/06/26 10:12:28 AM | 38 | 0.0 | 7.0 | 56 | 55 | 64.1 | 65.3 | 30.103 | 7.26 | 3.4 | 728 | 0.00 | 0.00 | 0.00 | 0.00 |
| 05/06/26 10:13:17 AM | 37 | 4.0 | 7.0 | 56 | 54 | 64.1 | 65.4 | 30.106 | 7.26 | 3.4 | 735 | 0.00 | 0.00 | 0.00 | 0.00 |
| 05/06/26 10:14:30 AM | 37 | 10.0 | 10.0 | 56 | 53 | 64.1 | 65.4 | 30.101 | 7.26 | 3.4 | 740 | 0.00 | 0.00 | 0.00 | 0.00 |
| 05/06/26 10:15:25 AM | 31 | 8.0 | 10.0 | 56 | 53 | 64.1 | 65.4 | 30.101 | 7.26 | 3.4 | 740 | 0.00 | 0.00 | 0.00 | 0.00 |
| 05/06/26 10:16:32 AM | 36 | 5.0 | 10.0 | 56 | 53 | 64.1 | 65.4 | 30.100 | 7.26 | 3.5 | 744 | 0.00 | 0.00 | 0.00 | 0.00 |
| 05/06/26 10:17:24 AM | 39 | 4.0 | 10.0 | 56 | 53 | 64.2 | 65.4 | 30.102 | 7.26 | 3.5 | 747 | 0.00 | 0.00 | 0.00 | 0.00 |
| 05/06/26 10:18:16 AM | 38 | 3.0 | 10.0 | 56 | 53 | 64.2 | 65.4 | 30.098 | 7.26 | 3.5 | 749 | 0.00 | 0.00 | 0.00 | 0.00 |
| 05/06/26 10:19:26 AM | 35 | 3.0 | 10.0 | 56 | 53 | 64.3 | 65.4 | 30.103 | 7.26 | 3.5 | 752 | 0.00 | 0.00 | 0.00 | 0.00 |
| 05/06/26 10:20:18 AM | 35 | 3.0 | 10.0 | 56 | 54 | 64.3 | 65.4 | 30.102 | 7.26 | 3.5 | 756 | 0.00 | 0.00 | 0.00 | 0.00 |
| 05/06/26 10:21:29 AM | 34 | 4.0 | 10.0 | 56 | 53 | 64.3 | 65.4 | 30.103 | 7.26 | 3.5 | 761 | 0.00 | 0.00 | 0.00 | 0.00 |
| 05/06/26 10:22:18 AM | 38 | 2.0 | 10.0 | 56 | 53 | 64.3 | 65.3 | 30.103 | 7.26 | 3.6 | 765 | 0.00 | 0.00 | 0.00 | 0.00 |
| 05/06/26 10:23:31 AM | 34 | 2.0 | 10.0 | 56 | 53 | 64.3 | 65.3 | 30.104 | 7.26 | 3.6 | 765 | 0.00 | 0.00 | 0.00 | 0.00 |
| 05/06/26 10:24:23 AM | 35 | 0.0 | 10.0 | 56 | 53 | 64.4 | 65.2 | 30.101 | 7.26 | 3.6 | 765 | 0.00 | 0.00 | 0.00 | 0.00 |
| 05/06/26 10:25:33 AM | 36 | 2.0 | 10.0 | 56 | 54 | 64.4 | 65.4 | 30.101 | 7.26 | 3.7 | 779 | 0.00 | 0.00 | 0.00 | 0.00 |
| 05/06/26 10:26:22 AM | 32 | 3.0 | 10.0 | 56 | 54 | 64.4 | 65.5 | 30.102 | 7.26 | 3.7 | 779 | 0.00 | 0.00 | 0.00 | 0.00 |
| 05/06/26 10:27:35 AM | 32 | 8.0 | 10.0 | 56 | 53 | 64.4 | 65.5 | 30.103 | 7.26 | 3.7 | 782 | 0.00 | 0.00 | 0.00 | 0.00 |
| 05/06/26 10:28:30 AM | 36 | 6.0 | 10.0 | 56 | 53 | 64.4 | 65.5 | 30.103 | 7.26 | 3.7 | 786 | 0.00 | 0.00 | 0.00 | 0.00 |
| 05/06/26 10:29:22 AM | 38 | 2.0 | 10.0 | 56 | 53 | 64.4 | 65.4 | 30.102 | 7.26 | 3.7 | 789 | 0.00 | 0.00 | 0.00 | 0.00 |
| 05/06/26 10:30:35 AM | 32 | 3.0 | 10.0 | 56 | 53 | 64.5 | 65.4 | 30.102 | 7.26 | 3.8 | 789 | 0.00 | 0.00 | 0.00 | 0.00 |
| 05/06/26 10:31:27 AM | 35 | 2.0 | 10.0 | 56 | 53 | 64.5 | 65.4 | 30.102 | 7.26 | 3.8 | 793 | 0.00 | 0.00 | 0.00 | 0.00 |
| 05/06/26 10:32:34 AM | 34 | 3.0 | 10.0 | 56 | 52 | 64.5 | 65.3 | 30.101 | 7.26 | 3.8 | 793 | 0.00 | 0.00 | 0.00 | 0.00 |
| 05/06/26 10:33:26 AM | 36 | 2.0 | 10.0 | 56 | 52 | 64.5 | 65.2 | 30.103 | 7.26 | 3.8 | 796 | 0.00 | 0.00 | 0.00 | 0.00 |
| 05/06/26 10:34:18 AM | 37 | 4.0 | 10.0 | 56 | 52 | 64.6 | 65.1 | 30.103 | 7.26 | 3.8 | 796 | 0.00 | 0.00 | 0.00 | 0.00 |
| 05/06/26 10:35:31 AM | 37 | 3.0 | 10.0 | 56 | 52 | 64.6 | 65.0 | 30.104 | 7.26 | 3.9 | 802 | 0.00 | 0.00 | 0.00 | 0.00 |
| 05/06/26 10:36:23 AM | 35 | 3.0 | 10.0 | 56 | 52 | 64.6 | 65.0 | 30.104 | 7.26 | 3.9 | 803 | 0.00 | 0.00 | 0.00 | 0.00 |
| 05/06/26 10:37:30 AM | 36 | 3.0 | 10.0 | 56 | 52 | 64.6 | 64.9 | 30.103 | 7.26 | 3.9 | 805 | 0.00 | 0.00 | 0.00 | 0.00 |
| 05/06/26 10:38:22 AM | 37 | 1.0 | 10.0 | 56 | 53 | 64.7 | 64.8 | 30.102 | 7.26 | 3.9 | 809 | 0.00 | 0.00 | 0.00 | 0.00 |
| 05/06/26 10:39:35 AM | 38 | 2.0 | 10.0 | 56 | 53 | 64.7 | 64.8 | 30.102 | 7.26 | 4.0 | 810 | 0.00 | 0.00 | 0.00 | 0.00 |
| 05/06/26 10:40:27 AM | 35 | 3.0 | 10.0 | 56 | 53 | 64.7 | 64.8 | 30.104 | 7.26 | 4.0 | 810 | 0.00 | 0.00 | 0.00 | 0.00 |
| 05/06/26 10:41:19 AM | 38 | 2.0 | 10.0 | 56 | 53 | 64.8 | 64.8 | 30.102 | 7.26 | 4.0 | 814 | 0.00 | 0.00 | 0.00 | 0.00 |
| 05/06/26 10:42:27 AM | 35 | 1.0 | 10.0 | 56 | 53 | 64.8 | 64.8 | 30.103 | 7.26 | 4.0 | 819 | 0.00 | 0.00 | 0.00 | 0.00 |
| 05/06/26 10:43:19 AM | 32 | 3.0 | 10.0 | 56 | 53 | 64.9 | 64.9 | 30.100 | 7.26 | 4.0 | 821 | 0.00 | 0.00 | 0.00 | 0.00 |
| 05/06/26 10:44:32 AM | 30 | 1.0 | 10.0 | 56 | 53 | 64.9 | 65.0 | 30.104 | 7.26 | 4.1 | 824 | 0.00 | 0.00 | 0.00 | 0.00 |
| 05/06/26 10:45:24 AM | 32 | 4.0 | 10.0 | 56 | 53 | 64.9 | 65.1 | 30.101 | 7.26 | 4.1 | 826 | 0.00 | 0.00 | 0.00 | 0.00 |
| 05/06/26 10:46:37 AM | 36 | 5.0 | 10.0 | 56 | 54 | 64.9 | 65.4 | 30.105 | 7.26 | 4.1 | 824 | 0.00 | 0.00 | 0.00 | 0.00 |
| 05/06/26 10:47:26 AM | 34 | 4.0 | 10.0 | 56 | 54 | 64.9 | 65.4 | 30.104 | 7.26 | 4.1 | 824 | 0.00 | 0.00 | 0.00 | 0.00 |
| 05/06/26 10:48:36 AM | 37 | 2.0 | 10.0 | 56 | 54 | 64.9 | 65.6 | 30.102 | 7.26 | 4.1 | 831 | 0.00 | 0.00 | 0.00 | 0.00 |
| 05/06/26 10:49:28 AM | 35 | 1.0 | 10.0 | 56 | 54 | 65.0 | 65.6 | 30.105 | 7.26 | 4.2 | 830 | 0.00 | 0.00 | 0.00 | 0.00 |
| 05/06/26 10:50:20 AM | 35 | 2.0 | 10.0 | 56 | 54 | 65.0 | 65.7 | 30.105 | 7.26 | 4.2 | 831 | 0.00 | 0.00 | 0.00 | 0.00 |
| 05/06/26 10:51:30 AM | 32 | 3.0 | 10.0 | 56 | 53 | 65.0 | 65.8 | 30.106 | 7.26 | 4.2 | 833 | 0.00 | 0.00 | 0.00 | 0.00 |
| 05/06/26 10:52:22 AM | 34 | 4.0 | 10.0 | 56 | 53 | 65.0 | 65.9 | 30.104 | 7.26 | 4.2 | 838 | 0.00 | 0.00 | 0.00 | 0.00 |
| 05/06/26 10:53:33 AM | 36 | 3.0 | 10.0 | 56 | 52 | 65.0 | 65.9 | 30.104 | 7.26 | 4.3 | 837 | 0.00 | 0.00 | 0.00 | 0.00 |
| 05/06/26 10:54:25 AM | 34 | 4.0 | 10.0 | 56 | 52 | 65.1 | 65.9 | 30.107 | 7.26 | 4.3 | 838 | 0.00 | 0.00 | 0.00 | 0.00 |
| 05/06/26 10:55:35 AM | 38 | 3.0 | 10.0 | 56 | 53 | 65.1 | 66.0 | 30.103 | 7.26 | 4.3 | 846 | 0.00 | 0.00 | 0.00 | 0.00 |
| 05/06/26 10:56:30 AM | 34 | 3.0 | 10.0 | 56 | 52 | 65.1 | 66.0 | 30.104 | 7.26 | 4.3 | 846 | 0.00 | 0.00 | 0.00 | 0.00 |
| 05/06/26 10:57:19 AM | 34 | 3.0 | 10.0 | 56 | 51 | 65.1 | 66.0 | 30.104 | 7.26 | 4.3 | 846 | 0.00 | 0.00 | 0.00 | 0.00 |
| 05/06/26 10:58:26 AM | 36 | 4.0 | 10.0 | 56 | 51 | 65.2 | 66.0 | 30.106 | 7.26 | 4.4 | 849 | 0.00 | 0.00 | 0.00 | 0.00 |
| 05/06/26 10:59:18 AM | 38 | 2.0 | 10.0 | 56 | 51 | 65.2 | 65.9 | 30.104 | 7.26 | 4.4 | 851 | 0.00 | 0.00 | 0.00 | 0.00 |
| 05/06/26 11:00:34 AM | 36 | 6.0 | 10.0 | 56 | 51 | 65.2 | 65.8 | 30.105 | 7.26 | 4.4 | 854 | 0.00 | 0.00 | 0.00 | 0.00 |
| 05/06/26 11:01:26 AM | 36 | 4.0 | 10.0 | 56 | 51 | 65.2 | 65.7 | 30.103 | 7.26 | 4.4 | 856 | 0.00 | 0.00 | 0.00 | 0.00 |
| 05/06/26 11:02:18 AM | 32 | 3.0 | 10.0 | 56 | 51 | 65.2 | 65.6 | 30.105 | 7.26 | 4.4 | 858 | 0.00 | 0.00 | 0.00 | 0.00 |
| 05/06/26 11:03:28 AM | 34 | 5.0 | 10.0 | 56 | 53 | 65.2 | 65.7 | 30.104 | 7.26 | 4.5 | 860 | 0.00 | 0.00 | 0.00 | 0.00 |
| 05/06/26 11:04:17 AM | 35 | 3.0 | 10.0 | 56 | 53 | 65.2 | 65.8 | 30.102 | 7.26 | 4.5 | 863 | 0.00 | 0.00 | 0.00 | 0.00 |
| 05/06/26 11:05:30 AM | 36 | 3.0 | 10.0 | 56 | 52 | 65.2 | 65.8 | 30.103 | 7.26 | 4.5 | 865 | 0.00 | 0.00 | 0.00 | 0.00 |
| 05/06/26 11:06:23 AM | 35 | 1.0 | 10.0 | 56 | 52 | 65.2 | 65.7 | 30.103 | 7.26 | 4.5 | 865 | 0.00 | 0.00 | 0.00 | 0.00 |
| 05/06/26 11:07:33 AM | 38 | 0.0 | 10.0 | 56 | 51 | 65.2 | 65.6 | 30.104 | 7.26 | 4.6 | 868 | 0.00 | 0.00 | 0.00 | 0.00 |
| 05/06/26 11:08:25 AM | 35 | 3.0 | 10.0 | 56 | 53 | 65.3 | 65.7 | 30.104 | 7.26 | 4.6 | 870 | 0.00 | 0.00 | 0.00 | 0.00 |
| 05/06/26 11:09:32 AM | 35 | 3.0 | 10.0 | 56 | 54 | 65.4 | 65.9 | 30.103 | 7.26 | 4.6 | 872 | 0.00 | 0.00 | 0.00 | 0.00 |
| 05/06/26 11:10:24 AM | 36 | 1.0 | 10.0 | 56 | 53 | 65.3 | 66.1 | 30.102 | 7.26 | 4.6 | 872 | 0.00 | 0.00 | 0.00 | 0.00 |
| 05/06/26 11:11:19 AM | 36 | 2.0 | 10.0 | 56 | 52 | 65.4 | 66.2 | 30.103 | 7.26 | 4.7 | 875 | 0.00 | 0.00 | 0.00 | 0.00 |
| 05/06/26 11:12:29 AM | 34 | 1.0 | 10.0 | 56 | 52 | 65.4 | 66.3 | 30.105 | 7.26 | 4.7 | 875 | 0.00 | 0.00 | 0.00 | 0.00 |
| 05/06/26 11:13:21 AM | 36 | 7.0 | 10.0 | 56 | 51 | 65.4 | 66.4 | 30.104 | 7.26 | 4.7 | 877 | 0.00 | 0.00 | 0.00 | 0.00 |
| 05/06/26 11:14:28 AM | 35 | 2.0 | 10.0 | 56 | 52 | 65.5 | 66.5 | 30.102 | 7.26 | 4.7 | 879 | 0.00 | 0.00 | 0.00 | 0.00 |
| 05/06/26 11:15:44 AM | 32 | 0.0 | 10.0 | 56 | 51 | 65.5 | 66.5 | 30.102 | 7.26 | 4.7 | 879 | 0.00 | 0.00 | 0.00 | 0.00 |
| 05/06/26 11:16:33 AM | 36 | 4.0 | 10.0 | 56 | 52 | 65.5 | 66.6 | 30.100 | 7.26 | 4.7 | 881 | 0.00 | 0.00 | 0.00 | 0.00 |
| 05/06/26 11:17:25 AM | 35 | 5.0 | 10.0 | 56 | 51 | 65.5 | 66.7 | 30.100 | 7.26 | 4.8 | 882 | 0.00 | 0.00 | 0.00 | 0.00 |
| 05/06/26 11:18:18 AM | 37 | 2.0 | 10.0 | 56 | 51 | 65.5 | 66.7 | 30.100 | 7.26 | 4.8 | 882 | 0.00 | 0.00 | 0.00 | 0.00 |
| 05/06/26 11:19:28 AM | 34 | 0.0 | 10.0 | 56 | 51 | 65.5 | 66.7 | 30.096 | 7.26 | 4.8 | 884 | 0.00 | 0.00 | 0.00 | 0.00 |
| 05/06/26 11:20:17 AM | 37 | 4.0 | 10.0 | 56 | 51 | 65.6 | 66.8 | 30.098 | 7.26 | 4.8 | 886 | 0.00 | 0.00 | 0.00 | 0.00 |
| 05/06/26 11:21:30 AM | 38 | 1.0 | 10.0 | 56 | 50 | 65.6 | 66.9 | 30.098 | 7.26 | 4.9 | 889 | 0.00 | 0.00 | 0.00 | 0.00 |
| 05/06/26 11:22:22 AM | 32 | 3.0 | 10.0 | 56 | 50 | 65.7 | 67.0 | 30.097 | 7.26 | 4.9 | 889 | 0.00 | 0.00 | 0.00 | 0.00 |
| 05/06/26 11:23:35 AM | 36 | 0.0 | 10.0 | 56 | 50 | 65.6 | 67.0 | 30.099 | 7.26 | 4.9 | 893 | 0.00 | 0.00 | 0.00 | 0.00 |
| 05/06/26 11:24:24 AM | 35 | 2.0 | 10.0 | 56 | 50 | 65.7 | 67.1 | 30.099 | 7.26 | 4.9 | 896 | 0.00 | 0.00 | 0.00 | 0.00 |
| 05/06/26 11:25:19 AM | 35 | 2.0 | 10.0 | 56 | 50 | 65.7 | 67.1 | 30.094 | 7.26 | 4.9 | 896 | 0.00 | 0.00 | 0.00 | 0.00 |
| 05/06/26 11:26:26 AM | 35 | 2.0 | 10.0 | 56 | 50 | 65.7 | 67.1 | 30.093 | 7.26 | 4.9 | 896 | 0.00 | 0.00 | 0.00 | 0.00 |
| 05/06/26 11:27:18 AM | 35 | 2.0 | 10.0 | 56 | 50 | 65.7 | 67.1 | 30.093 | 7.26 | 4.9 | 896 | 0.00 | 0.00 | 0.00 | 0.00 |
| 05/06/26 11:30:02 AM | 36 | 2.0 | 10.0 | 56 | 50 | 66.0 | 67.7 | 30.090 | 7.26 | 4.9 | 896 | 0.00 | 0.00 | 0.00 | 0.00 |
| 05/06/26 11:30:36 AM | 32 | 4.0 | 10.0 | 56 | 50 | 66.1 | 67.7 | 30.092 | 7.26 | 5.0 | 907 | 0.00 | 0.00 | 0.00 | 0.00 |
| 05/06/26 11:31:28 AM | 35 | 5.0 | 10.0 | 56 | 52 | 66.1 | 67.9 | 30.090 | 7.26 | 5.0 | 907 | 0.00 | 0.00 | 0.00 | 0.00 |
| 05/06/26 11:32:35 AM | 38 | 2.0 | 10.0 | 56 | 50 | 66.1 | 68.0 | 30.092 | 7.26 | 5.0 | 909 | 0.00 | 0.00 | 0.00 | 0.00 |
| 05/06/26 11:33:27 AM | 38 | 7.0 | 10.0 | 56 | 49 | 66.1 | 68.1 | 30.092 | 7.26 | 5.0 | 909 | 0.00 | 0.00 | 0.00 | 0.00 |
| 05/06/26 11:34:19 AM | 36 | 5.0 | 10.0 | 56 | 49 | 66.0 | 68.2 | 30.090 | 7.26 | 5.1 | 912 | 0.00 | 0.00 | 0.00 | 0.00 |
| 05/06/26 11:35:32 AM | 34 | 6.0 | 10.0 | 56 | 49 | 66.1 | 68.3 | 30.090 | 7.26 | 5.1 | 914 | 0.00 | 0.00 | 0.00 | 0.00 |
| 05/06/26 11:36:24 AM | 32 | 5.0 | 10.0 | 56 | 48 | 66.1 | 68.3 | 30.091 | 7.26 | 5.1 | 916 | 0.00 | 0.00 | 0.00 | 0.00 |
| 05/06/26 11:37:31 AM | 32 | 5.0 | 10.0 | 56 | 48 | 66.1 | 68.3 | 30.088 | 7.26 | 5.1 | 918 | 0.00 | 0.00 | 0.00 | 0.00 |
| 05/06/26 11:38:24 AM | 35 | 5.0 | 10.0 | 56 | 48 | 66.1 | 68.2 | 30.090 | 7.26 | 5.1 | 919 | 0.00 | 0.00 | 0.00 | 0.00 |
| 05/06/26 11:39:34 AM | 38 | 2.0 | 10.0 | 56 | 48 | 66.1 | 68.0 | 30.088 | 7.26 | 5.1 | 919 | 0.00 | 0.00 | 0.00 | 0.00 |
| 05/06/26 11:40:26 AM | 36 | 1.0 | 10.0 | 56 | 48 | 66.1 | 67.9 | 30.089 | 7.26 | 5.1 | 919 | 0.00 | 0.00 | 0.00 | 0.00 |
| 05/06/26 11:41:18 AM | 34 | 1.0 | 10.0 | 56 | 49 | 66.2 | 67.9 | 30.084 | 7.26 | 5.1 | 919 | 0.00 | 0.00 | 0.00 | 0.00 |
| 05/06/26 11:42:31 AM | 38 | 1.0 | 10.0 | 56 | 48 | 66.2 | 67.9 | 30.087 | 7.26 | 5.1 | 925 | 0.00 | 0.00 | 0.00 | 0.00 |
| 05/06/26 11:43:20 AM | 37 | 0.0 | 10.0 | 56 | 48 | 66.2 | 67.9 | 30.087 | 7.26 | 5.2 | 926 | 0.00 | 0.00 | 0.00 | 0.00 |
| 05/06/26 11:44:30 AM | 35 | 2.0 | 10.0 | 56 | 50 | 66.2 | 68.0 | 30.083 | 7.26 | 5.2 | 928 | 0.00 | 0.00 | 0.00 | 0.00 |
| 05/06/26 11:45:25 AM | 38 | 3.0 | 10.0 | 56 | 50 | 66.2 | 68.3 | 30.084 | 7.26 | 5.3 | 930 | 0.00 | 0.00 | 0.00 | 0.00 |
| 05/06/26 11:46:36 AM | 36 | 3.0 | 10.0 | 56 | 50 | 66.3 | 68.6 | 30.087 | 7.26 | 5.3 | 930 | 0.00 | 0.00 | 0.00 | 0.00 |
| 05/06/26 11:47:28 AM | 34 | 2.0 | 10.0 | 56 | 49 | 66.3 | 68.8 | 30.085 | 7.26 | 5.3 | 930 | 0.00 | 0.00 | 0.00 | 0.00 |
| 05/06/26 11:48:35 AM | 36 | 2.0 | 10.0 | 56 | 48 | 66.3 | 69.0 | 30.088 | 7.26 | 5.3 | 930 | 0.00 | 0.00 | 0.00 | 0.00 |
| 05/06/26 11:49:24 AM | 35 | 6.0 | 10.0 | 56 | 48 | 66.3 | 69.1 | 30.086 | 7.26 | 5.3 | 930 | 0.00 | 0.00 | 0.00 | 0.00 |
| 05/06/26 11:50:16 AM | 35 | 4.0 | 10.0 | 56 | 50 | 66.3 | 69.3 | 30.084 | 7.26 | 5.3 | 932 | 0.00 | 0.00 | 0.00 | 0.00 |
| 05/06/26 11:51:29 AM | 35 | 4.0 | 10.0 | 56 | 48 | 66.3 | 69.4 | 30.081 | 7.26 | 5.3 | 932 | 0.00 | 0.00 | 0.00 | 0.00 |
| 05/06/26 11:52:21 AM | 36 | 4.0 | 10.0 | 56 | 48 | 66.4 | 69.4 | 30.086 | 7.26 | 5.4 | 935 | 0.00 | 0.00 | 0.00 | 0.00 |
| 05/06/26 11:53:28 AM | 36 | 2.0 | 10.0 | 56 | 48 | 66.4 | 69.5 | 30.084 | 7.26 | 5.3 | 933 | 0.00 | 0.00 | 0.00 | 0.00 |
| 05/06/26 11:54:20 AM | 36 | 6.0 | 10.0 | 56 | 48 | 66.4 | 69.5 | 30.085 | 7.26 | 5.3 | 937 | 0.00 | 0.00 | 0.00 | 0.00 |
| 05/06/26 11:55:31 AM | 32 | 10.0 | 11.0 | 56 | 49 | 66.4 | 69.6 | 30.085 | 7.26 | 5.3 | 937 | 0.00 | 0.00 | 0.00 | 0.00 |
| 05/06/26 11:56:23 AM | 35 | 3.0 | 11.0 | 56 | 47 | 66.4 | 69.6 | 30.083 | 7.26 | 5.3 | 937 | 0.00 | 0.00 | 0.00 | 0.00 |
| 05/06/26 11:57:36 AM | 34 | 0.0 | 11.0 | 56 | 47 | 66.5 | 69.6 | 30.086 | 7.26 | 5.4 | 940 | 0.00 | 0.00 | 0.00 | 0.00 |
| 05/06/26 11:58:28 AM | 34 | 3.0 | 11.0 | 56 | 47 | 66.5 | 69.5 | 30.083 | 7.26 | 5.4 | 940 | 0.00 | 0.00 | 0.00 | 0.00 |
| 05/06/26 11:59:35 AM | 35 | 5.0 | 11.0 | 56 | 47 | 66.5 | 69.4 | 30.083 | 7.26 | 5.4 | 942 | 0.00 | 0.00 | 0.00 | 0.00 |
| 05/06/26 12:00:27 PM | 34 | 4.0 | 11.0 | 56 | 47 | 66.5 | 69.2 | 30.085 | 7.26 | 5.4 | 944 | 0.00 | 0.00 | 0.00 | 0.00 |
| 05/06/26 12:01:19 PM | 35 | 6.0 | 11.0 | 56 | 46 | 66.5 | 69.0 | 30.082 | 7.26 | 5.4 | 944 | 0.00 | 0.00 | 0.00 | 0.00 |
| 05/06/26 12:02:32 PM | 38 | 2.0 | 11.0 | 56 | 48 | 66.5 | 68.7 | 30.083 | 7.26 | 5.5 | 946 | 0.00 | 0.00 | 0.00 | 0.00 |
| 05/06/26 12:03:24 PM | 36 | 3.0 | 11.0 | 56 | 48 | 66.5 | 68.5 | 30.084 | 7.26 | 5.5 | 946 | 0.00 | 0.00 | 0.00 | 0.00 |
| 05/06/26 12:04:32 PM | 38 | 0.0 | 11.0 | 56 | 49 | 66.6 | 68.4 | 30.085 | 7.26 | 5.5 | 947 | 0.00 | 0.00 | 0.00 | 0.00 |
| 05/06/26 12:05:24 PM | 36 | 5.0 | 11.0 | 56 | 49 | 66.6 | 68.4 | 30.080 | 7.26 | 5.5 | 946 | 0.00 | 0.00 | 0.00 | 0.00 |
| 05/06/26 12:06:34 PM | 34 | 1.0 | 11.0 | 56 | 49 | 66.5 | 68.5 | 30.085 | 7.26 | 5.5 | 946 | 0.00 | 0.00 | 0.00 | 0.00 |
| 05/06/26 12:07:26 PM | 32 | 3.0 | 11.0 | 56 | 50 | 66.6 | 68.6 | 30.084 | 7.26 | 5.5 | 949 | 0.00 | 0.00 | 0.00 | 0.00 |
| 05/06/26 12:08:30 PM | 32 | 3.0 | 11.0 | 56 | 50 | 66.6 | 68.9 | 30.085 | 7.26 | 5.5 | 947 | 0.00 | 0.00 | 0.00 | 0.00 |
| 05/06/26 12:09:25 PM | 35 | 3.0 | 11.0 | 56 | 50 | 66.7 | 69.1 | 30.082 | 7.26 | 5.5 | 947 | 0.00 | 0.00 | 0.00 | 0.00 |
| 05/06/26 12:10:32 PM | 34 | 1.0 | 11.0 | 56 | 51 | 66.7 | 69.3 | 30.083 | 7.26 | 5.5 | 951 | 0.00 | 0.00 | 0.00 | 0.00 |
| 05/06/26 12:11:25 PM | 36 | 1.0 | 11.0 | 56 | 50 | 66.6 | 69.5 | 30.082 | 7.26 | 5.6 | 951 | 0.00 | 0.00 | 0.00 | 0.00 |
| 05/06/26 12:12:17 PM | 36 | 0.0 | 11.0 | 56 | 49 | 66.7 | 69.7 | 30.082 | 7.26 | 5.6 | 949 | 0.00 | 0.00 | 0.00 | 0.00 |
| 05/06/26 12:13:27 PM | 36 | 1.0 | 11.0 | 56 | 48 | 66.7 | 70.1 | 30.079 | 7.26 | 5.6 | 963 | 0.00 | 0.00 | 0.00 | 0.00 |
| 05/06/26 12:14:19 PM | 35 | 2.0 | 11.0 | 56 | 48 | 66.7 | 70.3 | 30.082 | 7.26 | 5.7 | 976 | 0.00 | 0.00 | 0.00 | 0.00 |
| 05/06/26 12:15:50 PM | 35 | 3.0 | 11.0 | 56 | 48 | 66.8 | 70.5 | 30.081 | 7.26 | 5.7 | 981 | 0.00 | 0.00 | 0.00 | 0.00 |
| 05/06/26 12:16:21 PM | 34 | 0.0 | 11.0 | 56 | 46 | 66.8 | 70.5 | 30.082 | 7.26 | 5.7 | 976 | 0.00 | 0.00 | 0.00 | 0.00 |
| 05/06/26 12:17:34 PM | 32 | 3.0 | 11.0 | 56 | 47 | 66.8 | 70.7 | 30.081 | 7.26 | 5.7 | 969 | 0.00 | 0.00 | 0.00 | 0.00 |
| 05/06/26 12:18:26 PM | 38 | 6.0 | 11.0 | 56 | 47 | 66.8 | 70.8 | 30.079 | 7.26 | 5.7 | 960 | 0.00 | 0.00 | 0.00 | 0.00 |
| 05/06/26 12:19:16 PM | 36 | 6.0 | 11.0 | 56 | 48 | 66.9 | 70.9 | 30.078 | 7.26 | 5.7 | 958 | 0.00 | 0.00 | 0.00 | 0.00 |
| 05/06/26 12:20:29 PM | 35 | 5.0 | 11.0 | 56 | 47 | 66.9 | 71.0 | 30.078 | 7.26 | 5.7 | 958 | 0.00 | 0.00 | 0.00 | 0.00 |
| 05/06/26 12:21:36 PM | 34 | 5.0 | 11.0 | 56 | 46 | 66.9 | 70.9 | 30.081 | 7.26 | 5.7 | 954 | 0.00 | 0.00 | 0.00 | 0.00 |
| 05/06/26 12:22:28 PM | 34 | 5.0 | 11.0 | 56 | 46 | 67.0 | 70.8 | 30.077 | 7.26 | 5.6 | 958 | 0.00 | 0.00 | 0.00 | 0.00 |
| 05/06/26 12:23:20 PM | 36 | 7.0 | 11.0 | 56 | 45 | 67.0 | 70.6 | 30.076 | 7.26 | 5.6 | 956 | 0.00 | 0.00 | 0.00 | 0.00 |
| 05/06/26 12:24:34 PM | 38 | 3.0 | 11.0 | 56 | 45 | 67.0 | 70.4 | 30.076 | 7.26 | 5.6 | 960 | 0.00 | 0.00 | 0.00 | 0.00 |
| 05/06/26 12:25:23 PM | 35 | 3.0 | 11.0 | 56 | 46 | 67.1 | 70.3 | 30.080 | 7.26 | 5.6 | 960 | 0.00 | 0.00 | 0.00 | 0.00 |
| 05/06/26 12:26:33 PM | 35 | 5.0 | 11.0 | 56 | 47 | 67.1 | 70.2 | 30.078 | 7.26 | 5.7 | 963 | 0.00 | 0.00 | 0.00 | 0.00 |
| 05/06/26 12:27:25 PM | 35 | 3.0 | 11.0 | 56 | 47 | 67.1 | 70.2 | 30.077 | 7.26 | 5.7 | 969 | 0.00 | 0.00 | 0.00 | 0.00 |
| 05/06/26 12:28:35 PM | 36 | 4.0 | 11.0 | 56 | 46 | 67.1 | 70.1 | 30.075 | 7.26 | 5.7 | 969 | 0.00 | 0.00 | 0.00 | 0.00 |
| 05/06/26 12:29:27 PM | 30 | 3.0 | 11.0 | 56 | 46 | 67.1 | 70.1 | 30.077 | 7.26 | 5.7 | 967 | 0.00 | 0.00 | 0.00 | 0.00 |
| 05/06/26 12:30:19 PM | 38 | 1.0 | 11.0 | 56 | 46 | 67.1 | 69.9 | 30.078 | 7.26 | 5.7 | 962 | 0.00 | 0.00 | 0.00 | 0.00 |
| 05/06/26 12:31:26 PM | 36 | 3.0 | 11.0 | 56 | 47 | 67.1 | 69.8 | 30.076 | 7.26 | 5.7 | 962 | 0.00 | 0.00 | 0.00 | 0.00 |
| 05/06/26 12:32:18 PM | 36 | 4.0 | 11.0 | 56 | 48 | 67.2 | 69.9 | 30.077 | 7.26 | 5.7 | 962 | 0.00 | 0.00 | 0.00 | 0.00 |
| 05/06/26 12:33:29 PM | 38 | 5.0 | 11.0 | 56 | 49 | 67.2 | 70.0 | 30.078 | 7.26 | 5.7 | 962 | 0.00 | 0.00 | 0.00 | 0.00 |
| 05/06/26 12:34:24 PM | 38 | 2.0 | 11.0 | 56 | 47 | 67.2 | 70.1 | 30.076 | 7.26 | 5.7 | 962 | 0.00 | 0.00 | 0.00 | 0.00 |
| 05/06/26 12:35:34 PM | 38 | 2.0 | 11.0 | 56 | 47 | 67.2 | 70.2 | 30.077 | 7.26 | 5.7 | 960 | 0.00 | 0.00 | 0.00 | 0.00 |
| 05/06/26 12:36:26 PM | 37 | 2.0 | 11.0 | 56 | 47 | 67.3 | 70.3 | 30.075 | 7.26 | 5.7 | 962 | 0.00 | 0.00 | 0.00 | 0.00 |
| 05/06/26 12:37:33 PM | 35 | 3.0 | 11.0 | 56 | 46 | 67.3 | 70.3 | 30.076 | 7.26 | 5.7 | 962 | 0.00 | 0.00 | 0.00 | 0.00 |
| 05/06/26 12:38:25 PM | 38 | 4.0 | 11.0 | 56 | 46 | 67.3 | 70.3 | 30.075 | 7.26 | 5.7 | 962 | 0.00 | 0.00 | 0.00 | 0.00 |
| 05/06/26 12:39:17 PM | 30 | 1.0 | 11.0 | 56 | 47 | 67.3 | 70.3 | 30.075 | 7.26 | 5.7 | 962 | 0.00 | 0.00 | 0.00 | 0.00 |
| 05/06/26 12:40:28 PM | 35 | 1.0 | 11.0 | 56 | 46 | 67.3 | 70.4 | 30.074 | 7.26 | 5.7 | 962 | 0.00 | 0.00 | 0.00 | 0.00 |
| 05/06/26 12:41:23 PM | 37 | 2.0 | 11.0 | 56 | 46 | 67.3 | 70.5 | 30.073 | 7.26 | 5.7 | 963 | 0.00 | 0.00 | 0.00 | 0.00 |
| 05/06/26 12:42:30 PM | 36 | 3.0 | 11.0 | 56 | 46 | 67.3 | 70.5 | 30.074 | 7.26 | 5.7 | 963 | 0.00 | 0.00 | 0.00 | 0.00 |
| 05/06/26 12:43:19 PM | 32 | 3.0 | 11.0 | 56 | 46 | 67.3 | 70.5 | 30.072 | 7.26 | 5.7 | 965 | 0.00 | 0.00 | 0.00 | 0.00 |
| 05/06/26 12:44:32 PM | 34 | 2.0 | 11.0 | 56 | 46 | 67.3 | 70.5 | 30.071 | 7.26 | 5.7 | 963 | 0.00 | 0.00 | 0.00 | 0.00 |
| 05/06/26 12:45:27 PM | 36 | 2.0 | 11.0 | 56 | 47 | 67.4 | 70.5 | 30.070 | 7.26 | 5.7 | 963 | 0.00 | 0.00 | 0.00 | 0.00 |
| 05/06/26 12:46:20 PM | 36 | 3.0 | 11.0 | 56 | 47 | 67.4 | 70.4 | 30.071 | 7.26 | 5.7 | 963 | 0.00 | 0.00 | 0.00 | 0.00 |
| 05/06/26 12:47:27 PM | 34 | 2.0 | 11.0 | 56 | 46 | 67.4 | 70.4 | 30.072 | 7.26 | 5.7 | 965 | 0.00 | 0.00 | 0.00 | 0.00 |
| 05/06/26 12:48:19 PM | 35 | 3.0 | 11.0 | 56 | 46 | 67.4 | 70.4 | 30.073 | 7.26 | 5.7 | 962 | 0.00 | 0.00 | 0.00 | 0.00 |
| 05/06/26 12:49:29 PM | 35 | 1.0 | 11.0 | 56 | 46 | 67.4 | 70.5 | 30.070 | 7.26 | 5.7 | 962 | 0.00 | 0.00 | 0.00 | 0.00 |
| 05/06/26 12:50:21 PM | 37 | 3.0 | 11.0 | 56 | 46 | 67.4 | 70.6 | 30.069 | 7.26 | 5.8 | 963 | 0.00 | 0.00 | 0.00 | 0.00 |
| 05/06/26 12:51:35 PM | 32 | 1.0 | 11.0 | 56 | 46 | 67.4 | 70.8 | 30.070 | 7.26 | 5.7 | 962 | 0.00 | 0.00 | 0.00 | 0.00 |
| 05/06/26 12:52:27 PM | 32 | 3.0 | 11.0 | 56 | 45 | 67.5 | 70.8 | 30.070 | 7.26 | 5.7 | 962 | 0.00 | 0.00 | 0.00 | 0.00 |
| 05/06/26 12:53:34 PM | 35 | 4.0 | 11.0 | 56 | 46 | 67.5 | 71.1 | 30.070 | 7.26 | 5.8 | 965 | 0.00 | 0.00 | 0.00 | 0.00 |
| 05/06/26 12:54:26 PM | 36 | 4.0 | 11.0 | 56 | 45 | 67.5 | 71.2 | 30.070 | 7.26 | 5.8 | 965 | 0.00 | 0.00 | 0.00 | 0.00 |
| 05/06/26 12:55:18 PM | 37 | 3.0 | 11.0 | 56 | 45 | 67.5 | 71.3 | 30.069 | 7.26 | 5.8 | 965 | 0.00 | 0.00 | 0.00 | 0.00 |
| 05/06/26 12:56:31 PM | 35 | 3.0 | 11.0 | 56 | 45 | 67.6 | 71.4 | 30.071 | 7.26 | 5.7 | 967 | 0.00 | 0.00 | 0.00 | 0.00 |
| 05/06/26 12:57:24 PM | 36 | 1.0 | 11.0 | 56 | 45 | 67.6 | 71.6 | 30.068 | 7.26 | 5.7 | 965 | 0.00 | 0.00 | 0.00 | 0.00 |
| 05/06/26 12:58:31 PM | 36 | 2.0 | 11.0 | 56 | 46 | 67.6 | 71.8 | 30.067 | 7.26 | 5.7 | 963 | 0.00 | 0.00 | 0.00 | 0.00 |
| 05/06/26 12:59:23 PM | 35 | 4.0 | 11.0 | 56 | 47 | 67.6 | 72.1 | 30.064 | 7.26 | 5.7 | 965 | 0.00 | 0.00 | 0.00 | 0.00 |
| 05/06/26 1:00:39 PM | 36 | 6.0 | 11.0 | 56 | 47 | 67.7 | 72.3 | 30.063 | 7.26 | 5.7 | 963 | 0.00 | 0.00 | 0.00 | 0.00 |
| 05/06/26 1:01:28 PM | 35 | 3.0 | 11.0 | 56 | 45 | 67.7 | 72.5 | 30.063 | 7.26 | 5.7 | 965 | 0.00 | 0.00 | 0.00 | 0.00 |
| 05/06/26 1:02:20 PM | 36 | 4.0 | 11.0 | 56 | 44 | 67.7 | 72.5 | 30.061 | 7.26 | 5.7 | 963 | 0.00 | 0.00 | 0.00 | 0.00 |
| 05/06/26 1:03:30 PM | 32 | 3.0 | 11.0 | 56 | 44 | 67.8 | 72.6 | 30.061 | 7.26 | 5.7 | 962 | 0.00 | 0.00 | 0.00 | 0.00 |
| 05/06/26 1:04:20 PM | 35 | 5.0 | 11.0 | 56 | 44 | 67.8 | 72.5 | 30.061 | 7.26 | 5.7 | 962 | 0.00 | 0.00 | 0.00 | 0.00 |
| 05/06/26 1:05:30 PM | 36 | 5.0 | 11.0 | 56 | 46 | 67.8 | 72.6 | 30.061 | 7.26 | 5.6 | 962 | 0.00 | 0.00 | 0.00 | 0.00 |
| 05/06/26 1:06:22 PM | 32 | 4.0 | 11.0 | 56 | 46 | 67.8 | 72.6 | 30.060 | 7.26 | 5.6 | 956 | 0.00 | 0.00 | 0.00 | 0.00 |
| 05/06/26 1:07:35 PM | 38 | 3.0 | 11.0 | 56 | 44 | 67.8 | 72.7 | 30.060 | 7.26 | 5.6 | 958 | 0.00 | 0.00 | 0.00 | 0.00 |
| 05/06/26 1:08:27 PM | 35 | 4.0 | 11.0 | 56 | 45 | 67.9 | 72.8 | 30.060 | 7.26 | 5.6 | 958 | 0.00 | 0.00 | 0.00 | 0.00 |
| 05/06/26 1:09:34 PM | 39 | 5.0 | 11.0 | 56 | 45 | 67.9 | 72.9 | 30.056 | 7.26 | 5.7 | 960 | 0.00 | 0.00 | 0.00 | 0.00 |
| 05/06/26 1:10:27 PM | 38 | 9.0 | 11.0 | 56 | 45 | 67.9 | 72.9 | 30.057 | 7.26 | 5.6 | 960 | 0.00 | 0.00 | 0.00 | 0.00 |
| 05/06/26 1:11:16 PM | 36 | 11.0 | 12.0 | 56 | 46 | 67.9 | 72.9 | 30.058 | 7.26 | 5.6 | 960 | 0.00 | 0.00 | 0.00 | 0.00 |
| 05/06/26 1:12:29 PM | 32 | 5.0 | 12.0 | 56 | 46 | 67.9 | 73.0 | 30.058 | 7.26 | 5.6 | 962 | 0.00 | 0.00 | 0.00 | 0.00 |
| 05/06/26 1:13:21 PM | 38 | 2.0 | 12.0 | 56 | 44 | 67.9 | 73.0 | 30.056 | 7.26 | 5.6 | 960 | 0.00 | 0.00 | 0.00 | 0.00 |
| 05/06/26 1:14:28 PM | 38 | 2.0 | 12.0 | 56 | 45 | 67.9 | 73.0 | 30.058 | 7.26 | 5.6 | 962 | 0.00 | 0.00 | 0.00 | 0.00 |
| 05/06/26 1:15:45 PM | 35 | 1.0 | 12.0 | 56 | 44 | 68.0 | 73.0 | 30.058 | 7.26 | 5.6 | 958 | 0.00 | 0.00 | 0.00 | 0.00 |
| 05/06/26 1:16:34 PM | 37 | 5.0 | 12.0 | 56 | 44 | 68.0 | 73.1 | 30.054 | 7.26 | 5.6 | 958 | 0.00 | 0.00 | 0.00 | 0.00 |
| 05/06/26 1:17:26 PM | 36 | 0.0 | 12.0 | 56 | 45 | 68.1 | 73.2 | 30.054 | 7.26 | 5.6 | 960 | 0.00 | 0.00 | 0.00 | 0.00 |
| 05/06/26 1:18:21 PM | 36 | 5.0 | 12.0 | 56 | 44 | 68.0 | 73.3 | 30.051 | 7.26 | 5.7 | 960 | 0.00 | 0.00 | 0.00 | 0.00 |
| 05/06/26 1:19:31 PM | 38 | 4.0 | 12.0 | 56 | 44 | 68.1 | 73.3 | 30.053 | 7.26 | 5.6 | 960 | 0.00 | 0.00 | 0.00 | 0.00 |
| 05/06/26 1:20:17 PM | 32 | 4.0 | 12.0 | 56 | 44 | 68.1 | 73.4 | 30.054 | 7.26 | 5.7 | 960 | 0.00 | 0.00 | 0.00 | 0.00 |
| 05/06/26 1:21:30 PM | 38 | 4.0 | 12.0 | 56 | 44 | 68.1 | 73.5 | 30.054 | 7.26 | 5.6 | 958 | 0.00 | 0.00 | 0.00 | 0.00 |
| 05/06/26 1:22:23 PM | 38 | 6.0 | 12.0 | 56 | 44 | 68.1 | 73.6 | 30.055 | 7.26 | 5.6 | 956 | 0.00 | 0.00 | 0.00 | 0.00 |
| 05/06/26 1:23:36 PM | 35 | 4.0 | 12.0 | 56 | 43 | 68.1 | 73.6 | 30.053 | 7.26 | 5.6 | 958 | 0.00 | 0.00 | 0.00 | 0.00 |
| 05/06/26 1:24:28 PM | 38 | 5.0 | 12.0 | 56 | 43 | 68.1 | 73.6 | 30.050 | 7.26 | 5.6 | 956 | 0.00 | 0.00 | 0.00 | 0.00 |
| 05/06/26 1:25:17 PM | 38 | 3.0 | 12.0 | 56 | 44 | 68.1 | 73.6 | 30.049 | 7.26 | 5.6 | 953 | 0.00 | 0.00 | 0.00 | 0.00 |
| 05/06/26 1:26:27 PM | 38 | 2.0 | 12.0 | 56 | 44 | 68.2 | 73.6 | 30.048 | 7.26 | 5.6 | 951 | 0.00 | 0.00 | 0.00 | 0.00 |
| 05/06/26 1:27:19 PM | 35 | 1.0 | 12.0 | 56 | 42 | 68.2 | 73.6 | 30.051 | 7.26 | 5.6 | 951 | 0.00 | 0.00 | 0.00 | 0.00 |
| 05/06/26 1:28:30 PM | 37 | 0.0 | 12.0 | 56 | 42 | 68.2 | 73.6 | 30.048 | 7.26 | 5.6 | 951 | 0.00 | 0.00 | 0.00 | 0.00 |
| 05/06/26 1:29:25 PM | 36 | 0.0 | 12.0 | 56 | 42 | 68.2 | 73.6 | 30.048 | 7.26 | 5.6 | 947 | 0.00 | 0.00 | 0.00 | 0.00 |
| 05/06/26 1:30:38 PM | 37 | 3.0 | 12.0 | 56 | 43 | 68.3 | 73.7 | 30.048 | 7.26 | 5.6 | 947 | 0.00 | 0.00 | 0.00 | 0.00 |
| 05/06/26 1:31:24 PM | 35 | 5.0 | 12.0 | 56 | 44 | 68.3 | 73.9 | 30.049 | 7.26 | 5.5 | 947 | 0.00 | 0.00 | 0.00 | 0.00 |
| 05/06/26 1:32:34 PM | 34 | 5.0 | 12.0 | 56 | 45 | 68.3 | 74.1 | 30.047 | 7.26 | 5.5 | 946 | 0.00 | 0.00 | 0.00 | 0.00 |
| 05/06/26 1:33:26 PM | 39 | 2.0 | 12.0 | 56 | 43 | 68.3 | 74.2 | 30.049 | 7.26 | 5.5 | 946 | 0.00 | 0.00 | 0.00 | 0.00 |
| 05/06/26 1:34:19 PM | 38 | 1.0 | 12.0 | 56 | 43 | 68.3 | 74.3 | 30.048 | 7.26 | 5.5 | 946 | 0.00 | 0.00 | 0.00 | 0.00 |
| 05/06/26 1:35:32 PM | 35 | 2.0 | 12.0 | 56 | 43 | 68.4 | 74.5 | 30.047 | 7.26 | 5.5 | 946 | 0.00 | 0.00 | 0.00 | 0.00 |
| 05/06/26 1:36:21 PM | 38 | 2.0 | 12.0 | 56 | 43 | 68.4 | 74.6 | 30.045 | 7.26 | 5.5 | 951 | 0.00 | 0.00 | 0.00 | 0.00 |
| 05/06/26 1:37:31 PM | 36 | 3.0 | 12.0 | 56 | 41 | 68.4 | 74.6 | 30.047 | 7.26 | 5.5 | 942 | 0.00 | 0.00 | 0.00 | 0.00 |
| 05/06/26 1:38:26 PM | 37 | 3.0 | 12.0 | 56 | 41 | 68.4 | 74.6 | 30.048 | 7.26 | 5.5 | 946 | 0.00 | 0.00 | 0.00 | 0.00 |
| 05/06/26 1:39:15 PM | 36 | 3.0 | 12.0 | 56 | 41 | 68.4 | 74.4 | 30.047 | 7.26 | 5.5 | 946 | 0.00 | 0.00 | 0.00 | 0.00 |
| 05/06/26 1:40:29 PM | 38 | 1.0 | 12.0 | 56 | 41 | 68.5 | 74.3 | 30.048 | 7.26 | 5.5 | 946 | 0.00 | 0.00 | 0.00 | 0.00 |
| 05/06/26 1:41:21 PM | 36 | 3.0 | 12.0 | 56 | 42 | 68.5 | 74.2 | 30.047 | 7.26 | 5.5 | 942 | 0.00 | 0.00 | 0.00 | 0.00 |
| 05/06/26 1:42:28 PM | 37 | 7.0 | 12.0 | 56 | 43 | 68.6 | 74.1 | 30.048 | 7.26 | 5.5 | 935 | 0.00 | 0.00 | 0.00 | 0.00 |
| 05/06/26 1:43:20 PM | 38 | 6.0 | 12.0 | 56 | 42 | 68.6 | 74.1 | 30.047 | 7.26 | 5.4 | 937 | 0.00 | 0.00 | 0.00 | 0.00 |
| 05/06/26 1:44:30 PM | 34 | 2.0 | 12.0 | 56 | 42 | 68.6 | 74.2 | 30.050 | 7.26 | 5.4 | 937 | 0.00 | 0.00 | 0.00 | 0.00 |
| 05/06/26 1:45:43 PM | 36 | 6.0 | 12.0 | 56 | 42 | 68.6 | 74.3 | 30.047 | 7.26 | 5.4 | 935 | 0.00 | 0.00 | 0.00 | 0.00 |
| 05/06/26 1:46:36 PM | 32 | 9.0 | 12.0 | 56 | 42 | 68.7 | 74.4 | 30.048 | 7.26 | 5.3 | 933 | 0.00 | 0.00 | 0.00 | 0.00 |
| 05/06/26 1:47:25 PM | 35 | 5.0 | 12.0 | 56 | 42 | 68.7 | 74.4 | 30.046 | 7.26 | 5.3 | 933 | 0.00 | 0.00 | 0.00 | 0.00 |
| 05/06/26 1:48:35 PM | 35 | 5.0 | 12.0 | 56 | 42 | 68.7 | 74.4 | 30.047 | 7.26 | 5.3 | 933 | 0.00 | 0.00 | 0.00 | 0.00 |
| 05/06/26 1:49:27 PM | 32 | 4.0 | 12.0 | 56 | 42 | 68.7 | 74.3 | 30.048 | 7.26 | 5.3 | 932 | 0.00 | 0.00 | 0.00 | 0.00 |
| 05/06/26 1:50:19 PM | 38 | 0.0 | 12.0 | 56 | 42 | 68.7 | 74.3 | 30.046 | 7.26 | 5.3 | 932 | 0.00 | 0.00 | 0.00 | 0.00 |
| 05/06/26 1:51:32 PM | 32 | 2.0 | 12.0 | 56 | 42 | 68.8 | 74.2 | 30.046 | 7.26 | 5.3 | 932 | 0.00 | 0.00 | 0.00 | 0.00 |
| 05/06/26 1:52:24 PM | 38 | 1.0 | 12.0 | 56 | 43 | 68.7 | 74.3 | 30.046 | 7.26 | 5.3 | 930 | 0.00 | 0.00 | 0.00 | 0.00 |
| 05/06/26 1:53:32 PM | 34 | 5.0 | 12.0 | 56 | 44 | 68.8 | 74.5 | 30.044 | 7.26 | 5.3 | 926 | 0.00 | 0.00 | 0.00 | 0.00 |
| 05/06/26 1:54:27 PM | 38 | 5.0 | 12.0 | 56 | 42 | 68.8 | 74.6 | 30.045 | 7.26 | 5.3 | 928 | 0.00 | 0.00 | 0.00 | 0.00 |
| 05/06/26 1:55:19 PM | 38 | 4.0 | 12.0 | 56 | 43 | 68.8 | 74.7 | 30.047 | 7.26 | 5.3 | 926 | 0.00 | 0.00 | 0.00 | 0.00 |
| 05/06/26 1:56:32 PM | 34 | 9.0 | 12.0 | 56 | 44 | 68.9 | 74.9 | 30.046 | 7.26 | 5.2 | 925 | 0.00 | 0.00 | 0.00 | 0.00 |
| 05/06/26 1:57:24 PM | 32 | 4.0 | 12.0 | 56 | 43 | 68.8 | 75.0 | 30.044 | 7.26 | 5.2 | 925 | 0.00 | 0.00 | 0.00 | 0.00 |
| 05/06/26 1:58:35 PM | 32 | 3.0 | 12.0 | 56 | 42 | 68.8 | 75.0 | 30.041 | 7.26 | 5.2 | 921 | 0.00 | 0.00 | 0.00 | 0.00 |
| 05/06/26 1:59:24 PM | 35 | 1.0 | 12.0 | 56 | 41 | 68.8 | 75.0 | 30.041 | 7.26 | 5.1 | 921 | 0.00 | 0.00 | 0.00 | 0.00 |
| 05/06/26 2:00:19 PM | 32 | 3.0 | 12.0 | 56 | 41 | 68.9 | 75.1 | 30.042 | 7.26 | 5.1 | 923 | 0.00 | 0.00 | 0.00 | 0.00 |
| 05/06/26 2:01:29 PM | 35 | 2.0 | 12.0 | 56 | 41 | 68.9 | 75.0 | 30.042 | 7.26 | 5.2 | 923 | 0.00 | 0.00 | 0.00 | 0.00 |
| 05/06/26 2:02:21 PM | 34 | 1.0 | 12.0 | 56 | 40 | 68.9 | 74.9 | 30.043 | 7.26 | 5.1 | 921 | 0.00 | 0.00 | 0.00 | 0.00 |
| 05/06/26 2:03:28 PM | 32 | 4.0 | 12.0 | 56 | 40 | 69.0 | 74.8 | 30.041 | 7.26 | 5.1 | 919 | 0.00 | 0.00 | 0.00 | 0.00 |
| 05/06/26 2:04:21 PM | 38 | 3.0 | 12.0 | 56 | 41 | 69.0 | 74.9 | 30.042 | 7.26 | 5.1 | 919 | 0.00 | 0.00 | 0.00 | 0.00 |
| 05/06/26 2:05:34 PM | 35 | 3.0 | 12.0 | 56 | 41 | 69.0 | 74.9 | 30.042 | 7.26 | 5.1 | 919 | 0.00 | 0.00 | 0.00 | 0.00 |
| 05/06/26 2:06:26 PM | 37 | 5.0 | 12.0 | 56 | 41 | 69.1 | 75.0 | 30.040 | 7.26 | 5.1 | 914 | 0.00 | 0.00 | 0.00 | 0.00 |
| 05/06/26 2:07:36 PM | 38 | 4.0 | 12.0 | 56 | 40 | 69.0 | 75.0 | 30.040 | 7.26 | 5.1 | 916 | 0.00 | 0.00 | 0.00 | 0.00 |
| 05/06/26 2:08:40 PM | 36 | 3.0 | 12.0 | 56 | 40 | 69.1 | 74.9 | 30.040 | 7.26 | 5.0 | 911 | 0.00 | 0.00 | 0.00 | 0.00 |
| 05/06/26 2:09:30 PM | 38 | 3.0 | 12.0 | 56 | 40 | 69.1 | 74.8 | 30.041 | 7.26 | 5.0 | 911 | 0.00 | 0.00 | 0.00 | 0.00 |
| 05/06/26 2:10:22 PM | 38 | 7.0 | 12.0 | 56 | 41 | 69.1 | 74.8 | 30.039 | 7.26 | 5.0 | 911 | 0.00 | 0.00 | 0.00 | 0.00 |
| 05/06/26 2:11:32 PM | 38 | 1.0 | 12.0 | 56 | 40 | 69.1 | 74.8 | 30.039 | 7.26 | 5.0 | 909 | 0.00 | 0.00 | 0.00 | 0.00 |
| 05/06/26 2:12:24 PM | 36 | 5.0 | 12.0 | 56 | 41 | 69.1 | 74.8 | 30.038 | 7.26 | 4.9 | 907 | 0.00 | 0.00 | 0.00 | 0.00 |
| 05/06/26 2:13:34 PM | 37 | 6.0 | 12.0 | 56 | 41 | 69.1 | 74.9 | 30.037 | 7.26 | 4.9 | 905 | 0.00 | 0.00 | 0.00 | 0.00 |
| 05/06/26 2:14:23 PM | 36 | 2.0 | 12.0 | 56 | 41 | 69.2 | 74.9 | 30.036 | 7.26 | 4.9 | 905 | 0.00 | 0.00 | 0.00 | 0.00 |
| 05/06/26 2:15:37 PM | 34 | 5.0 | 12.0 | 56 | 42 | 69.2 | 74.9 | 30.037 | 7.26 | 4.9 | 904 | 0.00 | 0.00 | 0.00 | 0.00 |
| 05/06/26 2:16:26 PM | 38 | 7.0 | 12.0 | 56 | 41 | 69.3 | 74.9 | 30.036 | 7.26 | 4.8 | 896 | 0.00 | 0.00 | 0.00 | 0.00 |
| 05/06/26 2:17:18 PM | 34 | 8.0 | 12.0 | 56 | 41 | 69.3 | 74.9 | 30.036 | 7.26 | 4.8 | 900 | 0.00 | 0.00 | 0.00 | 0.00 |
| 05/06/26 2:18:31 PM | 35 | 6.0 | 12.0 | 56 | 40 | 69.3 | 74.8 | 30.035 | 7.26 | 4.8 | 900 | 0.00 | 0.00 | 0.00 | 0.00 |
| 05/06/26 2:19:23 PM | 32 | 8.0 | 12.0 | 56 | 43 | 69.3 | 74.8 | 30.034 | 7.26 | 4.8 | 900 | 0.00 | 0.00 | 0.00 | 0.00 |
| 05/06/26 2:20:31 PM | 35 | 5.0 | 12.0 | 56 | 41 | 69.4 | 74.6 | 30.035 | 7.26 | 4.8 | 895 | 0.00 | 0.00 | 0.00 | 0.00 |
| 05/06/26 2:21:20 PM | 32 | 6.0 | 12.0 | 56 | 41 | 69.4 | 74.5 | 30.035 | 7.26 | 4.7 | 891 | 0.00 | 0.00 | 0.00 | 0.00 |
| 05/06/26 2:22:33 PM | 35 | 5.0 | 12.0 | 56 | 41 | 69.4 | 74.3 | 30.033 | 7.26 | 4.7 | 888 | 0.00 | 0.00 | 0.00 | 0.00 |
| 05/06/26 2:23:22 PM | 34 | 3.0 | 12.0 | 56 | 41 | 69.4 | 74.2 | 30.034 | 7.26 | 4.7 | 889 | 0.00 | 0.00 | 0.00 | 0.00 |
| 05/06/26 2:24:35 PM | 35 | 5.0 | 12.0 | 56 | 42 | 69.4 | 74.1 | 30.033 | 7.26 | 4.7 | 888 | 0.00 | 0.00 | 0.00 | 0.00 |
| 05/06/26 2:25:21 PM | 36 | 4.0 | 12.0 | 56 | 42 | 69.4 | 74.1 | 30.031 | 7.26 | 4.7 | 888 | 0.00 | 0.00 | 0.00 | 0.00 |
| 05/06/26 2:26:35 PM | 32 | 3.0 | 12.0 | 56 | 42 | 69.5 | 74.1 | 30.030 | 7.26 | 4.7 | 886 | 0.00 | 0.00 | 0.00 | 0.00 |
| 05/06/26 2:27:27 PM | 38 | 2.0 | 12.0 | 56 | 42 | 69.5 | 74.1 | 30.031 | 7.26 | 4.7 | 882 | 0.00 | 0.00 | 0.00 | 0.00 |
| 05/06/26 2:28:19 PM | 35 | 3.0 | 12.0 | 56 | 43 | 69.5 | 74.2 | 30.030 | 7.26 | 4.7 | 881 | 0.00 | 0.00 | 0.00 | 0.00 |
| 05/06/26 2:29:29 PM | 38 | 4.0 | 12.0 | 56 | 42 | 69.5 | 74.4 | 30.032 | 7.26 | 4.7 | 881 | 0.00 | 0.00 | 0.00 | 0.00 |
| 05/06/26 2:30:21 PM | 38 | 7.0 | 12.0 | 56 | 42 | 69.5 | 74.5 | 30.031 | 7.26 | 4.7 | 882 | 0.00 | 0.00 | 0.00 | 0.00 |
| 05/06/26 2:31:29 PM | 36 | 5.0 | 12.0 | 56 | 43 | 69.5 | 74.7 | 30.029 | 7.26 | 4.6 | 879 | 0.00 | 0.00 | 0.00 | 0.00 |
| 05/06/26 2:32:21 PM | 34 | 6.0 | 12.0 | 56 | 42 | 69.5 | 74.8 | 30.031 | 7.26 | 4.6 | 875 | 0.00 | 0.00 | 0.00 | 0.00 |
| 05/06/26 2:33:34 PM | 31 | 4.0 | 12.0 | 56 | 42 | 69.6 | 74.8 | 30.030 | 7.26 | 4.5 | 875 | 0.00 | 0.00 | 0.00 | 0.00 |
| 05/06/26 2:34:26 PM | 38 | 5.0 | 12.0 | 56 | 42 | 69.6 | 74.9 | 30.029 | 7.26 | 4.5 | 868 | 0.00 | 0.00 | 0.00 | 0.00 |
| 05/06/26 2:35:19 PM | 35 | 7.0 | 12.0 | 56 | 42 | 69.6 | 75.0 | 30.027 | 7.26 | 4.5 | 865 | 0.00 | 0.00 | 0.00 | 0.00 |
| 05/06/26 2:36:26 PM | 34 | 5.0 | 12.0 | 56 | 42 | 69.6 | 75.1 | 30.025 | 7.26 | 4.5 | 868 | 0.00 | 0.00 | 0.00 | 0.00 |
| 05/06/26 2:37:18 PM | 35 | 6.0 | 12.0 | 56 | 41 | 69.7 | 75.2 | 30.027 | 7.26 | 4.5 | 867 | 0.00 | 0.00 | 0.00 | 0.00 |
| 05/06/26 2:38:28 PM | 35 | 1.0 | 12.0 | 56 | 41 | 69.7 | 75.2 | 30.027 | 7.26 | 4.5 | 865 | 0.00 | 0.00 | 0.00 | 0.00 |
| 05/06/26 2:39:20 PM | 38 | 2.0 | 12.0 | 56 | 40 | 69.8 | 75.2 | 30.027 | 7.26 | 4.5 | 865 | 0.00 | 0.00 | 0.00 | 0.00 |
| 05/06/26 2:40:34 PM | 38 | 1.0 | 12.0 | 56 | 41 | 69.8 | 75.2 | 30.024 | 7.26 | 4.4 | 863 | 0.00 | 0.00 | 0.00 | 0.00 |
| 05/06/26 2:41:20 PM | 35 | 3.0 | 12.0 | 56 | 40 | 69.8 | 75.3 | 30.023 | 7.26 | 4.4 | 863 | 0.00 | 0.00 | 0.00 | 0.00 |
| 05/06/26 2:42:33 PM | 35 | 4.0 | 12.0 | 56 | 43 | 69.9 | 75.4 | 30.026 | 7.26 | 4.3 | 854 | 0.00 | 0.00 | 0.00 | 0.00 |
| 05/06/26 2:43:25 PM | 30 | 5.0 | 12.0 | 56 | 42 | 69.8 | 75.5 | 30.022 | 7.26 | 4.3 | 851 | 0.00 | 0.00 | 0.00 | 0.00 |
| 05/06/26 2:44:17 PM | 32 | 4.0 | 12.0 | 56 | 42 | 69.9 | 75.6 | 30.020 | 7.26 | 4.3 | 851 | 0.00 | 0.00 | 0.00 | 0.00 |
| 05/06/26 2:45:55 PM | 32 | 6.0 | 12.0 | 56 | 42 | 69.9 | 75.8 | 30.023 | 7.26 | 4.3 | 849 | 0.00 | 0.00 | 0.00 | 0.00 |
| 05/06/26 2:46:23 PM | 32 | 2.0 | 12.0 | 56 | 41 | 69.9 | 76.0 | 30.020 | 7.26 | 4.2 | 849 | 0.00 | 0.00 | 0.00 | 0.00 |
| 05/06/26 2:47:33 PM | 38 | 5.0 | 12.0 | 56 | 41 | 70.0 | 76.0 | 30.021 | 7.26 | 4.2 | 844 | 0.00 | 0.00 | 0.00 | 0.00 |
| 05/06/26 2:48:22 PM | 35 | 7.0 | 12.0 | 56 | 40 | 70.0 | 76.0 | 30.017 | 7.26 | 4.2 | 846 | 0.00 | 0.00 | 0.00 | 0.00 |
| 05/06/26 2:49:36 PM | 35 | 7.0 | 12.0 | 56 | 40 | 70.0 | 76.0 | 30.024 | 7.26 | 4.2 | 844 | 0.00 | 0.00 | 0.00 | 0.00 |
| 05/06/26 2:50:28 PM | 37 | 2.0 | 12.0 | 56 | 40 | 70.0 | 76.0 | 30.020 | 7.26 | 4.1 | 838 | 0.00 | 0.00 | 0.00 | 0.00 |
| 05/06/26 2:51:17 PM | 32 | 6.0 | 12.0 | 56 | 40 | 70.0 | 76.0 | 30.023 | 7.26 | 4.1 | 837 | 0.00 | 0.00 | 0.00 | 0.00 |
| 05/06/26 2:52:25 PM | 32 | 2.0 | 12.0 | 56 | 40 | 70.1 | 75.8 | 30.020 | 7.26 | 4.1 | 837 | 0.00 | 0.00 | 0.00 | 0.00 |
| 05/06/26 2:53:20 PM | 35 | 2.0 | 12.0 | 56 | 40 | 70.1 | 75.7 | 30.020 | 7.26 | 4.0 | 831 | 0.00 | 0.00 | 0.00 | 0.00 |
| 05/06/26 2:54:27 PM | 34 | 2.0 | 12.0 | 56 | 41 | 70.1 | 75.6 | 30.020 | 7.26 | 4.0 | 828 | 0.00 | 0.00 | 0.00 | 0.00 |
| 05/06/26 2:55:20 PM | 32 | 9.0 | 12.0 | 56 | 41 | 70.1 | 75.6 | 30.019 | 7.26 | 4.0 | 826 | 0.00 | 0.00 | 0.00 | 0.00 |
| 05/06/26 2:56:33 PM | 32 | 10.0 | 12.0 | 56 | 41 | 70.1 | 75.6 | 30.018 | 7.26 | 4.0 | 819 | 0.00 | 0.00 | 0.00 | 0.00 |
| 05/06/26 2:57:19 PM | 34 | 4.0 | 12.0 | 56 | 40 | 70.1 | 75.5 | 30.017 | 7.26 | 3.9 | 819 | 0.00 | 0.00 | 0.00 | 0.00 |
| 05/06/26 2:58:33 PM | 38 | 2.0 | 12.0 | 56 | 41 | 70.2 | 75.3 | 30.019 | 7.26 | 3.9 | 821 | 0.00 | 0.00 | 0.00 | 0.00 |
| 05/06/26 2:59:22 PM | 35 | 3.0 | 12.0 | 56 | 41 | 70.2 | 75.4 | 30.018 | 7.26 | 3.9 | 819 | 0.00 | 0.00 | 0.00 | 0.00 |
| 05/06/26 3:01:00 PM | 35 | 4.0 | 12.0 | 56 | 41 | 70.2 | 75.5 | 30.019 | 7.26 | 3.9 | 817 | 0.00 | 0.00 | 0.00 | 0.00 |
| 05/06/26 3:01:28 PM | 35 | 2.0 | 12.0 | 56 | 40 | 70.2 | 75.5 | 30.021 | 7.26 | 3.9 | 819 | 0.00 | 0.00 | 0.00 | 0.00 |
| 05/06/26 3:02:20 PM | 35 | 1.0 | 12.0 | 56 | 40 | 70.3 | 75.6 | 30.020 | 7.26 | 3.9 | 819 | 0.00 | 0.00 | 0.00 | 0.00 |
| 05/06/26 3:03:28 PM | 31 | 0.0 | 12.0 | 56 | 40 | 70.3 | 75.7 | 30.019 | 7.26 | 3.9 | 812 | 0.00 | 0.00 | 0.00 | 0.00 |
| 05/06/26 3:04:20 PM | 35 | 2.0 | 12.0 | 56 | 41 | 70.3 | 75.9 | 30.017 | 7.26 | 3.9 | 814 | 0.00 | 0.00 | 0.00 | 0.00 |
| 05/06/26 3:05:33 PM | 36 | 7.0 | 12.0 | 56 | 41 | 70.3 | 76.2 | 30.018 | 7.26 | 3.9 | 809 | 0.00 | 0.00 | 0.00 | 0.00 |
| 05/06/26 3:06:26 PM | 32 | 8.0 | 12.0 | 56 | 40 | 70.3 | 76.4 | 30.015 | 7.26 | 3.8 | 809 | 0.00 | 0.00 | 0.00 | 0.00 |
| 05/06/26 3:07:18 PM | 37 | 3.0 | 12.0 | 56 | 40 | 70.3 | 76.5 | 30.016 | 7.26 | 3.8 | 805 | 0.00 | 0.00 | 0.00 | 0.00 |
| 05/06/26 3:08:23 PM | 35 | 2.0 | 12.0 | 56 | 39 | 70.4 | 76.5 | 30.019 | 7.26 | 3.8 | 803 | 0.00 | 0.00 | 0.00 | 0.00 |
| 05/06/26 3:09:18 PM | 34 | 3.0 | 12.0 | 56 | 39 | 70.4 | 76.5 | 30.015 | 7.26 | 3.8 | 803 | 0.00 | 0.00 | 0.00 | 0.00 |
| 05/06/26 3:10:28 PM | 38 | 4.0 | 12.0 | 56 | 39 | 70.4 | 76.5 | 30.017 | 7.26 | 3.7 | 798 | 0.00 | 0.00 | 0.00 | 0.00 |
| 05/06/26 3:11:21 PM | 34 | 5.0 | 12.0 | 56 | 40 | 70.5 | 76.5 | 30.017 | 7.26 | 3.7 | 798 | 0.00 | 0.00 | 0.00 | 0.00 |
| 05/06/26 3:12:34 PM | 38 | 4.0 | 12.0 | 56 | 39 | 70.5 | 76.6 | 30.015 | 7.26 | 3.7 | 791 | 0.00 | 0.00 | 0.00 | 0.00 |
| 05/06/26 3:13:27 PM | 38 | 3.0 | 12.0 | 56 | 39 | 70.5 | 76.6 | 30.016 | 7.26 | 3.7 | 786 | 0.00 | 0.00 | 0.00 | 0.00 |
| 05/06/26 3:14:34 PM | 36 | 5.0 | 12.0 | 56 | 38 | 70.5 | 76.6 | 30.014 | 7.26 | 3.6 | 780 | 0.00 | 0.00 | 0.00 | 0.00 |
| 05/06/26 3:15:26 PM | 32 | 6.0 | 12.0 | 56 | 39 | 70.5 | 76.6 | 30.015 | 7.26 | 3.6 | 780 | 0.00 | 0.00 | 0.00 | 0.00 |
| 05/06/26 3:16:19 PM | 34 | 4.0 | 12.0 | 56 | 38 | 70.6 | 76.6 | 30.012 | 7.26 | 3.6 | 779 | 0.00 | 0.00 | 0.00 | 0.00 |
| 05/06/26 3:17:32 PM | 36 | 3.0 | 12.0 | 56 | 38 | 70.6 | 76.5 | 30.008 | 7.26 | 3.5 | 779 | 0.00 | 0.00 | 0.00 | 0.00 |
| 05/06/26 3:18:25 PM | 35 | 1.0 | 12.0 | 56 | 38 | 70.6 | 76.4 | 30.012 | 7.26 | 3.5 | 777 | 0.00 | 0.00 | 0.00 | 0.00 |
| 05/06/26 3:19:32 PM | 38 | 2.0 | 12.0 | 56 | 38 | 70.6 | 76.4 | 30.010 | 7.26 | 3.5 | 773 | 0.00 | 0.00 | 0.00 | 0.00 |
| 05/06/26 3:20:24 PM | 35 | 1.0 | 12.0 | 56 | 38 | 70.7 | 76.3 | 30.009 | 7.26 | 3.5 | 773 | 0.00 | 0.00 | 0.00 | 0.00 |
| 05/06/26 3:21:35 PM | 32 | 3.0 | 12.0 | 56 | 39 | 70.6 | 76.2 | 30.009 | 7.26 | 3.5 | 770 | 0.00 | 0.00 | 0.00 | 0.00 |
| 05/06/26 3:22:27 PM | 38 | 2.0 | 12.0 | 56 | 40 | 70.7 | 76.3 | 30.008 | 7.26 | 3.4 | 766 | 0.00 | 0.00 | 0.00 | 0.00 |
| 05/06/26 3:23:20 PM | 34 | 4.0 | 12.0 | 56 | 39 | 70.7 | 76.4 | 30.010 | 7.26 | 3.4 | 766 | 0.00 | 0.00 | 0.00 | 0.00 |
| 05/06/26 3:24:27 PM | 36 | 5.0 | 12.0 | 56 | 40 | 70.7 | 76.5 | 30.009 | 7.26 | 3.4 | 766 | 0.00 | 0.00 | 0.00 | 0.00 |
| 05/06/26 3:25:19 PM | 38 | 10.0 | 12.0 | 56 | 39 | 70.7 | 76.6 | 30.008 | 7.26 | 3.4 | 765 | 0.00 | 0.00 | 0.00 | 0.00 |
| 05/06/26 3:26:30 PM | 38 | 5.0 | 12.0 | 56 | 38 | 70.7 | 76.6 | 30.009 | 7.26 | 3.4 | 761 | 0.00 | 0.00 | 0.00 | 0.00 |
| 05/06/26 3:27:22 PM | 34 | 1.0 | 12.0 | 56 | 38 | 70.8 | 76.6 | 30.009 | 7.26 | 3.4 | 759 | 0.00 | 0.00 | 0.00 | 0.00 |
| 05/06/26 3:28:36 PM | 36 | 3.0 | 12.0 | 56 | 38 | 70.8 | 76.6 | 30.011 | 7.26 | 3.3 | 756 | 0.00 | 0.00 | 0.00 | 0.00 |
| 05/06/26 3:29:28 PM | 38 | 2.0 | 12.0 | 56 | 38 | 70.8 | 76.6 | 30.008 | 7.26 | 3.3 | 752 | 0.00 | 0.00 | 0.00 | 0.00 |
| 05/06/26 3:30:18 PM | 35 | 4.0 | 12.0 | 56 | 38 | 70.8 | 76.6 | 30.006 | 7.26 | 3.3 | 752 | 0.00 | 0.00 | 0.00 | 0.00 |
| 05/06/26 3:31:28 PM | 38 | 4.0 | 12.0 | 56 | 38 | 70.9 | 76.6 | 30.005 | 7.26 | 3.2 | 745 | 0.00 | 0.00 | 0.00 | 0.00 |
| 05/06/26 3:32:20 PM | 36 | 3.0 | 12.0 | 56 | 39 | 70.9 | 76.6 | 30.007 | 7.26 | 3.2 | 744 | 0.00 | 0.00 | 0.00 | 0.00 |
| 05/06/26 3:33:31 PM | 32 | 3.0 | 12.0 | 56 | 38 | 70.9 | 76.6 | 30.003 | 7.26 | 3.2 | 744 | 0.00 | 0.00 | 0.00 | 0.00 |
| 05/06/26 3:34:23 PM | 38 | 4.0 | 12.0 | 56 | 39 | 70.9 | 76.6 | 30.004 | 7.26 | 3.2 | 740 | 0.00 | 0.00 | 0.00 | 0.00 |
| 05/06/26 3:35:31 PM | 36 | 0.0 | 12.0 | 56 | 38 | 70.9 | 76.6 | 30.006 | 7.26 | 3.1 | 737 | 0.00 | 0.00 | 0.00 | 0.00 |
| 05/06/26 3:36:23 PM | 36 | 4.0 | 12.0 | 56 | 39 | 71.0 | 76.7 | 30.004 | 7.26 | 3.1 | 735 | 0.00 | 0.00 | 0.00 | 0.00 |
| 05/06/26 3:37:36 PM | 38 | 1.0 | 12.0 | 56 | 38 | 70.9 | 76.7 | 30.002 | 7.26 | 3.1 | 731 | 0.00 | 0.00 | 0.00 | 0.00 |
| 05/06/26 3:38:26 PM | 36 | 5.0 | 12.0 | 56 | 39 | 71.0 | 76.7 | 30.004 | 7.26 | 3.1 | 728 | 0.00 | 0.00 | 0.00 | 0.00 |
| 05/06/26 3:39:21 PM | 34 | 3.0 | 12.0 | 56 | 39 | 71.0 | 76.7 | 30.003 | 7.26 | 3.0 | 726 | 0.00 | 0.00 | 0.00 | 0.00 |
| 05/06/26 3:40:29 PM | 36 | 4.0 | 12.0 | 56 | 39 | 71.0 | 76.8 | 30.004 | 7.26 | 3.0 | 726 | 0.00 | 0.00 | 0.00 | 0.00 |
| 05/06/26 3:41:18 PM | 32 | 9.0 | 12.0 | 56 | 39 | 71.0 | 76.8 | 30.002 | 7.26 | 3.0 | 721 | 0.00 | 0.00 | 0.00 | 0.00 |
| 05/06/26 3:42:31 PM | 38 | 3.0 | 12.0 | 56 | 39 | 71.0 | 76.7 | 30.002 | 7.26 | 3.0 | 721 | 0.00 | 0.00 | 0.00 | 0.00 |
| 05/06/26 3:43:24 PM | 31 | 4.0 | 12.0 | 56 | 38 | 71.0 | 76.7 | 30.001 | 7.26 | 3.0 | 721 | 0.00 | 0.00 | 0.00 | 0.00 |
| 05/06/26 3:44:34 PM | 35 | 2.0 | 12.0 | 56 | 38 | 71.0 | 76.7 | 30.001 | 7.26 | 2.9 | 717 | 0.00 | 0.00 | 0.00 | 0.00 |
| 05/06/26 3:45:30 PM | 36 | 3.0 | 12.0 | 56 | 39 | 71.0 | 76.7 | 29.999 | 7.26 | 2.9 | 710 | 0.00 | 0.00 | 0.00 | 0.00 |
| 05/06/26 3:46:34 PM | 36 | 7.0 | 12.0 | 56 | 39 | 71.0 | 76.7 | 29.998 | 7.26 | 2.9 | 710 | 0.00 | 0.00 | 0.00 | 0.00 |
| 05/06/26 3:47:27 PM | 32 | 3.0 | 12.0 | 56 | 39 | 71.0 | 76.6 | 29.997 | 7.26 | 2.9 | 708 | 0.00 | 0.00 | 0.00 | 0.00 |
| 05/06/26 3:48:19 PM | 35 | 5.0 | 12.0 | 56 | 39 | 71.0 | 76.6 | 29.995 | 7.26 | 2.8 | 708 | 0.00 | 0.00 | 0.00 | 0.00 |
| 05/06/26 3:49:29 PM | 32 | 8.0 | 12.0 | 56 | 39 | 71.1 | 76.7 | 29.998 | 7.26 | 2.8 | 705 | 0.00 | 0.00 | 0.00 | 0.00 |
| 05/06/26 3:50:22 PM | 38 | 6.0 | 12.0 | 56 | 39 | 71.1 | 76.7 | 29.997 | 7.26 | 2.8 | 705 | 0.00 | 0.00 | 0.00 | 0.00 |
| 05/06/26 3:51:29 PM | 35 | 2.0 | 12.0 | 56 | 40 | 71.1 | 76.8 | 29.997 | 7.26 | 2.8 | 705 | 0.00 | 0.00 | 0.00 | 0.00 |
| 05/06/26 3:52:21 PM | 36 | 2.0 | 12.0 | 56 | 39 | 71.1 | 76.9 | 29.997 | 7.26 | 2.8 | 701 | 0.00 | 0.00 | 0.00 | 0.00 |
| 05/06/26 3:53:35 PM | 37 | 2.0 | 12.0 | 56 | 39 | 71.1 | 76.9 | 29.997 | 7.26 | 2.7 | 696 | 0.00 | 0.00 | 0.00 | 0.00 |
| 05/06/26 3:54:27 PM | 35 | 1.0 | 12.0 | 56 | 39 | 71.1 | 76.9 | 29.995 | 7.26 | 2.7 | 696 | 0.00 | 0.00 | 0.00 | 0.00 |
| 05/06/26 3:55:17 PM | 35 | 2.0 | 12.0 | 56 | 40 | 71.1 | 77.0 | 29.997 | 7.26 | 2.7 | 686 | 0.00 | 0.00 | 0.00 | 0.00 |
| 05/06/26 3:56:24 PM | 36 | 4.0 | 12.0 | 56 | 39 | 71.1 | 77.1 | 29.995 | 7.26 | 2.7 | 684 | 0.00 | 0.00 | 0.00 | 0.00 |
| 05/06/26 3:57:35 PM | 36 | 2.0 | 12.0 | 56 | 39 | 71.1 | 77.2 | 29.995 | 7.26 | 2.6 | 677 | 0.00 | 0.00 | 0.00 | 0.00 |
| 05/06/26 3:58:30 PM | 32 | 1.0 | 12.0 | 56 | 38 | 71.1 | 77.3 | 29.998 | 7.26 | 2.6 | 677 | 0.00 | 0.00 | 0.00 | 0.00 |
| 05/06/26 3:59:19 PM | 32 | 4.0 | 12.0 | 56 | 39 | 71.2 | 77.4 | 29.995 | 7.26 | 2.6 | 673 | 0.00 | 0.00 | 0.00 | 0.00 |
| 05/06/26 4:00:36 PM | 37 | 4.0 | 12.0 | 56 | 39 | 71.2 | 77.6 | 29.995 | 7.26 | 2.6 | 671 | 0.00 | 0.00 | 0.00 | 0.00 |
| 05/06/26 4:01:25 PM | 35 | 5.0 | 12.0 | 56 | 39 | 71.2 | 77.8 | 29.994 | 7.26 | 2.5 | 668 | 0.00 | 0.00 | 0.00 | 0.00 |
| 05/06/26 4:02:33 PM | 38 | 3.0 | 12.0 | 56 | 39 | 71.2 | 77.8 | 29.997 | 7.26 | 2.5 | 661 | 0.00 | 0.00 | 0.00 | 0.00 |
| 05/06/26 4:03:25 PM | 36 | 4.0 | 12.0 | 56 | 38 | 71.3 | 77.9 | 29.996 | 7.26 | 2.5 | 659 | 0.00 | 0.00 | 0.00 | 0.00 |
| 05/06/26 4:04:18 PM | 35 | 5.0 | 12.0 | 56 | 39 | 71.3 | 77.9 | 29.995 | 7.26 | 2.5 | 657 | 0.00 | 0.00 | 0.00 | 0.00 |
| 05/06/26 4:05:28 PM | 35 | 4.0 | 12.0 | 56 | 38 | 71.3 | 78.0 | 29.996 | 7.26 | 2.4 | 657 | 0.00 | 0.00 | 0.00 | 0.00 |
| 05/06/26 4:06:21 PM | 34 | 5.0 | 12.0 | 56 | 38 | 71.3 | 78.0 | 29.995 | 7.26 | 2.4 | 652 | 0.00 | 0.00 | 0.00 | 0.00 |
| 05/06/26 4:07:28 PM | 35 | 9.0 | 12.0 | 56 | 39 | 71.3 | 78.1 | 29.992 | 7.26 | 2.4 | 649 | 0.00 | 0.00 | 0.00 | 0.00 |
| 05/06/26 4:08:20 PM | 37 | 2.0 | 12.0 | 56 | 38 | 71.3 | 78.1 | 29.995 | 7.26 | 2.4 | 647 | 0.00 | 0.00 | 0.00 | 0.00 |
| 05/06/26 4:09:22 PM | 32 | 5.0 | 12.0 | 56 | 38 | 71.4 | 78.1 | 29.995 | 7.26 | 2.3 | 643 | 0.00 | 0.00 | 0.00 | 0.00 |
| 05/06/26 4:10:35 PM | 35 | 5.0 | 12.0 | 56 | 38 | 71.3 | 78.0 | 29.994 | 7.26 | 2.3 | 638 | 0.00 | 0.00 | 0.00 | 0.00 |
| 05/06/26 4:11:28 PM | 35 | 5.0 | 12.0 | 56 | 38 | 71.4 | 77.9 | 29.995 | 7.26 | 2.3 | 636 | 0.00 | 0.00 | 0.00 | 0.00 |
| 05/06/26 4:12:20 PM | 35 | 7.0 | 12.0 | 56 | 39 | 71.4 | 77.8 | 29.995 | 7.26 | 2.3 | 636 | 0.00 | 0.00 | 0.00 | 0.00 |
| 05/06/26 4:13:28 PM | 36 | 5.0 | 12.0 | 56 | 39 | 71.4 | 77.7 | 29.996 | 7.26 | 2.2 | 624 | 0.00 | 0.00 | 0.00 | 0.00 |
| 05/06/26 4:14:17 PM | 35 | 5.0 | 12.0 | 56 | 39 | 71.5 | 77.6 | 29.997 | 7.26 | 2.2 | 622 | 0.00 | 0.00 | 0.00 | 0.00 |
| 05/06/26 4:15:34 PM | 38 | 5.0 | 12.0 | 56 | 39 | 71.4 | 77.5 | 29.994 | 7.26 | 2.2 | 621 | 0.00 | 0.00 | 0.00 | 0.00 |
| 05/06/26 4:16:23 PM | 32 | 3.0 | 12.0 | 56 | 39 | 71.5 | 77.4 | 29.992 | 7.26 | 2.2 | 619 | 0.00 | 0.00 | 0.00 | 0.00 |
| 05/06/26 4:17:34 PM | 34 | 2.0 | 12.0 | 56 | 39 | 71.5 | 77.3 | 29.995 | 7.26 | 2.2 | 617 | 0.00 | 0.00 | 0.00 | 0.00 |
| 05/06/26 4:18:23 PM | 38 | 3.0 | 12.0 | 56 | 39 | 71.5 | 77.3 | 29.993 | 7.26 | 2.1 | 617 | 0.00 | 0.00 | 0.00 | 0.00 |
| 05/06/26 4:19:34 PM | 32 | 10.0 | 12.0 | 56 | 40 | 71.5 | 77.4 | 29.993 | 7.26 | 2.1 | 612 | 0.00 | 0.00 | 0.00 | 0.00 |
| 05/06/26 4:20:29 PM | 35 | 5.0 | 12.0 | 56 | 40 | 71.5 | 77.4 | 29.991 | 7.26 | 2.1 | 608 | 0.00 | 0.00 | 0.00 | 0.00 |
| 05/06/26 4:21:19 PM | 34 | 5.0 | 12.0 | 56 | 40 | 71.5 | 77.5 | 29.992 | 7.26 | 2.1 | 605 | 0.00 | 0.00 | 0.00 | 0.00 |
| 05/06/26 4:22:29 PM | 35 | 2.0 | 12.0 | 56 | 40 | 71.5 | 77.4 | 29.991 | 7.26 | 2.0 | 605 | 0.00 | 0.00 | 0.00 | 0.00 |
| 05/06/26 4:23:19 PM | 36 | 4.0 | 12.0 | 56 | 39 | 71.6 | 77.4 | 29.989 | 7.26 | 2.0 | 596 | 0.00 | 0.00 | 0.00 | 0.00 |
| 05/06/26 4:24:29 PM | 32 | 5.0 | 12.0 | 56 | 40 | 71.6 | 77.4 | 29.988 | 7.26 | 2.0 | 589 | 0.00 | 0.00 | 0.00 | 0.00 |
| 05/06/26 4:25:21 PM | 34 | 3.0 | 12.0 | 56 | 40 | 71.6 | 77.4 | 29.993 | 7.26 | 1.9 | 585 | 0.00 | 0.00 | 0.00 | 0.00 |
| 05/06/26 4:26:35 PM | 35 | 6.0 | 12.0 | 56 | 40 | 71.6 | 77.4 | 29.992 | 7.26 | 1.9 | 575 | 0.00 | 0.00 | 0.00 | 0.00 |
| 05/06/26 4:27:28 PM | 37 | 3.0 | 12.0 | 56 | 40 | 71.6 | 77.5 | 29.991 | 7.26 | 1.9 | 573 | 0.00 | 0.00 | 0.00 | 0.00 |
| 05/06/26 4:28:20 PM | 36 | 4.0 | 12.0 | 56 | 39 | 71.6 | 77.5 | 29.989 | 7.26 | 1.9 | 573 | 0.00 | 0.00 | 0.00 | 0.00 |
| 05/06/26 4:29:30 PM | 34 | 3.0 | 12.0 | 56 | 39 | 71.6 | 77.5 | 29.991 | 7.26 | 1.8 | 566 | 0.00 | 0.00 | 0.00 | 0.00 |
| 05/06/26 4:30:23 PM | 38 | 5.0 | 12.0 | 56 | 40 | 71.6 | 77.4 | 29.991 | 7.26 | 1.8 | 563 | 0.00 | 0.00 | 0.00 | 0.00 |
| 05/06/26 4:31:33 PM | 31 | 2.0 | 12.0 | 56 | 39 | 71.6 | 77.4 | 29.989 | 7.26 | 1.8 | 559 | 0.00 | 0.00 | 0.00 | 0.00 |
| 05/06/26 4:32:26 PM | 35 | 5.0 | 12.0 | 56 | 40 | 71.6 | 77.4 | 29.989 | 7.26 | 1.8 | 555 | 0.00 | 0.00 | 0.00 | 0.00 |
| 05/06/26 4:33:18 PM | 32 | 2.0 | 12.0 | 56 | 40 | 71.7 | 77.4 | 29.988 | 7.26 | 1.7 | 554 | 0.00 | 0.00 | 0.00 | 0.00 |
| 05/06/26 4:37:03 PM | 36 | 4.0 | 12.0 | 56 | 39 | 71.7 | 77.5 | 29.988 | 7.26 | 1.7 | 548 | 0.00 | 0.00 | 0.00 | 0.00 |
| 05/06/26 4:37:34 PM | 32 | 6.0 | 12.0 | 56 | 39 | 71.7 | 77.5 | 29.989 | 7.26 | 1.7 | 548 | 0.00 | 0.00 | 0.00 | 0.00 |
| 05/06/26 4:38:26 PM | 36 | 3.0 | 12.0 | 56 | 39 | 71.6 | 77.5 | 29.988 | 7.26 | 1.7 | 548 | 0.00 | 0.00 | 0.00 | 0.00 |
| 05/06/26 4:39:19 PM | 35 | 3.0 | 12.0 | 56 | 39 | 71.7 | 77.4 | 29.991 | 7.26 | 1.7 | 545 | 0.00 | 0.00 | 0.00 | 0.00 |
| 05/06/26 4:40:33 PM | 32 | 6.0 | 12.0 | 56 | 40 | 71.7 | 77.4 | 29.991 | 7.26 | 1.6 | 541 | 0.00 | 0.00 | 0.00 | 0.00 |
| 05/06/26 4:41:22 PM | 32 | 4.0 | 12.0 | 56 | 40 | 71.7 | 77.3 | 29.989 | 7.26 | 1.6 | 541 | 0.00 | 0.00 | 0.00 | 0.00 |
| 05/06/26 4:42:30 PM | 34 | 8.0 | 12.0 | 56 | 39 | 71.7 | 77.3 | 29.989 | 7.26 | 1.6 | 529 | 0.00 | 0.00 | 0.00 | 0.00 |
| 05/06/26 4:43:22 PM | 38 | 5.0 | 12.0 | 56 | 39 | 71.7 | 77.3 | 29.990 | 7.26 | 1.6 | 527 | 0.00 | 0.00 | 0.00 | 0.00 |
| 05/06/26 4:44:32 PM | 34 | 3.0 | 12.0 | 56 | 39 | 71.7 | 77.3 | 29.990 | 7.26 | 1.5 | 522 | 0.00 | 0.00 | 0.00 | 0.00 |
| 05/06/26 4:45:28 PM | 36 | 4.0 | 12.0 | 56 | 40 | 71.8 | 77.2 | 29.990 | 7.26 | 1.5 | 519 | 0.00 | 0.00 | 0.00 | 0.00 |
| 05/06/26 4:46:17 PM | 36 | 4.0 | 12.0 | 56 | 40 | 71.8 | 77.3 | 29.991 | 7.26 | 1.5 | 517 | 0.00 | 0.00 | 0.00 | 0.00 |
| 05/06/26 4:47:28 PM | 32 | 3.0 | 12.0 | 56 | 40 | 71.8 | 77.3 | 29.990 | 7.26 | 1.5 | 513 | 0.00 | 0.00 | 0.00 | 0.00 |
| 05/06/26 4:48:17 PM | 32 | 8.0 | 12.0 | 56 | 39 | 71.8 | 77.3 | 29.991 | 7.26 | 1.5 | 512 | 0.00 | 0.00 | 0.00 | 0.00 |
| 05/06/26 4:49:28 PM | 34 | 5.0 | 12.0 | 56 | 40 | 71.8 | 77.3 | 29.989 | 7.26 | 1.4 | 508 | 0.00 | 0.00 | 0.00 | 0.00 |
| 05/06/26 4:50:20 PM | 38 | 9.0 | 12.0 | 56 | 40 | 71.8 | 77.3 | 29.991 | 7.26 | 1.4 | 503 | 0.00 | 0.00 | 0.00 | 0.00 |
| 05/06/26 4:51:34 PM | 35 | 4.0 | 12.0 | 56 | 40 | 71.9 | 77.2 | 29.990 | 7.26 | 1.4 | 503 | 0.00 | 0.00 | 0.00 | 0.00 |
| 05/06/26 4:52:26 PM | 34 | 6.0 | 12.0 | 56 | 41 | 71.8 | 77.1 | 29.991 | 7.26 | 1.4 | 499 | 0.00 | 0.00 | 0.00 | 0.00 |
| 05/06/26 4:53:34 PM | 34 | 3.0 | 12.0 | 56 | 40 | 71.8 | 77.1 | 29.989 | 7.26 | 1.4 | 496 | 0.00 | 0.00 | 0.00 | 0.00 |
| 05/06/26 4:54:26 PM | 38 | 3.0 | 12.0 | 56 | 40 | 71.9 | 77.1 | 29.990 | 7.26 | 1.4 | 494 | 0.00 | 0.00 | 0.00 | 0.00 |
| 05/06/26 4:55:16 PM | 36 | 2.0 | 12.0 | 56 | 40 | 71.9 | 77.1 | 29.991 | 7.26 | 1.3 | 490 | 0.00 | 0.00 | 0.00 | 0.00 |
| 05/06/26 4:56:29 PM | 37 | 2.0 | 12.0 | 56 | 40 | 71.9 | 77.1 | 29.990 | 7.26 | 1.3 | 485 | 0.00 | 0.00 | 0.00 | 0.00 |
| 05/06/26 4:57:21 PM | 36 | 2.0 | 12.0 | 56 | 40 | 71.9 | 77.1 | 29.992 | 7.26 | 1.3 | 485 | 0.00 | 0.00 | 0.00 | 0.00 |
| 05/06/26 4:58:29 PM | 32 | 8.0 | 12.0 | 56 | 40 | 71.9 | 77.2 | 29.989 | 7.26 | 1.3 | 478 | 0.00 | 0.00 | 0.00 | 0.00 |
| 05/06/26 4:59:22 PM | 36 | 5.0 | 12.0 | 56 | 40 | 71.9 | 77.2 | 29.990 | 7.26 | 1.3 | 476 | 0.00 | 0.00 | 0.00 | 0.00 |
| 05/06/26 5:00:35 PM | 36 | 3.0 | 12.0 | 56 | 40 | 71.9 | 77.1 | 29.987 | 7.26 | 1.3 | 473 | 0.00 | 0.00 | 0.00 | 0.00 |
| 05/06/26 5:01:24 PM | 38 | 3.0 | 12.0 | 56 | 40 | 71.8 | 77.1 | 29.988 | 7.26 | 1.3 | 469 | 0.00 | 0.00 | 0.00 | 0.00 |
| 05/06/26 5:02:17 PM | 30 | 1.0 | 12.0 | 56 | 40 | 71.9 | 77.1 | 29.991 | 7.26 | 1.2 | 466 | 0.00 | 0.00 | 0.00 | 0.00 |
| 05/06/26 5:03:24 PM | 31 | 2.0 | 12.0 | 56 | 40 | 71.9 | 77.1 | 29.991 | 7.26 | 1.2 | 461 | 0.00 | 0.00 | 0.00 | 0.00 |
| 05/06/26 5:04:17 PM | 36 | 3.0 | 12.0 | 56 | 41 | 71.8 | 77.2 | 29.989 | 7.26 | 1.2 | 455 | 0.00 | 0.00 | 0.00 | 0.00 |
| 05/06/26 5:05:30 PM | 32 | 3.0 | 12.0 | 56 | 40 | 71.9 | 77.2 | 29.991 | 7.26 | 1.2 | 450 | 0.00 | 0.00 | 0.00 | 0.00 |
| 05/06/26 5:06:20 PM | 36 | 3.0 | 12.0 | 56 | 40 | 71.9 | 77.3 | 29.992 | 7.26 | 1.2 | 448 | 0.00 | 0.00 | 0.00 | 0.00 |
| 05/06/26 5:07:33 PM | 35 | 3.0 | 12.0 | 56 | 40 | 71.9 | 77.3 | 29.992 | 7.26 | 1.1 | 445 | 0.00 | 0.00 | 0.00 | 0.00 |
| 05/06/26 5:08:25 PM | 36 | 5.0 | 12.0 | 56 | 41 | 71.8 | 77.4 | 29.994 | 7.26 | 1.1 | 443 | 0.00 | 0.00 | 0.00 | 0.00 |
| 05/06/26 5:09:33 PM | 35 | 2.0 | 12.0 | 56 | 40 | 71.9 | 77.4 | 29.991 | 7.26 | 1.1 | 438 | 0.00 | 0.00 | 0.00 | 0.00 |
| 05/06/26 5:10:25 PM | 34 | 5.0 | 12.0 | 56 | 41 | 71.8 | 77.4 | 29.992 | 7.26 | 1.1 | 438 | 0.00 | 0.00 | 0.00 | 0.00 |
| 05/06/26 5:11:18 PM | 36 | 3.0 | 12.0 | 56 | 40 | 71.8 | 77.4 | 29.992 | 7.26 | 1.1 | 431 | 0.00 | 0.00 | 0.00 | 0.00 |
| 05/06/26 5:12:28 PM | 35 | 1.0 | 12.0 | 56 | 40 | 71.9 | 77.4 | 29.990 | 7.26 | 1.1 | 425 | 0.00 | 0.00 | 0.00 | 0.00 |
| 05/06/26 5:13:18 PM | 37 | 1.0 | 12.0 | 56 | 40 | 71.9 | 77.4 | 29.990 | 7.26 | 1.0 | 422 | 0.00 | 0.00 | 0.00 | 0.00 |
| 05/06/26 5:14:25 PM | 38 | 4.0 | 12.0 | 56 | 40 | 71.9 | 77.4 | 29.990 | 7.26 | 1.0 | 418 | 0.00 | 0.00 | 0.00 | 0.00 |
| 05/06/26 5:15:21 PM | 37 | 6.0 | 12.0 | 56 | 41 | 71.9 | 77.4 | 29.991 | 7.26 | 1.0 | 418 | 0.00 | 0.00 | 0.00 | 0.00 |
| 05/06/26 5:16:31 PM | 36 | 3.0 | 12.0 | 56 | 40 | 71.8 | 77.4 | 29.991 | 7.26 | 1.0 | 415 | 0.00 | 0.00 | 0.00 | 0.00 |
| 05/06/26 5:17:24 PM | 36 | 5.0 | 12.0 | 56 | 39 | 71.9 | 77.4 | 29.992 | 7.26 | 1.0 | 410 | 0.00 | 0.00 | 0.00 | 0.00 |
| 05/06/26 5:18:34 PM | 36 | 2.0 | 12.0 | 56 | 40 | 71.9 | 77.5 | 29.993 | 7.26 | 1.0 | 406 | 0.00 | 0.00 | 0.00 | 0.00 |
| 05/06/26 5:19:21 PM | 34 | 5.0 | 12.0 | 56 | 40 | 71.9 | 77.5 | 29.991 | 7.26 | 1.0 | 406 | 0.00 | 0.00 | 0.00 | 0.00 |
| 05/06/26 5:20:34 PM | 38 | 7.0 | 12.0 | 56 | 39 | 71.8 | 77.5 | 29.991 | 7.26 | 0.9 | 404 | 0.00 | 0.00 | 0.00 | 0.00 |
| 05/06/26 5:21:27 PM | 39 | 3.0 | 12.0 | 56 | 39 | 71.8 | 77.5 | 29.991 | 7.26 | 0.9 | 403 | 0.00 | 0.00 | 0.00 | 0.00 |
| 05/06/26 5:22:19 PM | 36 | 4.0 | 12.0 | 56 | 39 | 71.8 | 77.5 | 29.991 | 7.26 | 0.9 | 399 | 0.00 | 0.00 | 0.00 | 0.00 |
| 05/06/26 5:23:30 PM | 36 | 3.0 | 12.0 | 56 | 40 | 71.9 | 77.5 | 29.992 | 7.26 | 0.9 | 396 | 0.00 | 0.00 | 0.00 | 0.00 |
| 05/06/26 5:24:22 PM | 38 | 6.0 | 12.0 | 56 | 40 | 71.9 | 77.5 | 29.993 | 7.26 | 0.9 | 388 | 0.00 | 0.00 | 0.00 | 0.00 |
| 05/06/26 5:25:27 PM | 36 | 5.0 | 12.0 | 56 | 40 | 71.9 | 77.5 | 29.993 | 7.26 | 0.9 | 383 | 0.00 | 0.00 | 0.00 | 0.00 |
| 05/06/26 5:26:19 PM | 35 | 3.0 | 12.0 | 56 | 40 | 71.9 | 77.4 | 29.993 | 7.26 | 0.8 | 381 | 0.00 | 0.00 | 0.00 | 0.00 |
| 05/06/26 5:27:30 PM | 36 | 5.0 | 12.0 | 56 | 40 | 71.9 | 77.4 | 29.993 | 7.26 | 0.8 | 378 | 0.00 | 0.00 | 0.00 | 0.00 |
| 05/06/26 5:28:22 PM | 38 | 7.0 | 12.0 | 56 | 40 | 71.9 | 77.4 | 29.993 | 7.26 | 0.8 | 373 | 0.00 | 0.00 | 0.00 | 0.00 |
| 05/06/26 5:29:36 PM | 36 | 5.0 | 12.0 | 56 | 40 | 71.9 | 77.3 | 29.995 | 7.26 | 0.8 | 373 | 0.00 | 0.00 | 0.00 | 0.00 |
| 05/06/26 5:30:25 PM | 36 | 4.0 | 12.0 | 56 | 40 | 72.0 | 77.3 | 29.993 | 7.26 | 0.8 | 366 | 0.00 | 0.00 | 0.00 | 0.00 |
| 05/06/26 5:31:36 PM | 37 | 3.0 | 12.0 | 56 | 39 | 71.9 | 77.2 | 29.990 | 7.26 | 0.8 | 360 | 0.00 | 0.00 | 0.00 | 0.00 |
| 05/06/26 5:32:28 PM | 36 | 3.0 | 12.0 | 56 | 39 | 71.9 | 77.2 | 29.990 | 7.26 | 0.8 | 359 | 0.00 | 0.00 | 0.00 | 0.00 |
| 05/06/26 5:33:18 PM | 34 | 5.0 | 12.0 | 56 | 40 | 71.9 | 77.1 | 29.991 | 7.26 | 0.7 | 357 | 0.00 | 0.00 | 0.00 | 0.00 |
| 05/06/26 5:34:28 PM | 32 | 5.0 | 12.0 | 56 | 40 | 71.9 | 77.1 | 29.993 | 7.26 | 0.7 | 357 | 0.00 | 0.00 | 0.00 | 0.00 |
| 05/06/26 5:35:18 PM | 36 | 10.0 | 12.0 | 56 | 40 | 71.9 | 77.1 | 29.991 | 7.26 | 0.7 | 352 | 0.00 | 0.00 | 0.00 | 0.00 |
| 05/06/26 5:36:31 PM | 35 | 6.0 | 12.0 | 56 | 40 | 71.9 | 77.1 | 29.993 | 7.26 | 0.7 | 348 | 0.00 | 0.00 | 0.00 | 0.00 |
| 05/06/26 5:37:24 PM | 35 | 5.0 | 12.0 | 56 | 40 | 71.9 | 77.0 | 29.990 | 7.26 | 0.7 | 345 | 0.00 | 0.00 | 0.00 | 0.00 |
| 05/06/26 5:38:35 PM | 36 | 3.0 | 12.0 | 56 | 40 | 71.9 | 77.0 | 29.993 | 7.26 | 0.7 | 339 | 0.00 | 0.00 | 0.00 | 0.00 |
| 05/06/26 5:39:27 PM | 34 | 1.0 | 12.0 | 56 | 40 | 71.9 | 77.0 | 29.990 | 7.26 | 0.7 | 336 | 0.00 | 0.00 | 0.00 | 0.00 |
| 05/06/26 5:40:19 PM | 32 | 2.0 | 12.0 | 56 | 40 | 72.0 | 77.0 | 29.993 | 7.26 | 0.7 | 330 | 0.00 | 0.00 | 0.00 | 0.00 |
| 05/06/26 5:41:27 PM | 35 | 6.0 | 12.0 | 56 | 41 | 72.0 | 76.9 | 29.991 | 7.26 | 0.6 | 322 | 0.00 | 0.00 | 0.00 | 0.00 |
| 05/06/26 5:42:19 PM | 36 | 5.0 | 12.0 | 56 | 41 | 71.9 | 76.9 | 29.992 | 7.26 | 0.6 | 322 | 0.00 | 0.00 | 0.00 | 0.00 |
| 05/06/26 5:43:33 PM | 37 | 5.0 | 12.0 | 56 | 41 | 71.9 | 76.8 | 29.991 | 7.26 | 0.6 | 315 | 0.00 | 0.00 | 0.00 | 0.00 |
| 05/06/26 5:44:22 PM | 36 | 2.0 | 12.0 | 56 | 42 | 71.9 | 76.7 | 29.993 | 7.26 | 0.6 | 311 | 0.00 | 0.00 | 0.00 | 0.00 |
| 05/06/26 5:45:39 PM | 35 | 5.0 | 12.0 | 56 | 42 | 71.9 | 76.7 | 29.990 | 7.26 | 0.6 | 308 | 0.00 | 0.00 | 0.00 | 0.00 |
| 05/06/26 5:46:25 PM | 35 | 7.0 | 12.0 | 56 | 42 | 71.9 | 76.6 | 29.992 | 7.26 | 0.6 | 306 | 0.00 | 0.00 | 0.00 | 0.00 |
| 05/06/26 5:47:18 PM | 36 | 7.0 | 12.0 | 56 | 41 | 71.9 | 76.6 | 29.992 | 7.26 | 0.6 | 302 | 0.00 | 0.00 | 0.00 | 0.00 |
| 05/06/26 5:48:28 PM | 31 | 6.0 | 12.0 | 56 | 41 | 72.0 | 76.6 | 29.992 | 7.26 | 0.6 | 299 | 0.00 | 0.00 | 0.00 | 0.00 |
| 05/06/26 5:49:18 PM | 35 | 5.0 | 12.0 | 56 | 41 | 71.9 | 76.5 | 29.990 | 7.26 | 0.5 | 295 | 0.00 | 0.00 | 0.00 | 0.00 |
| 05/06/26 5:50:31 PM | 38 | 6.0 | 12.0 | 56 | 42 | 71.9 | 76.5 | 29.991 | 7.26 | 0.5 | 290 | 0.00 | 0.00 | 0.00 | 0.00 |
| 05/06/26 5:51:18 PM | 35 | 6.0 | 12.0 | 56 | 42 | 71.9 | 76.5 | 29.992 | 7.26 | 0.5 | 287 | 0.00 | 0.00 | 0.00 | 0.00 |
| 05/06/26 5:52:31 PM | 38 | 4.0 | 12.0 | 56 | 42 | 72.0 | 76.5 | 29.994 | 7.26 | 0.5 | 283 | 0.00 | 0.00 | 0.00 | 0.00 |
| 05/06/26 5:53:24 PM | 35 | 7.0 | 12.0 | 56 | 42 | 72.0 | 76.5 | 29.994 | 7.26 | 0.5 | 279 | 0.00 | 0.00 | 0.00 | 0.00 |
| 05/06/26 5:54:34 PM | 34 | 4.0 | 12.0 | 56 | 41 | 71.9 | 76.4 | 29.992 | 7.26 | 0.5 | 276 | 0.00 | 0.00 | 0.00 | 0.00 |
| 05/06/26 5:55:27 PM | 34 | 4.0 | 12.0 | 56 | 41 | 71.9 | 76.4 | 29.993 | 7.26 | 0.5 | 276 | 0.00 | 0.00 | 0.00 | 0.00 |
| 05/06/26 5:56:19 PM | 37 | 2.0 | 12.0 | 56 | 42 | 71.9 | 76.4 | 29.992 | 7.26 | 0.5 | 272 | 0.00 | 0.00 | 0.00 | 0.00 |
| 05/06/26 5:57:27 PM | 38 | 5.0 | 12.0 | 56 | 43 | 72.0 | 76.4 | 29.994 | 7.26 | 0.5 | 265 | 0.00 | 0.00 | 0.00 | 0.00 |
| 05/06/26 5:58:19 PM | 38 | 7.0 | 13.0 | 56 | 42 | 72.0 | 76.4 | 29.994 | 7.26 | 0.5 | 262 | 0.00 | 0.00 | 0.00 | 0.00 |
| 05/06/26 5:59:30 PM | 38 | 6.0 | 13.0 | 56 | 42 | 71.9 | 76.3 | 29.992 | 7.26 | 0.0 | 258 | 0.00 | 0.00 | 0.00 | 0.00 |
| 05/06/26 6:00:25 PM | 35 | 6.0 | 13.0 | 56 | 43 | 72.0 | 76.2 | 29.992 | 7.26 | 0.0 | 255 | 0.00 | 0.00 | 0.00 | 0.00 |
| 05/06/26 6:01:18 PM | 31 | 8.0 | 13.0 | 56 | 43 | 72.0 | 76.2 | 29.994 | 7.26 | 0.0 | 250 | 0.00 | 0.00 | 0.00 | 0.00 |
| 05/06/26 6:02:25 PM | 32 | 4.0 | 13.0 | 56 | 43 | 72.0 | 76.2 | 29.993 | 7.26 | 0.0 | 246 | 0.00 | 0.00 | 0.00 | 0.00 |
| 05/06/26 6:03:36 PM | 38 | 6.0 | 13.0 | 56 | 43 | 72.0 | 76.1 | 29.992 | 7.26 | 0.0 | 244 | 0.00 | 0.00 | 0.00 | 0.00 |
| 05/06/26 6:04:28 PM | 38 | 6.0 | 13.0 | 56 | 43 | 72.0 | 76.1 | 29.993 | 7.26 | 0.0 | 239 | 0.00 | 0.00 | 0.00 | 0.00 |
| 05/06/26 6:05:21 PM | 34 | 5.0 | 13.0 | 56 | 43 | 72.0 | 76.0 | 29.995 | 7.26 | 0.0 | 236 | 0.00 | 0.00 | 0.00 | 0.00 |
| 05/06/26 6:06:31 PM | 37 | 4.0 | 13.0 | 56 | 43 | 72.0 | 76.0 | 29.996 | 7.26 | 0.0 | 232 | 0.00 | 0.00 | 0.00 | 0.00 |
| 05/06/26 6:07:21 PM | 38 | 7.0 | 13.0 | 56 | 44 | 72.0 | 76.0 | 29.995 | 7.26 | 0.0 | 232 | 0.00 | 0.00 | 0.00 | 0.00 |
| 05/06/26 6:08:31 PM | 38 | 13.0 | 13.0 | 56 | 44 | 72.0 | 75.9 | 29.996 | 7.26 | 0.0 | 225 | 0.00 | 0.00 | 0.00 | 0.00 |
| 05/06/26 6:09:24 PM | 36 | 11.0 | 13.0 | 56 | 44 | 72.0 | 75.7 | 29.995 | 7.26 | 0.0 | 221 | 0.00 | 0.00 | 0.00 | 0.00 |
| 05/06/26 6:10:34 PM | 37 | 10.0 | 13.0 | 56 | 44 | 72.0 | 75.6 | 29.997 | 7.26 | 0.0 | 220 | 0.00 | 0.00 | 0.00 | 0.00 |
| 05/06/26 6:11:27 PM | 36 | 6.0 | 13.0 | 56 | 45 | 72.0 | 75.4 | 29.993 | 7.26 | 0.0 | 213 | 0.00 | 0.00 | 0.00 | 0.00 |
| 05/06/26 6:12:19 PM | 32 | 8.0 | 13.0 | 56 | 45 | 72.0 | 75.2 | 29.997 | 7.26 | 0.0 | 213 | 0.00 | 0.00 | 0.00 | 0.00 |
| 05/06/26 6:13:27 PM | 36 | 12.0 | 15.0 | 56 | 45 | 72.0 | 75.0 | 29.994 | 7.26 | 0.0 | 204 | 0.00 | 0.00 | 0.00 | 0.00 |
| 05/06/26 6:14:19 PM | 32 | 11.0 | 15.0 | 56 | 45 | 72.0 | 74.9 | 29.996 | 7.26 | 0.0 | 200 | 0.00 | 0.00 | 0.00 | 0.00 |
| 05/06/26 6:15:54 PM | 38 | 7.0 | 15.0 | 56 | 46 | 72.0 | 74.7 | 29.999 | 7.26 | 0.0 | 197 | 0.00 | 0.00 | 0.00 | 0.00 |
| 05/06/26 6:16:29 PM | 38 | 7.0 | 15.0 | 56 | 46 | 72.0 | 74.6 | 29.999 | 7.26 | 0.0 | 193 | 0.00 | 0.00 | 0.00 | 0.00 |
| 05/06/26 6:17:18 PM | 32 | 8.0 | 15.0 | 56 | 46 | 72.0 | 74.4 | 30.000 | 7.26 | 0.0 | 190 | 0.00 | 0.00 | 0.00 | 0.00 |
| 05/06/26 6:18:26 PM | 36 | 5.0 | 15.0 | 56 | 47 | 72.0 | 74.3 | 29.997 | 7.26 | 0.0 | 188 | 0.00 | 0.00 | 0.00 | 0.00 |
| 05/06/26 6:19:18 PM | 37 | 5.0 | 15.0 | 56 | 47 | 72.0 | 74.3 | 29.998 | 7.26 | 0.0 | 185 | 0.00 | 0.00 | 0.00 | 0.00 |
| 05/06/26 6:20:32 PM | 34 | 5.0 | 15.0 | 56 | 47 | 72.0 | 74.2 | 29.999 | 7.26 | 0.0 | 183 | 0.00 | 0.00 | 0.00 | 0.00 |
| 05/06/26 6:21:21 PM | 36 | 10.0 | 15.0 | 56 | 47 | 72.0 | 74.2 | 30.000 | 7.26 | 0.0 | 178 | 0.00 | 0.00 | 0.00 | 0.00 |
| 05/06/26 6:22:35 PM | 34 | 11.0 | 15.0 | 56 | 47 | 72.1 | 74.2 | 29.999 | 7.26 | 0.0 | 174 | 0.00 | 0.00 | 0.00 | 0.00 |
| 05/06/26 6:23:24 PM | 37 | 6.0 | 15.0 | 56 | 47 | 72.0 | 74.2 | 29.999 | 7.26 | 0.0 | 171 | 0.00 | 0.00 | 0.00 | 0.00 |
| 05/06/26 6:24:35 PM | 37 | 10.0 | 15.0 | 56 | 47 | 72.0 | 74.1 | 30.000 | 7.26 | 0.0 | 162 | 0.00 | 0.00 | 0.00 | 0.00 |
| 05/06/26 6:25:24 PM | 36 | 10.0 | 15.0 | 56 | 48 | 72.0 | 74.1 | 29.998 | 7.26 | 0.0 | 162 | 0.00 | 0.00 | 0.00 | 0.00 |
| 05/06/26 6:26:17 PM | 32 | 8.0 | 15.0 | 56 | 47 | 72.0 | 74.0 | 29.998 | 7.26 | 0.0 | 158 | 0.00 | 0.00 | 0.00 | 0.00 |
| 05/06/26 6:27:27 PM | 38 | 5.0 | 15.0 | 56 | 48 | 72.0 | 73.9 | 29.999 | 7.26 | 0.0 | 149 | 0.00 | 0.00 | 0.00 | 0.00 |
| 05/06/26 6:28:20 PM | 38 | 6.0 | 15.0 | 56 | 48 | 72.1 | 73.9 | 29.997 | 7.26 | 0.0 | 146 | 0.00 | 0.00 | 0.00 | 0.00 |
| 05/06/26 6:29:28 PM | 32 | 9.0 | 15.0 | 56 | 48 | 72.1 | 73.8 | 29.997 | 7.26 | 0.0 | 144 | 0.00 | 0.00 | 0.00 | 0.00 |
| 05/06/26 6:30:23 PM | 38 | 5.0 | 15.0 | 56 | 48 | 72.1 | 73.7 | 29.999 | 7.26 | 0.0 | 139 | 0.00 | 0.00 | 0.00 | 0.00 |
| 05/06/26 6:31:34 PM | 34 | 4.0 | 15.0 | 56 | 48 | 72.0 | 73.6 | 29.997 | 7.26 | 0.0 | 125 | 0.00 | 0.00 | 0.00 | 0.00 |
| 05/06/26 6:32:26 PM | 36 | 7.0 | 15.0 | 56 | 49 | 72.1 | 73.5 | 30.001 | 7.26 | 0.0 | 95 | 0.00 | 0.00 | 0.00 | 0.00 |
| 05/06/26 6:33:19 PM | 36 | 5.0 | 15.0 | 56 | 48 | 72.1 | 73.5 | 30.001 | 7.26 | 0.0 | 100 | 0.00 | 0.00 | 0.00 | 0.00 |
| 05/06/26 6:34:26 PM | 36 | 3.0 | 15.0 | 56 | 48 | 72.1 | 73.4 | 30.001 | 7.26 | 0.0 | 91 | 0.00 | 0.00 | 0.00 | 0.00 |
| 05/06/26 6:35:16 PM | 38 | 6.0 | 15.0 | 56 | 48 | 72.1 | 73.4 | 30.002 | 7.26 | 0.0 | 91 | 0.00 | 0.00 | 0.00 | 0.00 |
| 05/06/26 6:36:29 PM | 31 | 5.0 | 15.0 | 56 | 49 | 72.1 | 73.3 | 30.001 | 7.26 | 0.0 | 91 | 0.00 | 0.00 | 0.00 | 0.00 |
| 05/06/26 6:37:22 PM | 36 | 3.0 | 15.0 | 56 | 49 | 72.1 | 73.3 | 30.003 | 7.26 | 0.0 | 105 | 0.00 | 0.00 | 0.00 | 0.00 |
| 05/06/26 6:38:32 PM | 35 | 6.0 | 15.0 | 56 | 49 | 72.1 | 73.3 | 30.002 | 7.26 | 0.0 | 111 | 0.00 | 0.00 | 0.00 | 0.00 |
| 05/06/26 6:39:25 PM | 38 | 6.0 | 15.0 | 56 | 49 | 72.1 | 73.3 | 30.003 | 7.26 | 0.0 | 107 | 0.00 | 0.00 | 0.00 | 0.00 |
| 05/06/26 6:40:32 PM | 35 | 5.0 | 15.0 | 56 | 50 | 72.1 | 73.2 | 30.000 | 7.26 | 0.0 | 86 | 0.00 | 0.00 | 0.00 | 0.00 |
| 05/06/26 6:41:25 PM | 35 | 3.0 | 15.0 | 56 | 49 | 72.1 | 73.2 | 30.003 | 7.26 | 0.0 | 86 | 0.00 | 0.00 | 0.00 | 0.00 |
| 05/06/26 6:42:17 PM | 37 | 6.0 | 15.0 | 56 | 49 | 72.0 | 73.2 | 30.001 | 7.26 | 0.0 | 79 | 0.00 | 0.00 | 0.00 | 0.00 |
| 05/06/26 6:43:28 PM | 36 | 5.0 | 15.0 | 56 | 49 | 72.0 | 73.1 | 30.003 | 7.26 | 0.0 | 63 | 0.00 | 0.00 | 0.00 | 0.00 |
| 05/06/26 6:44:20 PM | 36 | 9.0 | 15.0 | 56 | 49 | 72.1 | 73.1 | 30.003 | 7.26 | 0.0 | 69 | 0.00 | 0.00 | 0.00 | 0.00 |
| 05/06/26 6:45:49 PM | 38 | 11.0 | 15.0 | 56 | 50 | 72.1 | 73.0 | 30.004 | 7.26 | 0.0 | 69 | 0.00 | 0.00 | 0.00 | 0.00 |
| 05/06/26 6:46:21 PM | 35 | 4.0 | 15.0 | 56 | 50 | 72.1 | 72.9 | 30.003 | 7.26 | 0.0 | 65 | 0.00 | 0.00 | 0.00 | 0.00 |
| 05/06/26 6:47:34 PM | 36 | 6.0 | 15.0 | 56 | 50 | 72.1 | 72.9 | 30.003 | 7.26 | 0.0 | 62 | 0.00 | 0.00 | 0.00 | 0.00 |
| 05/06/26 6:48:24 PM | 36 | 4.0 | 15.0 | 56 | 50 | 72.1 | 72.8 | 30.004 | 7.26 | 0.0 | 58 | 0.00 | 0.00 | 0.00 | 0.00 |
| 05/06/26 6:49:16 PM | 37 | 4.0 | 15.0 | 56 | 50 | 72.1 | 72.7 | 30.004 | 7.26 | 0.0 | 58 | 0.00 | 0.00 | 0.00 | 0.00 |
| 05/06/26 6:50:30 PM | 35 | 4.0 | 15.0 | 56 | 50 | 72.0 | 72.7 | 30.005 | 7.26 | 0.0 | 46 | 0.00 | 0.00 | 0.00 | 0.00 |
| 05/06/26 6:51:16 PM | 34 | 6.0 | 15.0 | 56 | 50 | 72.1 | 72.6 | 30.007 | 7.26 | 0.0 | 39 | 0.00 | 0.00 | 0.00 | 0.00 |
| 05/06/26 6:52:27 PM | 37 | 5.0 | 15.0 | 56 | 50 | 72.1 | 72.6 | 30.008 | 7.26 | 0.0 | 33 | 0.00 | 0.00 | 0.00 | 0.00 |
| 05/06/26 6:53:19 PM | 35 | 4.0 | 15.0 | 56 | 50 | 72.0 | 72.5 | 30.006 | 7.26 | 0.0 | 32 | 0.00 | 0.00 | 0.00 | 0.00 |
| 05/06/26 6:54:33 PM | 35 | 6.0 | 15.0 | 56 | 50 | 72.1 | 72.5 | 30.005 | 7.26 | 0.0 | 32 | 0.00 | 0.00 | 0.00 | 0.00 |
| 05/06/26 6:55:26 PM | 36 | 3.0 | 15.0 | 56 | 50 | 72.0 | 72.4 | 30.007 | 7.26 | 0.0 | 32 | 0.00 | 0.00 | 0.00 | 0.00 |
| 05/06/26 6:56:33 PM | 35 | 4.0 | 15.0 | 56 | 50 | 72.0 | 72.4 | 30.009 | 7.26 | 0.0 | 32 | 0.00 | 0.00 | 0.00 | 0.00 |
| 05/06/26 6:57:26 PM | 38 | 6.0 | 15.0 | 56 | 50 | 72.0 | 72.3 | 30.006 | 7.26 | 0.0 | 30 | 0.00 | 0.00 | 0.00 | 0.00 |
| 05/06/26 6:58:18 PM | 35 | 5.0 | 15.0 | 56 | 50 | 72.0 | 72.3 | 30.007 | 7.26 | 0.0 | 30 | 0.00 | 0.00 | 0.00 | 0.00 |
| 05/06/26 6:59:29 PM | 35 | 3.0 | 15.0 | 56 | 51 | 72.0 | 72.2 | 30.006 | 7.26 | 0.0 | 30 | 0.00 | 0.00 | 0.00 | 0.00 |
| 05/06/26 7:00:46 PM | 35 | 4.0 | 15.0 | 56 | 51 | 72.0 | 72.2 | 30.009 | 7.26 | 0.0 | 32 | 0.00 | 0.00 | 0.00 | 0.00 |
| 05/06/26 7:01:35 PM | 37 | 4.0 | 15.0 | 56 | 51 | 72.0 | 72.1 | 30.008 | 7.26 | 0.0 | 30 | 0.00 | 0.00 | 0.00 | 0.00 |
| 05/06/26 7:02:22 PM | 37 | 7.0 | 15.0 | 56 | 51 | 72.0 | 72.1 | 30.009 | 7.26 | 0.0 | 28 | 0.00 | 0.00 | 0.00 | 0.00 |
| 05/06/26 7:03:33 PM | 34 | 9.0 | 15.0 | 56 | 51 | 72.0 | 72.1 | 30.008 | 7.26 | 0.0 | 26 | 0.00 | 0.00 | 0.00 | 0.00 |
| 05/06/26 7:04:25 PM | 38 | 4.0 | 15.0 | 56 | 51 | 72.0 | 72.0 | 30.010 | 7.26 | 0.0 | 26 | 0.00 | 0.00 | 0.00 | 0.00 |
| 05/06/26 7:05:18 PM | 35 | 3.0 | 15.0 | 56 | 51 | 72.0 | 71.9 | 30.008 | 7.26 | 0.0 | 26 | 0.00 | 0.00 | 0.00 | 0.00 |
| 05/06/26 7:06:28 PM | 38 | 2.0 | 15.0 | 56 | 52 | 72.0 | 71.9 | 30.010 | 7.26 | 0.0 | 25 | 0.00 | 0.00 | 0.00 | 0.00 |
| 05/06/26 7:07:18 PM | 36 | 4.0 | 15.0 | 56 | 52 | 72.0 | 71.8 | 30.011 | 7.26 | 0.0 | 25 | 0.00 | 0.00 | 0.00 | 0.00 |
| 05/06/26 7:08:31 PM | 37 | 3.0 | 15.0 | 56 | 52 | 72.0 | 71.8 | 30.011 | 7.26 | 0.0 | 25 | 0.00 | 0.00 | 0.00 | 0.00 |
| 05/06/26 7:09:21 PM | 32 | 3.0 | 15.0 | 56 | 52 | 71.9 | 71.7 | 30.011 | 7.26 | 0.0 | 23 | 0.00 | 0.00 | 0.00 | 0.00 |
| 05/06/26 7:10:35 PM | 35 | 3.0 | 15.0 | 56 | 52 | 71.9 | 71.7 | 30.013 | 7.26 | 0.0 | 21 | 0.00 | 0.00 | 0.00 | 0.00 |
| 05/06/26 7:11:27 PM | 36 | 4.0 | 15.0 | 56 | 52 | 71.9 | 71.7 | 30.009 | 7.26 | 0.0 | 19 | 0.00 | 0.00 | 0.00 | 0.00 |
| 05/06/26 7:12:17 PM | 36 | 6.0 | 15.0 | 56 | 52 | 71.9 | 71.6 | 30.009 | 7.26 | 0.0 | 19 | 0.00 | 0.00 | 0.00 | 0.00 |
| 05/06/26 7:13:27 PM | 38 | 2.0 | 15.0 | 56 | 52 | 71.9 | 71.6 | 30.011 | 7.26 | 0.0 | 18 | 0.00 | 0.00 | 0.00 | 0.00 |
| 05/06/26 7:14:17 PM | 37 | 5.0 | 15.0 | 56 | 52 | 71.9 | 71.5 | 30.010 | 7.26 | 0.0 | 18 | 0.00 | 0.00 | 0.00 | 0.00 |
| 05/06/26 7:15:33 PM | 35 | 4.0 | 15.0 | 56 | 52 | 71.9 | 71.4 | 30.010 | 7.26 | 0.0 | 16 | 0.00 | 0.00 | 0.00 | 0.00 |
| 05/06/26 7:16:23 PM | 38 | 4.0 | 15.0 | 56 | 52 | 71.9 | 71.4 | 30.010 | 7.26 | 0.0 | 16 | 0.00 | 0.00 | 0.00 | 0.00 |
| 05/06/26 7:17:37 PM | 35 | 5.0 | 15.0 | 56 | 52 | 71.9 | 71.3 | 30.012 | 7.26 | 0.0 | 14 | 0.00 | 0.00 | 0.00 | 0.00 |
| 05/06/26 7:18:26 PM | 37 | 2.0 | 15.0 | 56 | 52 | 71.9 | 71.3 | 30.011 | 7.26 | 0.0 | 14 | 0.00 | 0.00 | 0.00 | 0.00 |
| 05/06/26 7:19:19 PM | 34 | 3.0 | 15.0 | 56 | 52 | 71.8 | 71.2 | 30.012 | 7.26 | 0.0 | 14 | 0.00 | 0.00 | 0.00 | 0.00 |
| 05/06/26 7:20:29 PM | 32 | 1.0 | 15.0 | 56 | 53 | 71.8 | 71.2 | 30.012 | 7.26 | 0.0 | 12 | 0.00 | 0.00 | 0.00 | 0.00 |
| 05/06/26 7:21:22 PM | 38 | 3.0 | 15.0 | 56 | 53 | 71.8 | 71.1 | 30.012 | 7.26 | 0.0 | 12 | 0.00 | 0.00 | 0.00 | 0.00 |
| 05/06/26 7:22:33 PM | 34 | 5.0 | 15.0 | 56 | 53 | 71.8 | 71.1 | 30.010 | 7.26 | 0.0 | 11 | 0.00 | 0.00 | 0.00 | 0.00 |
| 05/06/26 7:23:22 PM | 38 | 3.0 | 15.0 | 56 | 53 | 71.8 | 71.0 | 30.011 | 7.26 | 0.0 | 11 | 0.00 | 0.00 | 0.00 | 0.00 |
| 05/06/26 7:24:36 PM | 36 | 2.0 | 15.0 | 56 | 53 | 71.8 | 71.0 | 30.011 | 7.26 | 0.0 | 9 | 0.00 | 0.00 | 0.00 | 0.00 |
| 05/06/26 7:25:29 PM | 38 | 1.0 | 15.0 | 56 | 53 | 71.8 | 70.9 | 30.012 | 7.26 | 0.0 | 9 | 0.00 | 0.00 | 0.00 | 0.00 |
| 05/06/26 7:26:21 PM | 34 | 3.0 | 15.0 | 56 | 53 | 71.7 | 70.9 | 30.011 | 7.26 | 0.0 | 9 | 0.00 | 0.00 | 0.00 | 0.00 |
| 05/06/26 7:27:32 PM | 36 | 2.0 | 15.0 | 56 | 53 | 71.7 | 70.8 | 30.011 | 7.26 | 0.0 | 9 | 0.00 | 0.00 | 0.00 | 0.00 |
| 05/06/26 7:28:24 PM | 35 | 4.0 | 15.0 | 56 | 54 | 71.7 | 70.8 | 30.013 | 7.26 | 0.0 | 7 | 0.00 | 0.00 | 0.00 | 0.00 |
| 05/06/26 7:29:32 PM | 36 | 4.0 | 15.0 | 56 | 54 | 71.7 | 70.7 | 30.009 | 7.26 | 0.0 | 7 | 0.00 | 0.00 | 0.00 | 0.00 |
| 05/06/26 7:30:25 PM | 37 | 4.0 | 15.0 | 56 | 54 | 71.6 | 70.7 | 30.011 | 7.26 | 0.0 | 7 | 0.00 | 0.00 | 0.00 | 0.00 |
| 05/06/26 7:31:35 PM | 36 | 4.0 | 15.0 | 56 | 54 | 71.7 | 70.6 | 30.012 | 7.26 | 0.0 | 7 | 0.00 | 0.00 | 0.00 | 0.00 |
| 05/06/26 7:32:28 PM | 35 | 3.0 | 15.0 | 56 | 54 | 71.6 | 70.6 | 30.012 | 7.26 | 0.0 | 5 | 0.00 | 0.00 | 0.00 | 0.00 |
| 05/06/26 7:33:21 PM | 38 | 3.0 | 15.0 | 56 | 54 | 71.6 | 70.5 | 30.014 | 7.26 | 0.0 | 5 | 0.00 | 0.00 | 0.00 | 0.00 |
| 05/06/26 7:34:28 PM | 35 | 2.0 | 15.0 | 56 | 54 | 71.6 | 70.5 | 30.013 | 7.26 | 0.0 | 5 | 0.00 | 0.00 | 0.00 | 0.00 |
| 05/06/26 7:35:21 PM | 38 | 4.0 | 15.0 | 56 | 54 | 71.5 | 70.4 | 30.011 | 7.26 | 0.0 | 5 | 0.00 | 0.00 | 0.00 | 0.00 |
| 05/06/26 7:36:31 PM | 36 | 5.0 | 15.0 | 56 | 54 | 71.6 | 70.4 | 30.015 | 7.26 | 0.0 | 5 | 0.00 | 0.00 | 0.00 | 0.00 |
| 05/06/26 7:37:24 PM | 32 | 2.0 | 15.0 | 56 | 54 | 71.5 | 70.3 | 30.011 | 7.26 | 0.0 | 0 | 0.00 | 0.00 | 0.00 | 0.00 |
| 05/06/26 7:38:35 PM | 35 | 0.0 | 15.0 | 56 | 54 | 71.5 | 70.3 | 30.016 | 7.26 | 0.0 | 0 | 0.00 | 0.00 | 0.00 | 0.00 |
| 05/06/26 7:39:24 PM | 38 | 3.0 | 15.0 | 56 | 54 | 71.5 | 70.3 | 30.013 | 7.26 | 0.0 | 0 | 0.00 | 0.00 | 0.00 | 0.00 |
| 05/06/26 7:40:35 PM | 34 | 3.0 | 15.0 | 56 | 55 | 71.5 | 70.2 | 30.014 | 7.26 | 0.0 | 0 | 0.00 | 0.00 | 0.00 | 0.00 |
| 05/06/26 7:41:28 PM | 35 | 2.0 | 15.0 | 56 | 55 | 71.5 | 70.2 | 30.017 | 7.26 | 0.0 | 0 | 0.00 | 0.00 | 0.00 | 0.00 |
| 05/06/26 7:42:17 PM | 36 | 1.0 | 15.0 | 56 | 55 | 71.5 | 70.2 | 30.016 | 7.26 | 0.0 | 0 | 0.00 | 0.00 | 0.00 | 0.00 |
| 05/06/26 7:43:31 PM | 38 | 3.0 | 15.0 | 56 | 55 | 71.5 | 70.1 | 30.015 | 7.26 | 0.0 | 0 | 0.00 | 0.00 | 0.00 | 0.00 |
| 05/06/26 7:44:23 PM | 37 | 1.0 | 15.0 | 56 | 55 | 71.5 | 70.1 | 30.018 | 7.26 | 0.0 | 0 | 0.00 | 0.00 | 0.00 | 0.00 |
| 05/06/26 7:45:34 PM | 36 | 4.0 | 15.0 | 56 | 55 | 71.4 | 70.0 | 30.017 | 7.26 | 0.0 | 0 | 0.00 | 0.00 | 0.00 | 0.00 |
| 05/06/26 7:46:27 PM | 35 | 3.0 | 15.0 | 56 | 55 | 71.4 | 70.0 | 30.020 | 7.26 | 0.0 | 0 | 0.00 | 0.00 | 0.00 | 0.00 |
| 05/06/26 7:47:19 PM | 36 | 1.0 | 15.0 | 56 | 55 | 71.4 | 70.0 | 30.018 | 7.26 | 0.0 | 0 | 0.00 | 0.00 | 0.00 | 0.00 |
| 05/06/26 7:48:30 PM | 36 | 4.0 | 15.0 | 56 | 55 | 71.4 | 69.9 | 30.019 | 7.26 | 0.0 | 0 | 0.00 | 0.00 | 0.00 | 0.00 |
| 05/06/26 7:49:23 PM | 32 | 2.0 | 15.0 | 56 | 56 | 71.4 | 69.9 | 30.019 | 7.26 | 0.0 | 0 | 0.00 | 0.00 | 0.00 | 0.00 |
| 05/06/26 7:50:30 PM | 36 | 2.0 | 15.0 | 56 | 56 | 71.4 | 69.9 | 30.020 | 7.26 | 0.0 | 0 | 0.00 | 0.00 | 0.00 | 0.00 |
| 05/06/26 7:51:23 PM | 36 | 2.0 | 15.0 | 56 | 56 | 71.3 | 69.8 | 30.020 | 7.26 | 0.0 | 0 | 0.00 | 0.00 | 0.00 | 0.00 |
| 05/06/26 7:52:36 PM | 38 | 4.0 | 15.0 | 56 | 56 | 71.3 | 69.8 | 30.021 | 7.26 | 0.0 | 0 | 0.00 | 0.00 | 0.00 | 0.00 |
| 05/06/26 7:53:29 PM | 37 | 2.0 | 15.0 | 56 | 56 | 71.3 | 69.7 | 30.021 | 7.26 | 0.0 | 0 | 0.00 | 0.00 | 0.00 | 0.00 |
| 05/06/26 7:54:18 PM | 35 | 2.0 | 15.0 | 56 | 56 | 71.3 | 69.7 | 30.019 | 7.26 | 0.0 | 0 | 0.00 | 0.00 | 0.00 | 0.00 |
| 05/06/26 7:55:29 PM | 36 | 2.0 | 15.0 | 56 | 56 | 71.2 | 69.6 | 30.020 | 7.26 | 0.0 | 0 | 0.00 | 0.00 | 0.00 | 0.00 |
| 05/06/26 7:56:22 PM | 36 | 3.0 | 15.0 | 56 | 56 | 71.3 | 69.5 | 30.021 | 7.26 | 0.0 | 0 | 0.00 | 0.00 | 0.00 | 0.00 |
| 05/06/26 7:57:33 PM | 34 | 2.0 | 15.0 | 56 | 56 | 71.2 | 69.5 | 30.024 | 7.26 | 0.0 | 0 | 0.00 | 0.00 | 0.00 | 0.00 |
| 05/06/26 7:58:28 PM | 37 | 1.0 | 15.0 | 56 | 56 | 71.2 | 69.4 | 30.022 | 7.26 | 0.0 | 0 | 0.00 | 0.00 | 0.00 | 0.00 |
| 05/06/26 7:59:18 PM | 36 | 1.0 | 15.0 | 56 | 56 | 71.2 | 69.3 | 30.021 | 7.26 | 0.0 | 0 | 0.00 | 0.00 | 0.00 | 0.00 |
| 05/06/26 8:00:32 PM | 36 | 0.0 | 15.0 | 56 | 56 | 71.2 | 69.2 | 30.022 | 7.26 | 0.0 | 0 | 0.00 | 0.00 | 0.00 | 0.00 |
| 05/06/26 8:01:18 PM | 38 | 0.0 | 15.0 | 56 | 57 | 71.2 | 69.2 | 30.024 | 7.26 | 0.0 | 0 | 0.00 | 0.00 | 0.00 | 0.00 |
| 05/06/26 8:02:29 PM | 34 | 0.0 | 15.0 | 56 | 57 | 71.2 | 69.1 | 30.024 | 7.26 | 0.0 | 0 | 0.00 | 0.00 | 0.00 | 0.00 |
| 05/06/26 8:03:22 PM | 36 | 2.0 | 15.0 | 56 | 57 | 71.1 | 69.1 | 30.026 | 7.26 | 0.0 | 0 | 0.00 | 0.00 | 0.00 | 0.00 |
| 05/06/26 8:04:36 PM | 34 | 0.0 | 15.0 | 56 | 57 | 71.1 | 69.0 | 30.023 | 7.26 | 0.0 | 0 | 0.00 | 0.00 | 0.00 | 0.00 |
| 05/06/26 8:05:25 PM | 37 | 2.0 | 15.0 | 56 | 57 | 71.1 | 69.0 | 30.023 | 7.26 | 0.0 | 0 | 0.00 | 0.00 | 0.00 | 0.00 |
| 05/06/26 8:06:36 PM | 38 | 1.0 | 15.0 | 56 | 57 | 71.0 | 68.9 | 30.024 | 7.26 | 0.0 | 0 | 0.00 | 0.00 | 0.00 | 0.00 |
| 05/06/26 8:07:29 PM | 36 | 1.0 | 15.0 | 56 | 57 | 71.0 | 68.8 | 30.025 | 7.26 | 0.0 | 0 | 0.00 | 0.00 | 0.00 | 0.00 |
| 05/06/26 8:08:18 PM | 37 | 2.0 | 15.0 | 56 | 58 | 71.0 | 68.8 | 30.023 | 7.26 | 0.0 | 0 | 0.00 | 0.00 | 0.00 | 0.00 |
| 05/06/26 8:09:32 PM | 34 | 1.0 | 15.0 | 56 | 58 | 71.0 | 68.7 | 30.026 | 7.26 | 0.0 | 0 | 0.00 | 0.00 | 0.00 | 0.00 |
| 05/06/26 8:10:21 PM | 37 | 0.0 | 15.0 | 56 | 58 | 71.0 | 68.6 | 30.026 | 7.26 | 0.0 | 0 | 0.00 | 0.00 | 0.00 | 0.00 |
| 05/06/26 8:11:32 PM | 32 | 1.0 | 15.0 | 56 | 58 | 70.9 | 68.6 | 30.023 | 7.26 | 0.0 | 0 | 0.00 | 0.00 | 0.00 | 0.00 |
| 05/06/26 8:12:25 PM | 35 | 1.0 | 15.0 | 56 | 58 | 70.9 | 68.5 | 30.025 | 7.26 | 0.0 | 0 | 0.00 | 0.00 | 0.00 | 0.00 |
| 05/06/26 8:13:35 PM | 36 | 0.0 | 15.0 | 56 | 58 | 70.9 | 68.5 | 30.025 | 7.26 | 0.0 | 0 | 0.00 | 0.00 | 0.00 | 0.00 |
| 05/06/26 8:14:25 PM | 36 | 0.0 | 15.0 | 56 | 58 | 70.8 | 68.4 | 30.027 | 7.26 | 0.0 | 0 | 0.00 | 0.00 | 0.00 | 0.00 |
| 05/06/26 8:15:21 PM | 34 | 0.0 | 15.0 | 56 | 58 | 70.8 | 68.4 | 30.029 | 7.26 | 0.0 | 0 | 0.00 | 0.00 | 0.00 | 0.00 |
| 05/06/26 8:16:28 PM | 32 | 0.0 | 15.0 | 56 | 58 | 70.8 | 68.3 | 30.027 | 7.26 | 0.0 | 0 | 0.00 | 0.00 | 0.00 | 0.00 |
| 05/06/26 8:17:18 PM | 37 | 0.0 | 15.0 | 56 | 59 | 70.8 | 68.3 | 30.028 | 7.26 | 0.0 | 0 | 0.00 | 0.00 | 0.00 | 0.00 |
| 05/06/26 8:18:29 PM | 36 | 0.0 | 15.0 | 56 | 59 | 70.7 | 68.3 | 30.029 | 7.26 | 0.0 | 0 | 0.00 | 0.00 | 0.00 | 0.00 |
| 05/06/26 8:19:21 PM | 38 | 0.0 | 15.0 | 56 | 59 | 70.8 | 68.2 | 30.030 | 7.26 | 0.0 | 0 | 0.00 | 0.00 | 0.00 | 0.00 |
| 05/06/26 8:20:32 PM | 38 | 2.0 | 15.0 | 56 | 59 | 70.7 | 68.1 | 30.031 | 7.26 | 0.0 | 0 | 0.00 | 0.00 | 0.00 | 0.00 |
| 05/06/26 8:21:28 PM | 34 | 2.0 | 15.0 | 56 | 59 | 70.7 | 68.1 | 30.031 | 7.26 | 0.0 | 0 | 0.00 | 0.00 | 0.00 | 0.00 |
| 05/06/26 8:22:33 PM | 31 | 5.0 | 15.0 | 56 | 59 | 70.7 | 68.0 | 30.030 | 7.26 | 0.0 | 0 | 0.00 | 0.00 | 0.00 | 0.00 |
| 05/06/26 8:23:25 PM | 32 | 3.0 | 15.0 | 56 | 60 | 70.7 | 68.0 | 30.030 | 7.26 | 0.0 | 0 | 0.00 | 0.00 | 0.00 | 0.00 |
| 05/06/26 8:24:18 PM | 35 | 3.0 | 15.0 | 56 | 60 | 70.6 | 67.9 | 30.032 | 7.26 | 0.0 | 0 | 0.00 | 0.00 | 0.00 | 0.00 |
| 05/06/26 8:25:28 PM | 38 | 3.0 | 15.0 | 56 | 60 | 70.6 | 67.8 | 30.032 | 7.26 | 0.0 | 0 | 0.00 | 0.00 | 0.00 | 0.00 |
| 05/06/26 8:26:21 PM | 36 | 2.0 | 15.0 | 56 | 60 | 70.7 | 67.8 | 30.032 | 7.26 | 0.0 | 0 | 0.00 | 0.00 | 0.00 | 0.00 |
| 05/06/26 8:27:29 PM | 37 | 1.0 | 15.0 | 56 | 60 | 70.6 | 67.7 | 30.032 | 7.26 | 0.0 | 0 | 0.00 | 0.00 | 0.00 | 0.00 |
| 05/06/26 8:28:21 PM | 36 | 1.0 | 15.0 | 56 | 60 | 70.6 | 67.7 | 30.032 | 7.26 | 0.0 | 0 | 0.00 | 0.00 | 0.00 | 0.00 |
| 05/06/26 8:29:32 PM | 38 | 0.0 | 15.0 | 56 | 60 | 70.6 | 67.7 | 30.034 | 7.26 | 0.0 | 0 | 0.00 | 0.00 | 0.00 | 0.00 |
| 05/06/26 8:30:25 PM | 35 | 1.0 | 15.0 | 56 | 60 | 70.6 | 67.6 | 30.033 | 7.26 | 0.0 | 0 | 0.00 | 0.00 | 0.00 | 0.00 |
| 05/06/26 8:31:35 PM | 36 | 1.0 | 15.0 | 56 | 60 | 70.5 | 67.6 | 30.033 | 7.26 | 0.0 | 0 | 0.00 | 0.00 | 0.00 | 0.00 |
| 05/06/26 8:32:28 PM | 34 | 0.0 | 15.0 | 56 | 60 | 70.5 | 67.6 | 30.034 | 7.26 | 0.0 | 0 | 0.00 | 0.00 | 0.00 | 0.00 |
| 05/06/26 8:33:35 PM | 32 | 3.0 | 15.0 | 56 | 61 | 70.5 | 67.6 | 30.033 | 7.26 | 0.0 | 0 | 0.00 | 0.00 | 0.00 | 0.00 |
| 05/06/26 8:34:28 PM | 36 | 2.0 | 15.0 | 56 | 61 | 70.5 | 67.6 | 30.034 | 7.26 | 0.0 | 0 | 0.00 | 0.00 | 0.00 | 0.00 |
| 05/06/26 8:35:21 PM | 36 | 2.0 | 15.0 | 56 | 61 | 70.5 | 67.5 | 30.035 | 7.26 | 0.0 | 0 | 0.00 | 0.00 | 0.00 | 0.00 |
| 05/06/26 8:36:31 PM | 38 | 1.0 | 15.0 | 56 | 61 | 70.5 | 67.5 | 30.036 | 7.26 | 0.0 | 0 | 0.00 | 0.00 | 0.00 | 0.00 |
| 05/06/26 8:37:24 PM | 37 | 0.0 | 15.0 | 56 | 61 | 70.5 | 67.5 | 30.037 | 7.26 | 0.0 | 0 | 0.00 | 0.00 | 0.00 | 0.00 |
| 05/06/26 8:38:32 PM | 36 | 1.0 | 15.0 | 56 | 61 | 70.4 | 67.5 | 30.036 | 7.26 | 0.0 | 0 | 0.00 | 0.00 | 0.00 | 0.00 |
| 05/06/26 8:39:21 PM | 36 | 3.0 | 15.0 | 56 | 61 | 70.4 | 67.5 | 30.034 | 7.26 | 0.0 | 0 | 0.00 | 0.00 | 0.00 | 0.00 |
| 05/06/26 8:40:35 PM | 36 | 3.0 | 15.0 | 56 | 61 | 70.4 | 67.4 | 30.040 | 7.26 | 0.0 | 0 | 0.00 | 0.00 | 0.00 | 0.00 |
| 05/06/26 8:41:28 PM | 38 | 3.0 | 15.0 | 56 | 61 | 70.3 | 67.3 | 30.039 | 7.26 | 0.0 | 0 | 0.00 | 0.00 | 0.00 | 0.00 |
| 05/06/26 8:42:20 PM | 36 | 3.0 | 15.0 | 56 | 61 | 70.4 | 67.3 | 30.040 | 7.26 | 0.0 | 0 | 0.00 | 0.00 | 0.00 | 0.00 |
| 05/06/26 8:43:28 PM | 36 | 2.0 | 15.0 | 56 | 61 | 70.3 | 67.2 | 30.041 | 7.26 | 0.0 | 0 | 0.00 | 0.00 | 0.00 | 0.00 |
| 05/06/26 8:44:21 PM | 32 | 2.0 | 15.0 | 56 | 61 | 70.3 | 67.1 | 30.042 | 7.26 | 0.0 | 0 | 0.00 | 0.00 | 0.00 | 0.00 |
| 05/06/26 8:45:55 PM | 38 | 2.0 | 15.0 | 56 | 61 | 70.3 | 67.1 | 30.042 | 7.26 | 0.0 | 0 | 0.00 | 0.00 | 0.00 | 0.00 |
| 05/06/26 8:46:27 PM | 36 | 2.0 | 15.0 | 56 | 61 | 70.2 | 67.0 | 30.042 | 7.26 | 0.0 | 0 | 0.00 | 0.00 | 0.00 | 0.00 |
| 05/06/26 8:47:20 PM | 31 | 1.0 | 15.0 | 56 | 62 | 70.2 | 66.9 | 30.042 | 7.26 | 0.0 | 0 | 0.00 | 0.00 | 0.00 | 0.00 |
| 05/06/26 8:48:30 PM | 39 | 0.0 | 15.0 | 56 | 61 | 70.1 | 66.9 | 30.039 | 7.26 | 0.0 | 0 | 0.00 | 0.00 | 0.00 | 0.00 |
| 05/06/26 8:49:20 PM | 36 | 0.0 | 15.0 | 56 | 62 | 70.2 | 66.8 | 30.041 | 7.26 | 0.0 | 0 | 0.00 | 0.00 | 0.00 | 0.00 |
| 05/06/26 8:50:30 PM | 31 | 0.0 | 15.0 | 56 | 62 | 70.1 | 66.8 | 30.042 | 7.26 | 0.0 | 0 | 0.00 | 0.00 | 0.00 | 0.00 |
| 05/06/26 8:51:23 PM | 38 | 0.0 | 15.0 | 56 | 62 | 70.1 | 66.8 | 30.041 | 7.26 | 0.0 | 0 | 0.00 | 0.00 | 0.00 | 0.00 |
| 05/06/26 8:52:37 PM | 35 | 0.0 | 15.0 | 56 | 62 | 70.0 | 66.7 | 30.040 | 7.26 | 0.0 | 0 | 0.00 | 0.00 | 0.00 | 0.00 |
| 05/06/26 8:53:26 PM | 36 | 2.0 | 15.0 | 56 | 62 | 70.0 | 66.7 | 30.039 | 7.26 | 0.0 | 0 | 0.00 | 0.00 | 0.00 | 0.00 |
| 05/06/26 8:54:19 PM | 36 | 2.0 | 15.0 | 56 | 62 | 70.0 | 66.7 | 30.043 | 7.26 | 0.0 | 0 | 0.00 | 0.00 | 0.00 | 0.00 |
| 05/06/26 8:55:27 PM | 34 | 1.0 | 15.0 | 56 | 62 | 70.0 | 66.6 | 30.042 | 7.26 | 0.0 | 0 | 0.00 | 0.00 | 0.00 | 0.00 |
| 05/06/26 8:56:19 PM | 38 | 1.0 | 15.0 | 56 | 62 | 69.9 | 66.6 | 30.041 | 7.26 | 0.0 | 0 | 0.00 | 0.00 | 0.00 | 0.00 |
| 05/06/26 8:57:30 PM | 36 | 0.0 | 15.0 | 56 | 62 | 69.9 | 66.5 | 30.042 | 7.26 | 0.0 | 0 | 0.00 | 0.00 | 0.00 | 0.00 |
| 05/06/26 8:58:23 PM | 37 | 2.0 | 15.0 | 56 | 62 | 69.9 | 66.5 | 30.043 | 7.26 | 0.0 | 0 | 0.00 | 0.00 | 0.00 | 0.00 |
| 05/06/26 8:59:37 PM | 35 | 0.0 | 15.0 | 56 | 62 | 69.9 | 66.4 | 30.042 | 7.26 | 0.0 | 0 | 0.00 | 0.00 | 0.00 | 0.00 |
| 05/06/26 9:00:26 PM | 35 | 2.0 | 15.0 | 56 | 62 | 69.9 | 66.3 | 30.044 | 7.26 | 0.0 | 0 | 0.00 | 0.00 | 0.00 | 0.00 |
| 05/06/26 9:01:37 PM | 36 | 1.0 | 15.0 | 56 | 62 | 69.8 | 66.3 | 30.043 | 7.26 | 0.0 | 0 | 0.00 | 0.00 | 0.00 | 0.00 |
| 05/06/26 9:02:30 PM | 36 | 1.0 | 15.0 | 56 | 62 | 69.8 | 66.3 | 30.044 | 7.26 | 0.0 | 0 | 0.00 | 0.00 | 0.00 | 0.00 |
| 05/06/26 9:03:19 PM | 38 | 2.0 | 15.0 | 56 | 63 | 69.8 | 66.2 | 30.044 | 7.26 | 0.0 | 0 | 0.00 | 0.00 | 0.00 | 0.00 |
| 05/06/26 9:04:30 PM | 36 | 2.0 | 15.0 | 56 | 63 | 69.8 | 66.1 | 30.044 | 7.26 | 0.0 | 0 | 0.00 | 0.00 | 0.00 | 0.00 |
| 05/06/26 9:05:19 PM | 35 | 2.0 | 15.0 | 56 | 63 | 69.8 | 66.1 | 30.044 | 7.26 | 0.0 | 0 | 0.00 | 0.00 | 0.00 | 0.00 |
| 05/06/26 9:06:30 PM | 38 | 1.0 | 15.0 | 56 | 63 | 69.8 | 66.0 | 30.046 | 7.26 | 0.0 | 0 | 0.00 | 0.00 | 0.00 | 0.00 |
| 05/06/26 9:07:23 PM | 36 | 3.0 | 15.0 | 56 | 63 | 69.7 | 66.0 | 30.046 | 7.26 | 0.0 | 0 | 0.00 | 0.00 | 0.00 | 0.00 |
| 05/06/26 9:08:33 PM | 36 | 2.0 | 15.0 | 56 | 63 | 69.7 | 65.9 | 30.046 | 7.26 | 0.0 | 0 | 0.00 | 0.00 | 0.00 | 0.00 |
| 05/06/26 9:09:26 PM | 36 | 2.0 | 15.0 | 56 | 63 | 69.7 | 65.9 | 30.048 | 7.26 | 0.0 | 0 | 0.00 | 0.00 | 0.00 | 0.00 |
| 05/06/26 9:10:19 PM | 37 | 1.0 | 15.0 | 56 | 63 | 69.7 | 65.9 | 30.046 | 7.26 | 0.0 | 0 | 0.00 | 0.00 | 0.00 | 0.00 |
| 05/06/26 9:11:26 PM | 38 | 2.0 | 15.0 | 56 | 63 | 69.7 | 65.8 | 30.047 | 7.26 | 0.0 | 0 | 0.00 | 0.00 | 0.00 | 0.00 |
| 05/06/26 9:12:19 PM | 38 | 2.0 | 15.0 | 56 | 64 | 69.7 | 65.8 | 30.047 | 7.26 | 0.0 | 0 | 0.00 | 0.00 | 0.00 | 0.00 |
| 05/06/26 9:13:33 PM | 35 | 2.0 | 15.0 | 56 | 64 | 69.7 | 65.7 | 30.048 | 7.26 | 0.0 | 0 | 0.00 | 0.00 | 0.00 | 0.00 |
| 05/06/26 9:14:22 PM | 36 | 2.0 | 15.0 | 56 | 64 | 69.7 | 65.7 | 30.050 | 7.26 | 0.0 | 0 | 0.00 | 0.00 | 0.00 | 0.00 |
| 05/06/26 9:15:36 PM | 35 | 2.0 | 15.0 | 56 | 64 | 69.6 | 65.6 | 30.047 | 7.26 | 0.0 | 0 | 0.00 | 0.00 | 0.00 | 0.00 |
| 05/06/26 9:16:23 PM | 36 | 1.0 | 15.0 | 56 | 64 | 69.6 | 65.6 | 30.051 | 7.26 | 0.0 | 0 | 0.00 | 0.00 | 0.00 | 0.00 |
| 05/06/26 9:17:37 PM | 32 | 1.0 | 15.0 | 56 | 64 | 69.6 | 65.5 | 30.051 | 7.26 | 0.0 | 0 | 0.00 | 0.00 | 0.00 | 0.00 |
| 05/06/26 9:18:29 PM | 38 | 0.0 | 15.0 | 56 | 64 | 69.5 | 65.5 | 30.049 | 7.26 | 0.0 | 0 | 0.00 | 0.00 | 0.00 | 0.00 |
| 05/06/26 9:19:22 PM | 35 | 0.0 | 15.0 | 56 | 64 | 69.5 | 65.5 | 30.050 | 7.26 | 0.0 | 0 | 0.00 | 0.00 | 0.00 | 0.00 |
| 05/06/26 9:20:33 PM | 36 | 0.0 | 15.0 | 56 | 64 | 69.4 | 65.4 | 30.051 | 7.26 | 0.0 | 0 | 0.00 | 0.00 | 0.00 | 0.00 |
| 05/06/26 9:21:19 PM | 36 | 0.0 | 15.0 | 56 | 64 | 69.4 | 65.4 | 30.050 | 7.26 | 0.0 | 0 | 0.00 | 0.00 | 0.00 | 0.00 |
| 05/06/26 9:22:33 PM | 32 | 0.0 | 15.0 | 56 | 64 | 69.4 | 65.4 | 30.051 | 7.26 | 0.0 | 0 | 0.00 | 0.00 | 0.00 | 0.00 |
| 05/06/26 9:23:26 PM | 34 | 0.0 | 15.0 | 56 | 64 | 69.4 | 65.4 | 30.051 | 7.26 | 0.0 | 0 | 0.00 | 0.00 | 0.00 | 0.00 |
| 05/06/26 9:24:19 PM | 35 | 0.0 | 15.0 | 56 | 64 | 69.3 | 65.3 | 30.050 | 7.26 | 0.0 | 0 | 0.00 | 0.00 | 0.00 | 0.00 |
| 05/06/26 9:25:29 PM | 34 | 2.0 | 15.0 | 56 | 64 | 69.2 | 65.3 | 30.050 | 7.26 | 0.0 | 0 | 0.00 | 0.00 | 0.00 | 0.00 |
| 05/06/26 9:26:22 PM | 36 | 1.0 | 15.0 | 56 | 64 | 69.2 | 65.2 | 30.053 | 7.26 | 0.0 | 0 | 0.00 | 0.00 | 0.00 | 0.00 |
| 05/06/26 9:27:30 PM | 37 | 2.0 | 15.0 | 56 | 64 | 69.2 | 65.1 | 30.053 | 7.26 | 0.0 | 0 | 0.00 | 0.00 | 0.00 | 0.00 |
| 05/06/26 9:28:22 PM | 37 | 3.0 | 15.0 | 56 | 64 | 69.1 | 65.0 | 30.051 | 7.26 | 0.0 | 0 | 0.00 | 0.00 | 0.00 | 0.00 |
| 05/06/26 9:29:33 PM | 37 | 2.0 | 15.0 | 56 | 64 | 69.1 | 64.9 | 30.052 | 7.26 | 0.0 | 0 | 0.00 | 0.00 | 0.00 | 0.00 |
| 05/06/26 9:30:50 PM | 38 | 3.0 | 15.0 | 56 | 64 | 69.1 | 64.8 | 30.052 | 7.26 | 0.0 | 0 | 0.00 | 0.00 | 0.00 | 0.00 |
| 05/06/26 9:31:19 PM | 34 | 1.0 | 15.0 | 56 | 64 | 69.0 | 64.7 | 30.052 | 7.26 | 0.0 | 0 | 0.00 | 0.00 | 0.00 | 0.00 |
| 05/06/26 9:32:26 PM | 38 | 3.0 | 15.0 | 56 | 65 | 69.0 | 64.5 | 30.053 | 7.26 | 0.0 | 0 | 0.00 | 0.00 | 0.00 | 0.00 |
| 05/06/26 9:33:16 PM | 36 | 3.0 | 15.0 | 56 | 65 | 69.0 | 64.4 | 30.052 | 7.26 | 0.0 | 0 | 0.00 | 0.00 | 0.00 | 0.00 |
| 05/06/26 9:34:30 PM | 34 | 2.0 | 15.0 | 56 | 65 | 68.9 | 64.3 | 30.052 | 7.26 | 0.0 | 0 | 0.00 | 0.00 | 0.00 | 0.00 |
| 05/06/26 9:35:23 PM | 38 | 2.0 | 15.0 | 56 | 65 | 68.9 | 64.2 | 30.052 | 7.26 | 0.0 | 0 | 0.00 | 0.00 | 0.00 | 0.00 |
| 05/06/26 9:36:34 PM | 34 | 3.0 | 15.0 | 56 | 65 | 68.9 | 64.1 | 30.053 | 7.26 | 0.0 | 0 | 0.00 | 0.00 | 0.00 | 0.00 |
| 05/06/26 9:37:26 PM | 38 | 2.0 | 15.0 | 56 | 66 | 68.8 | 64.0 | 30.052 | 7.26 | 0.0 | 0 | 0.00 | 0.00 | 0.00 | 0.00 |
| 05/06/26 9:38:34 PM | 36 | 2.0 | 15.0 | 56 | 66 | 68.8 | 63.9 | 30.052 | 7.26 | 0.0 | 0 | 0.00 | 0.00 | 0.00 | 0.00 |
| 05/06/26 9:39:27 PM | 32 | 2.0 | 15.0 | 56 | 66 | 68.7 | 63.8 | 30.052 | 7.26 | 0.0 | 0 | 0.00 | 0.00 | 0.00 | 0.00 |
| 05/06/26 9:40:16 PM | 35 | 3.0 | 15.0 | 56 | 67 | 68.7 | 63.7 | 30.057 | 7.26 | 0.0 | 0 | 0.00 | 0.00 | 0.00 | 0.00 |
| 05/06/26 9:41:30 PM | 32 | 2.0 | 15.0 | 56 | 67 | 68.7 | 63.7 | 30.055 | 7.26 | 0.0 | 0 | 0.00 | 0.00 | 0.00 | 0.00 |
| 05/06/26 9:42:23 PM | 38 | 3.0 | 15.0 | 56 | 67 | 68.7 | 63.7 | 30.055 | 7.26 | 0.0 | 0 | 0.00 | 0.00 | 0.00 | 0.00 |
| 05/06/26 9:43:30 PM | 38 | 3.0 | 15.0 | 56 | 67 | 68.6 | 63.6 | 30.056 | 7.26 | 0.0 | 0 | 0.00 | 0.00 | 0.00 | 0.00 |
| 05/06/26 9:44:20 PM | 35 | 2.0 | 15.0 | 56 | 67 | 68.6 | 63.6 | 30.056 | 7.26 | 0.0 | 0 | 0.00 | 0.00 | 0.00 | 0.00 |
| 05/06/26 9:45:34 PM | 31 | 3.0 | 15.0 | 56 | 67 | 68.5 | 63.6 | 30.056 | 7.26 | 0.0 | 0 | 0.00 | 0.00 | 0.00 | 0.00 |
| 05/06/26 9:46:26 PM | 36 | 2.0 | 15.0 | 56 | 67 | 68.5 | 63.5 | 30.056 | 7.26 | 0.0 | 0 | 0.00 | 0.00 | 0.00 | 0.00 |
| 05/06/26 9:47:19 PM | 32 | 2.0 | 15.0 | 56 | 67 | 68.5 | 63.5 | 30.055 | 7.26 | 0.0 | 0 | 0.00 | 0.00 | 0.00 | 0.00 |
| 05/06/26 9:48:27 PM | 38 | 2.0 | 15.0 | 56 | 68 | 68.4 | 63.5 | 30.056 | 7.26 | 0.0 | 0 | 0.00 | 0.00 | 0.00 | 0.00 |
| 05/06/26 9:49:19 PM | 36 | 2.0 | 15.0 | 56 | 68 | 68.4 | 63.5 | 30.057 | 7.26 | 0.0 | 0 | 0.00 | 0.00 | 0.00 | 0.00 |
| 05/06/26 9:50:30 PM | 34 | 1.0 | 15.0 | 56 | 68 | 68.4 | 63.4 | 30.056 | 7.26 | 0.0 | 0 | 0.00 | 0.00 | 0.00 | 0.00 |
| 05/06/26 9:51:23 PM | 38 | 3.0 | 15.0 | 56 | 68 | 68.3 | 63.4 | 30.056 | 7.26 | 0.0 | 0 | 0.00 | 0.00 | 0.00 | 0.00 |
| 05/06/26 9:52:34 PM | 32 | 2.0 | 15.0 | 56 | 68 | 68.3 | 63.3 | 30.054 | 7.26 | 0.0 | 0 | 0.00 | 0.00 | 0.00 | 0.00 |
| 05/06/26 9:53:26 PM | 32 | 3.0 | 15.0 | 56 | 68 | 68.3 | 63.3 | 30.056 | 7.26 | 0.0 | 0 | 0.00 | 0.00 | 0.00 | 0.00 |
| 05/06/26 9:54:34 PM | 32 | 3.0 | 15.0 | 56 | 68 | 68.3 | 63.2 | 30.057 | 7.26 | 0.0 | 0 | 0.00 | 0.00 | 0.00 | 0.00 |
| 05/06/26 9:55:24 PM | 37 | 2.0 | 15.0 | 56 | 68 | 68.3 | 63.1 | 30.057 | 7.26 | 0.0 | 0 | 0.00 | 0.00 | 0.00 | 0.00 |
| 05/06/26 9:56:34 PM | 37 | 3.0 | 15.0 | 56 | 68 | 68.2 | 63.1 | 30.055 | 7.26 | 0.0 | 0 | 0.00 | 0.00 | 0.00 | 0.00 |
| 05/06/26 9:57:27 PM | 36 | 3.0 | 15.0 | 56 | 68 | 68.2 | 63.0 | 30.056 | 7.26 | 0.0 | 0 | 0.00 | 0.00 | 0.00 | 0.00 |
| 05/06/26 9:58:20 PM | 36 | 2.0 | 15.0 | 56 | 68 | 68.2 | 63.0 | 30.058 | 7.26 | 0.0 | 0 | 0.00 | 0.00 | 0.00 | 0.00 |
| 05/06/26 9:59:31 PM | 35 | 2.0 | 15.0 | 56 | 68 | 68.2 | 62.9 | 30.057 | 7.26 | 0.0 | 0 | 0.00 | 0.00 | 0.00 | 0.00 |
| 05/06/26 10:00:23 PM | 38 | 2.0 | 15.0 | 56 | 68 | 68.1 | 62.9 | 30.058 | 7.26 | 0.0 | 0 | 0.00 | 0.00 | 0.00 | 0.00 |
| 05/06/26 10:01:34 PM | 36 | 2.0 | 15.0 | 56 | 68 | 68.1 | 62.9 | 30.061 | 7.26 | 0.0 | 0 | 0.00 | 0.00 | 0.00 | 0.00 |
| 05/06/26 10:02:24 PM | 35 | 1.0 | 15.0 | 56 | 68 | 68.1 | 62.8 | 30.061 | 7.26 | 0.0 | 0 | 0.00 | 0.00 | 0.00 | 0.00 |
| 05/06/26 10:03:17 PM | 34 | 1.0 | 15.0 | 56 | 68 | 68.1 | 62.8 | 30.063 | 7.26 | 0.0 | 0 | 0.00 | 0.00 | 0.00 | 0.00 |
| 05/06/26 10:04:24 PM | 36 | 0.0 | 15.0 | 56 | 68 | 68.1 | 62.7 | 30.063 | 7.26 | 0.0 | 0 | 0.00 | 0.00 | 0.00 | 0.00 |
| 05/06/26 10:05:17 PM | 36 | 1.0 | 15.0 | 56 | 68 | 68.1 | 62.7 | 30.063 | 7.26 | 0.0 | 0 | 0.00 | 0.00 | 0.00 | 0.00 |
| 05/06/26 10:06:31 PM | 35 | 2.0 | 15.0 | 56 | 68 | 68.1 | 62.6 | 30.063 | 7.26 | 0.0 | 0 | 0.00 | 0.00 | 0.00 | 0.00 |
| 05/06/26 10:07:24 PM | 40 | 1.0 | 15.0 | 56 | 69 | 68.1 | 62.6 | 30.062 | 7.26 | 0.0 | 0 | 0.00 | 0.00 | 0.00 | 0.00 |
| 05/06/26 10:08:34 PM | 32 | 2.0 | 15.0 | 56 | 69 | 68.1 | 62.5 | 30.063 | 7.26 | 0.0 | 0 | 0.00 | 0.00 | 0.00 | 0.00 |
| 05/06/26 10:09:24 PM | 31 | 1.0 | 15.0 | 56 | 69 | 68.2 | 62.5 | 30.062 | 7.26 | 0.0 | 0 | 0.00 | 0.00 | 0.00 | 0.00 |
| 05/06/26 10:10:32 PM | 38 | 2.0 | 15.0 | 56 | 69 | 68.2 | 62.4 | 30.062 | 7.26 | 0.0 | 0 | 0.00 | 0.00 | 0.00 | 0.00 |
| 05/06/26 10:11:25 PM | 35 | 2.0 | 15.0 | 56 | 69 | 68.2 | 62.4 | 30.062 | 7.26 | 0.0 | 0 | 0.00 | 0.00 | 0.00 | 0.00 |
| 05/06/26 10:12:17 PM | 34 | 2.0 | 15.0 | 56 | 69 | 68.3 | 62.3 | 30.062 | 7.26 | 0.0 | 0 | 0.00 | 0.00 | 0.00 | 0.00 |
| 05/06/26 10:13:28 PM | 38 | 1.0 | 15.0 | 56 | 69 | 68.3 | 62.3 | 30.063 | 7.26 | 0.0 | 0 | 0.00 | 0.00 | 0.00 | 0.00 |
| 05/06/26 10:14:21 PM | 34 | 0.0 | 15.0 | 56 | 69 | 68.3 | 62.3 | 30.064 | 7.26 | 0.0 | 0 | 0.00 | 0.00 | 0.00 | 0.00 |
| 05/06/26 10:15:29 PM | 38 | 0.0 | 15.0 | 56 | 69 | 68.4 | 62.2 | 30.065 | 7.26 | 0.0 | 0 | 0.00 | 0.00 | 0.00 | 0.00 |
| 05/06/26 10:16:21 PM | 36 | 0.0 | 15.0 | 56 | 69 | 68.4 | 62.2 | 30.065 | 7.26 | 0.0 | 0 | 0.00 | 0.00 | 0.00 | 0.00 |
| 05/06/26 10:17:32 PM | 32 | 1.0 | 15.0 | 56 | 69 | 68.4 | 62.2 | 30.064 | 7.26 | 0.0 | 0 | 0.00 | 0.00 | 0.00 | 0.00 |
| 05/06/26 10:18:23 PM | 38 | 2.0 | 15.0 | 56 | 69 | 68.4 | 62.1 | 30.065 | 7.26 | 0.0 | 0 | 0.00 | 0.00 | 0.00 | 0.00 |
| 05/06/26 10:19:37 PM | 34 | 3.0 | 15.0 | 56 | 69 | 68.4 | 62.1 | 30.063 | 7.26 | 0.0 | 0 | 0.00 | 0.00 | 0.00 | 0.00 |
| 05/06/26 10:20:23 PM | 35 | 2.0 | 15.0 | 56 | 69 | 68.5 | 62.1 | 30.064 | 7.26 | 0.0 | 0 | 0.00 | 0.00 | 0.00 | 0.00 |
| 05/06/26 10:21:34 PM | 38 | 2.0 | 15.0 | 56 | 69 | 68.5 | 62.0 | 30.065 | 7.26 | 0.0 | 0 | 0.00 | 0.00 | 0.00 | 0.00 |
| 05/06/26 10:22:27 PM | 38 | 3.0 | 15.0 | 56 | 70 | 68.5 | 62.0 | 30.065 | 7.26 | 0.0 | 0 | 0.00 | 0.00 | 0.00 | 0.00 |
| 05/06/26 10:23:19 PM | 37 | 2.0 | 15.0 | 56 | 70 | 68.6 | 62.0 | 30.062 | 7.26 | 0.0 | 0 | 0.00 | 0.00 | 0.00 | 0.00 |
| 05/06/26 10:24:33 PM | 32 | 3.0 | 15.0 | 56 | 70 | 68.6 | 61.9 | 30.061 | 7.26 | 0.0 | 0 | 0.00 | 0.00 | 0.00 | 0.00 |
| 05/06/26 10:25:26 PM | 38 | 2.0 | 15.0 | 56 | 70 | 68.6 | 61.8 | 30.063 | 7.26 | 0.0 | 0 | 0.00 | 0.00 | 0.00 | 0.00 |
| 05/06/26 10:26:34 PM | 35 | 2.0 | 15.0 | 56 | 70 | 68.7 | 61.8 | 30.061 | 7.26 | 0.0 | 0 | 0.00 | 0.00 | 0.00 | 0.00 |
| 05/06/26 10:27:23 PM | 38 | 2.0 | 15.0 | 56 | 70 | 68.7 | 61.8 | 30.062 | 7.26 | 0.0 | 0 | 0.00 | 0.00 | 0.00 | 0.00 |
| 05/06/26 10:28:16 PM | 34 | 1.0 | 15.0 | 56 | 70 | 68.7 | 61.7 | 30.063 | 7.26 | 0.0 | 0 | 0.00 | 0.00 | 0.00 | 0.00 |
| 05/06/26 10:29:27 PM | 36 | 1.0 | 15.0 | 56 | 70 | 68.7 | 61.7 | 30.064 | 7.26 | 0.0 | 0 | 0.00 | 0.00 | 0.00 | 0.00 |
| 05/06/26 10:30:19 PM | 38 | 1.0 | 15.0 | 56 | 70 | 68.8 | 61.6 | 30.062 | 7.26 | 0.0 | 0 | 0.00 | 0.00 | 0.00 | 0.00 |
| 05/06/26 10:31:27 PM | 38 | 1.0 | 15.0 | 56 | 70 | 68.8 | 61.6 | 30.062 | 7.26 | 0.0 | 0 | 0.00 | 0.00 | 0.00 | 0.00 |
| 05/06/26 10:32:20 PM | 36 | 0.0 | 15.0 | 56 | 70 | 68.8 | 61.6 | 30.063 | 7.26 | 0.0 | 0 | 0.00 | 0.00 | 0.00 | 0.00 |
| 05/06/26 10:33:30 PM | 36 | 0.0 | 15.0 | 56 | 70 | 68.9 | 61.5 | 30.064 | 7.26 | 0.0 | 0 | 0.00 | 0.00 | 0.00 | 0.00 |
| 05/06/26 10:34:26 PM | 38 | 0.0 | 15.0 | 56 | 70 | 68.8 | 61.5 | 30.063 | 7.26 | 0.0 | 0 | 0.00 | 0.00 | 0.00 | 0.00 |
| 05/06/26 10:35:16 PM | 38 | 0.0 | 15.0 | 56 | 70 | 68.8 | 61.4 | 30.063 | 7.26 | 0.0 | 0 | 0.00 | 0.00 | 0.00 | 0.00 |
| 05/06/26 10:36:23 PM | 38 | 0.0 | 15.0 | 56 | 70 | 68.9 | 61.4 | 30.063 | 7.26 | 0.0 | 0 | 0.00 | 0.00 | 0.00 | 0.00 |
| 05/06/26 10:37:16 PM | 36 | 0.0 | 15.0 | 56 | 70 | 68.9 | 61.4 | 30.064 | 7.26 | 0.0 | 0 | 0.00 | 0.00 | 0.00 | 0.00 |
| 05/06/26 10:38:27 PM | 38 | 0.0 | 15.0 | 56 | 70 | 68.9 | 61.4 | 30.061 | 7.26 | 0.0 | 0 | 0.00 | 0.00 | 0.00 | 0.00 |
| 05/06/26 10:39:20 PM | 30 | 0.0 | 15.0 | 56 | 71 | 68.9 | 61.4 | 30.062 | 7.26 | 0.0 | 0 | 0.00 | 0.00 | 0.00 | 0.00 |
| 05/06/26 10:40:34 PM | 35 | 0.0 | 15.0 | 56 | 71 | 68.9 | 61.3 | 30.062 | 7.26 | 0.0 | 0 | 0.00 | 0.00 | 0.00 | 0.00 |
| 05/06/26 10:41:23 PM | 37 | 0.0 | 15.0 | 56 | 71 | 69.0 | 61.3 | 30.063 | 7.26 | 0.0 | 0 | 0.00 | 0.00 | 0.00 | 0.00 |
| 05/06/26 10:42:34 PM | 34 | 0.0 | 15.0 | 56 | 71 | 68.9 | 61.3 | 30.063 | 7.26 | 0.0 | 0 | 0.00 | 0.00 | 0.00 | 0.00 |
| 05/06/26 10:43:24 PM | 37 | 0.0 | 15.0 | 56 | 71 | 69.0 | 61.3 | 30.064 | 7.26 | 0.0 | 0 | 0.00 | 0.00 | 0.00 | 0.00 |
| 05/06/26 10:44:17 PM | 36 | 0.0 | 15.0 | 56 | 71 | 69.0 | 61.3 | 30.063 | 7.26 | 0.0 | 0 | 0.00 | 0.00 | 0.00 | 0.00 |
| 05/06/26 10:45:30 PM | 36 | 0.0 | 15.0 | 56 | 71 | 69.0 | 61.3 | 30.063 | 7.26 | 0.0 | 0 | 0.00 | 0.00 | 0.00 | 0.00 |
| 05/06/26 10:46:20 PM | 37 | 0.0 | 15.0 | 56 | 71 | 69.0 | 61.3 | 30.064 | 7.26 | 0.0 | 0 | 0.00 | 0.00 | 0.00 | 0.00 |
| 05/06/26 10:47:28 PM | 32 | 0.0 | 15.0 | 56 | 71 | 69.0 | 61.2 | 30.063 | 7.26 | 0.0 | 0 | 0.00 | 0.00 | 0.00 | 0.00 |
| 05/06/26 10:48:21 PM | 38 | 0.0 | 15.0 | 56 | 71 | 69.1 | 61.2 | 30.064 | 7.26 | 0.0 | 0 | 0.00 | 0.00 | 0.00 | 0.00 |
| 05/06/26 10:49:31 PM | 35 | 0.0 | 15.0 | 56 | 71 | 69.0 | 61.2 | 30.063 | 7.26 | 0.0 | 0 | 0.00 | 0.00 | 0.00 | 0.00 |
| 05/06/26 10:50:27 PM | 39 | 0.0 | 15.0 | 56 | 71 | 69.1 | 61.2 | 30.063 | 7.26 | 0.0 | 0 | 0.00 | 0.00 | 0.00 | 0.00 |
| 05/06/26 10:51:20 PM | 31 | 0.0 | 15.0 | 56 | 71 | 69.0 | 61.2 | 30.064 | 7.26 | 0.0 | 0 | 0.00 | 0.00 | 0.00 | 0.00 |
| 05/06/26 10:52:25 PM | 38 | 0.0 | 15.0 | 56 | 71 | 69.1 | 61.2 | 30.066 | 7.26 | 0.0 | 0 | 0.00 | 0.00 | 0.00 | 0.00 |
| 05/06/26 10:53:20 PM | 38 | 0.0 | 15.0 | 56 | 71 | 69.1 | 61.1 | 30.065 | 7.26 | 0.0 | 0 | 0.00 | 0.00 | 0.00 | 0.00 |
| 05/06/26 10:54:31 PM | 36 | 0.0 | 15.0 | 56 | 72 | 69.1 | 61.1 | 30.064 | 7.26 | 0.0 | 0 | 0.00 | 0.00 | 0.00 | 0.00 |
| 05/06/26 10:55:24 PM | 37 | 0.0 | 15.0 | 56 | 72 | 69.1 | 61.1 | 30.068 | 7.26 | 0.0 | 0 | 0.00 | 0.00 | 0.00 | 0.00 |
| 05/06/26 10:56:35 PM | 35 | 0.0 | 15.0 | 56 | 72 | 69.1 | 61.1 | 30.066 | 7.26 | 0.0 | 0 | 0.00 | 0.00 | 0.00 | 0.00 |
| 05/06/26 10:57:27 PM | 38 | 0.0 | 15.0 | 56 | 72 | 69.1 | 61.0 | 30.065 | 7.26 | 0.0 | 0 | 0.00 | 0.00 | 0.00 | 0.00 |
| 05/06/26 10:58:35 PM | 36 | 0.0 | 15.0 | 56 | 72 | 69.2 | 61.0 | 30.066 | 7.26 | 0.0 | 0 | 0.00 | 0.00 | 0.00 | 0.00 |
| 05/06/26 10:59:28 PM | 34 | 0.0 | 15.0 | 56 | 72 | 69.2 | 61.0 | 30.065 | 7.26 | 0.0 | 0 | 0.00 | 0.00 | 0.00 | 0.00 |
| 05/06/26 11:00:21 PM | 36 | 0.0 | 15.0 | 56 | 72 | 69.2 | 61.0 | 30.065 | 7.26 | 0.0 | 0 | 0.00 | 0.00 | 0.00 | 0.00 |
| 05/06/26 11:01:32 PM | 36 | 0.0 | 15.0 | 56 | 72 | 69.2 | 60.9 | 30.067 | 7.26 | 0.0 | 0 | 0.00 | 0.00 | 0.00 | 0.00 |
| 05/06/26 11:02:24 PM | 39 | 0.0 | 15.0 | 56 | 72 | 69.2 | 60.9 | 30.064 | 7.26 | 0.0 | 0 | 0.00 | 0.00 | 0.00 | 0.00 |
| 05/06/26 11:03:32 PM | 38 | 0.0 | 15.0 | 56 | 72 | 69.2 | 60.8 | 30.064 | 7.26 | 0.0 | 0 | 0.00 | 0.00 | 0.00 | 0.00 |
| 05/06/26 11:04:24 PM | 31 | 0.0 | 15.0 | 56 | 72 | 69.2 | 60.8 | 30.066 | 7.26 | 0.0 | 0 | 0.00 | 0.00 | 0.00 | 0.00 |
| 05/06/26 11:05:17 PM | 38 | 0.0 | 15.0 | 56 | 72 | 69.2 | 60.8 | 30.064 | 7.26 | 0.0 | 0 | 0.00 | 0.00 | 0.00 | 0.00 |
| 05/06/26 11:06:28 PM | 35 | 0.0 | 15.0 | 56 | 71 | 69.2 | 60.7 | 30.066 | 7.26 | 0.0 | 0 | 0.00 | 0.00 | 0.00 | 0.00 |
| 05/06/26 11:07:21 PM | 38 | 0.0 | 15.0 | 56 | 71 | 69.3 | 60.7 | 30.066 | 7.26 | 0.0 | 0 | 0.00 | 0.00 | 0.00 | 0.00 |
| 05/06/26 11:08:29 PM | 37 | 0.0 | 15.0 | 56 | 71 | 69.2 | 60.6 | 30.067 | 7.26 | 0.0 | 0 | 0.00 | 0.00 | 0.00 | 0.00 |
| 05/06/26 11:09:21 PM | 35 | 0.0 | 15.0 | 56 | 71 | 69.3 | 60.6 | 30.068 | 7.26 | 0.0 | 0 | 0.00 | 0.00 | 0.00 | 0.00 |
| 05/06/26 11:10:32 PM | 35 | 0.0 | 15.0 | 56 | 72 | 69.2 | 60.5 | 30.065 | 7.26 | 0.0 | 0 | 0.00 | 0.00 | 0.00 | 0.00 |
| 05/06/26 11:11:28 PM | 38 | 0.0 | 15.0 | 56 | 72 | 69.3 | 60.4 | 30.066 | 7.26 | 0.0 | 0 | 0.00 | 0.00 | 0.00 | 0.00 |
| 05/06/26 11:12:18 PM | 38 | 0.0 | 15.0 | 56 | 72 | 69.3 | 60.5 | 30.066 | 7.26 | 0.0 | 0 | 0.00 | 0.00 | 0.00 | 0.00 |
| 05/06/26 11:13:34 PM | 34 | 0.0 | 15.0 | 56 | 72 | 69.3 | 60.4 | 30.066 | 7.26 | 0.0 | 0 | 0.00 | 0.00 | 0.00 | 0.00 |
| 05/06/26 11:14:21 PM | 38 | 0.0 | 15.0 | 56 | 72 | 69.2 | 60.3 | 30.066 | 7.26 | 0.0 | 0 | 0.00 | 0.00 | 0.00 | 0.00 |
| 05/06/26 11:15:38 PM | 38 | 0.0 | 15.0 | 56 | 72 | 69.3 | 60.3 | 30.066 | 7.26 | 0.0 | 0 | 0.00 | 0.00 | 0.00 | 0.00 |
| 05/06/26 11:16:28 PM | 36 | 0.0 | 15.0 | 56 | 72 | 69.4 | 60.3 | 30.067 | 7.26 | 0.0 | 0 | 0.00 | 0.00 | 0.00 | 0.00 |
| 05/06/26 11:17:21 PM | 38 | 0.0 | 15.0 | 56 | 72 | 69.3 | 60.2 | 30.066 | 7.26 | 0.0 | 0 | 0.00 | 0.00 | 0.00 | 0.00 |
| 05/06/26 11:18:35 PM | 32 | 0.0 | 15.0 | 56 | 72 | 69.3 | 60.2 | 30.068 | 7.26 | 0.0 | 0 | 0.00 | 0.00 | 0.00 | 0.00 |
| 05/06/26 11:19:21 PM | 38 | 0.0 | 15.0 | 56 | 72 | 69.3 | 60.2 | 30.066 | 7.26 | 0.0 | 0 | 0.00 | 0.00 | 0.00 | 0.00 |
| 05/06/26 11:20:32 PM | 38 | 0.0 | 15.0 | 56 | 72 | 69.3 | 60.1 | 30.067 | 7.26 | 0.0 | 0 | 0.00 | 0.00 | 0.00 | 0.00 |
| 05/06/26 11:21:25 PM | 35 | 0.0 | 15.0 | 56 | 72 | 69.4 | 60.1 | 30.068 | 7.26 | 0.0 | 0 | 0.00 | 0.00 | 0.00 | 0.00 |
| 05/06/26 11:22:17 PM | 36 | 0.0 | 15.0 | 56 | 72 | 69.3 | 60.0 | 30.067 | 7.26 | 0.0 | 0 | 0.00 | 0.00 | 0.00 | 0.00 |
| 05/06/26 11:23:31 PM | 38 | 1.0 | 15.0 | 56 | 72 | 69.3 | 60.0 | 30.068 | 7.26 | 0.0 | 0 | 0.00 | 0.00 | 0.00 | 0.00 |
| 05/06/26 11:24:24 PM | 36 | 2.0 | 15.0 | 56 | 72 | 69.4 | 60.0 | 30.067 | 7.26 | 0.0 | 0 | 0.00 | 0.00 | 0.00 | 0.00 |
| 05/06/26 11:25:32 PM | 35 | 2.0 | 15.0 | 56 | 73 | 69.4 | 59.9 | 30.067 | 7.26 | 0.0 | 0 | 0.00 | 0.00 | 0.00 | 0.00 |
| 05/06/26 11:26:25 PM | 35 | 2.0 | 15.0 | 56 | 73 | 69.4 | 59.9 | 30.068 | 7.26 | 0.0 | 0 | 0.00 | 0.00 | 0.00 | 0.00 |
| 05/06/26 11:27:36 PM | 38 | 1.0 | 15.0 | 56 | 73 | 69.4 | 59.8 | 30.068 | 7.26 | 0.0 | 0 | 0.00 | 0.00 | 0.00 | 0.00 |
| 05/06/26 11:28:28 PM | 34 | 2.0 | 15.0 | 56 | 73 | 69.4 | 59.8 | 30.068 | 7.26 | 0.0 | 0 | 0.00 | 0.00 | 0.00 | 0.00 |
| 05/06/26 11:29:21 PM | 32 | 3.0 | 15.0 | 56 | 73 | 69.4 | 59.8 | 30.066 | 7.26 | 0.0 | 0 | 0.00 | 0.00 | 0.00 | 0.00 |
| 05/06/26 11:30:53 PM | 36 | 3.0 | 15.0 | 56 | 74 | 69.4 | 59.7 | 30.068 | 7.26 | 0.0 | 0 | 0.00 | 0.00 | 0.00 | 0.00 |
| 05/06/26 11:31:25 PM | 38 | 2.0 | 15.0 | 56 | 74 | 69.4 | 59.7 | 30.065 | 7.26 | 0.0 | 0 | 0.00 | 0.00 | 0.00 | 0.00 |
| 05/06/26 11:32:36 PM | 36 | 2.0 | 15.0 | 56 | 74 | 69.4 | 59.6 | 30.066 | 7.26 | 0.0 | 0 | 0.00 | 0.00 | 0.00 | 0.00 |
| 05/06/26 11:33:28 PM | 38 | 3.0 | 15.0 | 56 | 74 | 69.4 | 59.6 | 30.066 | 7.26 | 0.0 | 0 | 0.00 | 0.00 | 0.00 | 0.00 |
| 05/06/26 11:34:21 PM | 30 | 1.0 | 15.0 | 56 | 74 | 69.4 | 59.6 | 30.064 | 7.26 | 0.0 | 0 | 0.00 | 0.00 | 0.00 | 0.00 |
| 05/06/26 11:35:35 PM | 35 | 1.0 | 15.0 | 56 | 74 | 69.4 | 59.5 | 30.068 | 7.26 | 0.0 | 0 | 0.00 | 0.00 | 0.00 | 0.00 |
| 05/06/26 11:36:22 PM | 38 | 0.0 | 15.0 | 56 | 74 | 69.4 | 59.5 | 30.067 | 7.26 | 0.0 | 0 | 0.00 | 0.00 | 0.00 | 0.00 |
| 05/06/26 11:37:32 PM | 34 | 2.0 | 15.0 | 56 | 74 | 69.4 | 59.5 | 30.069 | 7.26 | 0.0 | 0 | 0.00 | 0.00 | 0.00 | 0.00 |
| 05/06/26 11:38:25 PM | 38 | 0.0 | 15.0 | 56 | 74 | 69.4 | 59.5 | 30.067 | 7.26 | 0.0 | 0 | 0.00 | 0.00 | 0.00 | 0.00 |
| 05/06/26 11:39:18 PM | 38 | 0.0 | 15.0 | 56 | 74 | 69.4 | 59.5 | 30.067 | 7.26 | 0.0 | 0 | 0.00 | 0.00 | 0.00 | 0.00 |
| 05/06/26 11:40:29 PM | 36 | 0.0 | 15.0 | 56 | 74 | 69.4 | 59.4 | 30.067 | 7.26 | 0.0 | 0 | 0.00 | 0.00 | 0.00 | 0.00 |
| 05/06/26 11:41:19 PM | 34 | 0.0 | 15.0 | 56 | 74 | 69.4 | 59.4 | 30.067 | 7.26 | 0.0 | 0 | 0.00 | 0.00 | 0.00 | 0.00 |
| 05/06/26 11:42:29 PM | 36 | 0.0 | 15.0 | 56 | 74 | 69.4 | 59.4 | 30.066 | 7.26 | 0.0 | 0 | 0.00 | 0.00 | 0.00 | 0.00 |
| 05/06/26 11:43:22 PM | 32 | 0.0 | 15.0 | 56 | 74 | 69.4 | 59.3 | 30.067 | 7.26 | 0.0 | 0 | 0.00 | 0.00 | 0.00 | 0.00 |
| 05/06/26 11:44:33 PM | 35 | 0.0 | 15.0 | 56 | 74 | 69.4 | 59.3 | 30.066 | 7.26 | 0.0 | 0 | 0.00 | 0.00 | 0.00 | 0.00 |
| 05/06/26 11:45:29 PM | 38 | 0.0 | 15.0 | 56 | 74 | 69.4 | 59.3 | 30.065 | 7.26 | 0.0 | 0 | 0.00 | 0.00 | 0.00 | 0.00 |
| 05/06/26 11:46:19 PM | 38 | 0.0 | 15.0 | 56 | 74 | 69.4 | 59.3 | 30.066 | 7.26 | 0.0 | 0 | 0.00 | 0.00 | 0.00 | 0.00 |
| 05/06/26 11:47:26 PM | 31 | 0.0 | 15.0 | 56 | 75 | 69.4 | 59.3 | 30.064 | 7.26 | 0.0 | 0 | 0.00 | 0.00 | 0.00 | 0.00 |
| 05/06/26 11:48:19 PM | 37 | 0.0 | 15.0 | 56 | 75 | 69.4 | 59.3 | 30.064 | 7.26 | 0.0 | 0 | 0.00 | 0.00 | 0.00 | 0.00 |
| 05/06/26 11:49:30 PM | 35 | 0.0 | 15.0 | 56 | 75 | 69.4 | 59.3 | 30.067 | 7.26 | 0.0 | 0 | 0.00 | 0.00 | 0.00 | 0.00 |
| 05/06/26 11:50:23 PM | 38 | 0.0 | 15.0 | 56 | 75 | 69.4 | 59.3 | 30.067 | 7.26 | 0.0 | 0 | 0.00 | 0.00 | 0.00 | 0.00 |
| 05/06/26 11:51:36 PM | 35 | 0.0 | 15.0 | 56 | 75 | 69.4 | 59.2 | 30.066 | 7.26 | 0.0 | 0 | 0.00 | 0.00 | 0.00 | 0.00 |
| 05/06/26 11:52:23 PM | 36 | 0.0 | 15.0 | 56 | 75 | 69.4 | 59.2 | 30.065 | 7.26 | 0.0 | 0 | 0.00 | 0.00 | 0.00 | 0.00 |
| 05/06/26 11:53:37 PM | 36 | 0.0 | 15.0 | 56 | 75 | 69.4 | 59.2 | 30.067 | 7.26 | 0.0 | 0 | 0.00 | 0.00 | 0.00 | 0.00 |
| 05/06/26 11:54:30 PM | 38 | 0.0 | 15.0 | 56 | 75 | 69.4 | 59.2 | 30.066 | 7.26 | 0.0 | 0 | 0.00 | 0.00 | 0.00 | 0.00 |
| 05/06/26 11:55:23 PM | 32 | 0.0 | 15.0 | 56 | 75 | 69.4 | 59.2 | 30.063 | 7.26 | 0.0 | 0 | 0.00 | 0.00 | 0.00 | 0.00 |
| 05/06/26 11:56:34 PM | 36 | 0.0 | 15.0 | 56 | 75 | 69.4 | 59.1 | 30.065 | 7.26 | 0.0 | 0 | 0.00 | 0.00 | 0.00 | 0.00 |
| 05/06/26 11:57:20 PM | 38 | 0.0 | 15.0 | 56 | 75 | 69.4 | 59.1 | 30.064 | 7.26 | 0.0 | 0 | 0.00 | 0.00 | 0.00 | 0.00 |
| 05/06/26 11:58:34 PM | 31 | 0.0 | 15.0 | 56 | 75 | 69.4 | 59.1 | 30.066 | 7.26 | 0.0 | 0 | 0.00 | 0.00 | 0.00 | 0.00 |
University Police wind advisory reference
For campus closure information please call the campus Emergency Hotline at (909) 537-5999
© All rights reserved. Unauthorized duplication or distribution is prohibited
Never base important decisions on this or any weather information obtained from the Internet
California State University, San Bernardino
5500 University Parkway, San Bernardino, CA. 92407
Phone: (909) 537-5108, Email: Weather Webmaster
Last Updated: